     2              OBSERVATION DATA    GPS                 RINEX VERSION / TYPE
ASRINEXO V2.2.0 UX USGS 24-MAR-94 10:21                     PGM / RUN BY / DATE
                                                            COMMENT
Original Marker Name: mide Mid_Ecc_1984_USGS                COMMENT
Campaign Name: USGS Parkfield                               COMMENT
4-Character Station Name: MIDC                              COMMENT
6-Character Antenna Code: ASHL12                            COMMENT
Vertical Measurement Point: BBE                             COMMENT
Vertical Offset to Rinex Ref. Point: 0.0595                 COMMENT
Radial Measurement Point: EGP                               COMMENT
Radial Offset to Rinex Ref. Point: 0.1424                   COMMENT
Antenna Height from Field Measurement: 1.3880 m             COMMENT
Additional Antenna Identification Info.:                    COMMENT
Original Ashtech L1/L2 (700228ABC)                          COMMENT
Original XYZ: -2623813.1300 -4454699.3800 3724162.0400      COMMENT
New XYZ position is based on association with SCEC monument COMMENT
E1F1N4C9+0011. Position of that monument is believed to be  COMMENT
valid to within 1 m horizontally; vertical accuracy         COMMENT
should be no worse than 3-times this value.                 COMMENT
                                                            COMMENT
Revised Rinex header created by UCSD GPS archive for        COMMENT
GSAC on 11-Jul-2000 (2000:193) 01:03:13 GMT                 COMMENT
For assistance contact dagnew@ucsd.edu                      COMMENT
or anderson@python.ucsd.edu                                 COMMENT
                                                            COMMENT
MID ECC                                                     MARKER NAME
                                                            MARKER NUMBER
KWC US GEOLOGICAL SURVEY                                    OBSERVER / AGENCY
831 ASHTECH L-XII 5F                                        REC # / TYPE / VERS
616 ASHTECH GEODETIC L                                      ANT # / TYPE
 -2623782.7965 -4454604.3620  3724109.9780                  APPROX POSITION XYZ
        1.3212        0.0000        0.0000                  ANTENNA: DELTA H/E/N
     1     2     0                                          WAVELENGTH FACT L1/2
     3    C1    L1    L2                                    # / TYPES OF OBSERV
    30                                                      INTERVAL
  1992     4    13     2     2   30.000000                  TIME OF FIRST OBS
  1992     4    13    20     7    0.000000                  TIME OF LAST OBS
                                                            END OF HEADER
 92  4 13  2  2 30.0000000  0  4  2 12 24 13
  24316284.986       76467.492 4     59584.929 2
  20926905.205      -46550.572 9    -36272.777 9
  21328563.541      -80921.065 8    -63054.641 7
  20867850.889       44816.808 9     34921.648 5
 92  4 13  2  3  0.0000000  0  4  2 12 24 13
  24630991.819      154808.837 4    120630.067 1
  21217892.459      -92830.903 9    -72335.332 9
  21612890.907     -162203.929 8   -126391.830 7
  21176449.151       91092.466 9     70980.582 6
 92  4 13  2  3 30.0000000  0  4  2 12 24 13
  24646015.619      233774.809 5    182162.001 1
  21209272.226     -138128.634 9   -107632.234 9
  21597594.896     -242599.061 8   -189037.266 7
  21185393.457      138083.374 9    107596.864 7
 92  4 13  2  4  0.0000000  0  3 12 24 13
  21200831.569     -182480.825 9   -142192.353 9
  21582453.578     -322141.291 8   -251018.105 7
  21194463.378      185745.083 9    144735.858 6
 92  4 13  2  4 30.0000000  0  3 12 24 13
  21192569.287     -225894.915 8   -176021.477 9
  21567475.947     -400847.959 8   -312347.879 8
  21203655.912      234066.004 9    182388.505 6
 92  4 13  2  5  0.0000000  0  3 12 24 13
  21184481.487     -268393.863 8   -209137.509 9
  21552655.708     -478744.263 8   -373046.172 7
  21212971.663      283017.988 9    220532.873 7
 92  4 13  2  5 30.0000000  0  3 12 24 13
  21176562.770     -310010.105 8   -241565.720 9
  21537980.267     -555865.493 8   -433140.528 8
  21222400.138      332565.590 9    259141.371 6
 92  4 13  2  6  0.0000000  0  3 12 24 13
  21168805.939     -350770.605 9   -273327.109 9
  21523447.826     -632232.888 8   -492647.483 8
  21231937.733      382677.412 9    298189.537 6
 92  4 13  2  6 30.0000000  0  3 12 24 13
  21161213.096     -390691.588 9   -304434.337 9
  21509058.390     -707868.419 8   -551584.182 6
  21241574.865      433333.360 9    337661.684 7
 92  4 13  2  7  0.0000000  0  3 12 24 13
  21153769.849     -429794.644 9   -334904.227 9
  21494793.666     -782798.019 7   -609970.782 7
  21251315.419      484507.647 9    377537.740 6
 92  4 13  2  7 30.0000000  0  3 12 24 13
  21146482.194     -468088.870 9   -364743.860 9
  21480671.340     -857031.324 8   -667814.819 7
  21261148.312      536186.677 9    417807.093 7
 92  4 13  2  8  0.0000000  0  3 12 24 13
  21139348.335     -505579.851 8   -393957.590 9
  21466675.829     -930569.168 8   -725116.942 6
  21271076.242      588360.837 9    458462.280 6
 92  4 13  2  8 30.0000000  0  3 12 24 13
  21132364.069     -542281.839 8   -422556.506 9
  21452811.029    -1003426.109 8   -781888.473 7
  21281095.904      641011.618 9    499488.846 6
 92  4 13  2  9  0.0000000  0  3 12 24 13
  21125529.399     -578194.870 8   -450540.646 9
  21439077.834    -1075586.613 8   -838117.331 7
  21291206.403      694135.150 9    540883.794 7
 92  4 13  2  9 30.0000000  0  3 12 24 13
  21118842.829     -613324.478 8   -477914.338 9
  21425484.948    -1147044.252 8   -893798.510 7
  21301402.644      747721.716 9    582639.554 6
 92  4 13  2 10  0.0000000  0  3 12 24 13
  21112307.953     -647681.450 8   -504685.962 9
  21412012.271    -1217813.110 8   -948942.972 8
  21311685.826      801756.487 9    624744.580 6
 92  4 13  2 10 30.0000000  0  3 12 24 13
  21105917.278     -681266.258 9   -530855.921 9
  21398677.504    -1287899.960 8  -1003556.024 8
  21322049.650      856235.511 9    667195.780 6
 92  4 13  2 11  0.0000000  0  3 12 24 13
  21099670.501     -714084.242 8   -556428.344 9
  21385468.946    -1357315.101 8  -1057645.653 7
  21332501.318      911149.577 9    709985.967 7
 92  4 13  2 11 30.0000000  0  3 12 24 13
  21093569.726     -746138.223 8   -581405.437 9
  21372382.107    -1426084.515 8  -1111232.120 8
  21343033.624      966491.553 9    753109.591 6
 92  4 13  2 12  0.0000000  0  3 12 24 13
  21087613.749     -777432.206 8   -605790.330 9
  21359414.584    -1494226.710 8  -1164329.845 8
  21353641.782     1022253.699 9    796560.620 5
 92  4 13  2 12 30.0000000  0  3 12 24 13
  21081805.570     -807967.283 8   -629583.866 8
  21346568.480    -1561727.825 8  -1216928.026 8
  21364334.778     1078431.153 9    840335.295 6
 92  4 13  2 13  0.0000000  0  3 12 24 13
  21076137.993     -837747.486 8   -652789.192 8
  21333847.385    -1628581.944 8  -1269022.051 8
  21375102.723     1135016.031 8    884427.400 6
 92  4 13  2 13 30.0000000  0  3 12 24 13
  21070611.020     -866775.163 8   -675408.133 8
  21321250.705    -1694785.609 8  -1320609.225 8
  21385948.015     1192002.133 8    928832.164 6
 92  4 13  2 14  0.0000000  0  3 12 24 13
  21065231.842     -895060.834 8   -697448.885 9
  21308778.738    -1760321.245 8  -1371675.853 8
  21396865.557     1249374.816 8    973538.156 6
 92  4 13  2 14 30.0000000  0  3 12 24 13
  21059992.070     -922600.257 8   -718908.144 8
  21296435.383    -1825182.877 8  -1422217.301 8
  21407853.553     1307134.910 9   1018546.005 6
 92  4 13  2 15  0.0000000  0  3 12 24 13
  21054893.500     -949391.593 8   -739784.491 9
  21284215.244    -1889398.232 8  -1472255.155 7
  21418921.288     1365280.669 9   1063854.393 6
 92  4 13  2 15 30.0000000  0  3 12 24 13
  21049933.734     -975446.036 8   -760086.623 9
  21272116.218    -1952985.078 8  -1521803.256 8
  21430055.583     1423797.097 9   1109451.626 5
 92  4 13  2 16  0.0000000  0  3 12 24 13
  21045120.567    -1000761.833 8   -779813.194 9
  21260132.617    -2015948.155 8  -1570865.281 8
  21441261.524     1482681.966 8   1155335.951 6
 92  4 13  2 16 30.0000000  0  3 12 24 13
  21040439.908    -1025338.768 8   -798964.034 9
  21248265.331    -2078307.960 8  -1619457.262 7
  21452533.719     1541932.134 8   1201504.898 6
 92  4 13  2 17  0.0000000  0  3 12 24 13
  21035903.148    -1049181.256 8   -817542.565 9
  21236517.966    -2140047.792 8  -1667566.137 8
  21463876.068     1601539.398 8   1247952.118 5
 92  4 13  2 17 30.0000000  0  3 12 24 13
  21031507.591    -1072289.116 8   -835548.655 9
  21224891.715    -2201142.705 8  -1715172.462 8
  21475288.266     1661500.688 8   1294675.212 6
 92  4 13  2 18  0.0000000  0  3 12 24 13
  21027246.941    -1094667.909 8   -852986.647 9
  21213388.675    -2261597.928 8  -1762280.350 8
  21486765.222     1721806.479 9   1341666.725 5
 92  4 13  2 18 30.0000000  0  3 12 24 13
  21023127.193    -1116317.641 8   -869856.543 9
  21202010.353    -2321398.687 8  -1808878.262 9
  21498305.435     1782453.292 8   1388923.971 5
 92  4 13  2 19  0.0000000  0  3 12 24 13
  21019149.246    -1137238.183 9   -886158.240 8
  21190754.347    -2380536.355 8  -1854959.477 9
  21509910.401     1843437.948 8   1436444.498 5
 92  4 13  2 19 30.0000000  0  3 12 24 13
  21015305.007    -1157433.341 8   -901894.707 9
  21179619.756    -2439034.816 8  -1900542.612 8
  21521576.522     1904753.184 8   1484222.567 6
 92  4 13  2 20  0.0000000  0  3 12 24 13
  21011596.875    -1176901.588 8   -917064.751 7
  21168608.978    -2496902.313 8  -1945634.069 8
  21533306.501     1966397.034 8   1532256.731 6
 92  4 13  2 20 30.0000000  0  3 12 24 13
  21008032.341    -1195645.176 8   -931670.119 8
  21157716.020    -2554146.376 8  -1990239.745 9
  21545099.140     2028363.851 8   1580542.554 6
 92  4 13  2 21  0.0000000  0  3 12 24 13
  21004603.617    -1213661.853 9   -945709.074 8
  21146935.480    -2610784.852 8  -2034373.539 8
  21556953.230     2090652.648 8   1629079.298 5
 92  4 13  2 21 30.0000000  0  3 12 24 13
  21001313.994    -1230957.411 8   -959186.132 8
  21136273.362    -2666829.977 8  -2078044.989 8
  21568866.982     2153254.168 8   1677859.699 6
 92  4 13  2 22  0.0000000  0  3 12 24 13
  20998159.574    -1247531.270 8   -972100.806 8
  21125723.964    -2722277.347 8  -2121250.651 8
  21580838.896     2216165.776 8   1726881.733 5
 92  4 13  2 22 30.0000000  0  3 12 24 13
  20995142.467    -1263381.155 8   -984451.346 9
  21115281.597    -2777130.933 8  -2163993.619 8
  21592868.370     2279386.506 8   1776144.621 5
 92  4 13  2 23  0.0000000  0  3 12 24 13
  20992262.361    -1278512.658 8   -996242.100 8
  21104963.340    -2831389.494 8  -2206272.933 8
  21604956.598     2342907.498 8   1825641.499 5
 92  4 13  2 23 30.0000000  0  3 12 24 13
  20989521.656    -1292924.285 8  -1007471.918 9
  21094750.910    -2885035.610 8  -2248075.014 8
  21617099.995     2406726.837 8   1875370.836 4
 92  4 13  2 24  0.0000000  0  3 12 24 13
  20986914.960    -1306617.874 8  -1018142.225 8
  21084657.795    -2938058.478 7  -2289391.449 9
  21629301.545     2470839.637 8   1925328.867 5
 92  4 13  2 24 30.0000000  0  3 12 24 13
  20984447.368    -1319592.661 8  -1028252.438 9
  21074692.395    -2990437.089 7  -2330205.874 9
  21641555.262     2535243.672 8   1975513.834 4
 92  4 13  2 25  0.0000000  0  3 12 24 13
  20982113.187    -1331850.664 8  -1037804.115 8
  21064853.805    -3042150.071 8  -2370501.633 9
  21653865.942     2599933.877 8   2025921.780 5
 92  4 13  2 25 30.0000000  0  3 12 24 13
  20979916.606    -1343392.483 8  -1046797.713 9
  21055139.932    -3093196.189 7  -2410277.752 9
  21666228.182     2664906.280 7   2076549.612 4
 92  4 13  2 26  0.0000000  0  3 12 24 13
  20977857.633    -1354220.955 8  -1055235.457 9
  21045551.068    -3143583.266 8  -2449540.323 8
  21678646.486     2730154.908 8   2127392.688 4
 92  4 13  2 26 30.0000000  0  3 12 24 13
  20975929.668    -1364332.592 8  -1063114.633 9
  21036083.923    -3193335.327 8  -2488308.079 7
  21691115.155     2795679.954 8   2178451.153 6
 92  4 13  2 27  0.0000000  0  3 12 24 13
  20974141.405    -1373735.606 8  -1070441.640 9
  21026729.799    -3242493.383 8  -2526612.977 8
  21703638.085     2861470.548 8   2229716.548 5
 92  4 13  2 27 30.0000000  0  3 12 24 13
  20972488.350    -1382424.156 8  -1077211.916 9
  21017488.696    -3291071.238 8  -2564465.750 8
  21716201.788     2927529.368 8   2281190.930 5
 92  4 13  2 28  0.0000000  0  3 12 24 13
  20970971.398    -1390398.899 8  -1083425.971 8
  21008353.420    -3339075.663 8  -2601871.708 9
  21728826.048     2993853.092 8   2332871.759 5
 92  4 13  2 28 30.0000000  0  3 12 24 13
  20969589.354    -1397663.004 8  -1089086.304 9
  20999323.373    -3386507.382 7  -2638831.418 9
  21741494.077     3060435.760 8   2384754.361 6
 92  4 13  2 29  0.0000000  0  3 12 24 13
  20968340.119    -1404215.196 8  -1094191.887 9
  20990414.740    -3433336.757 7  -2675321.766 9
  21754216.071     3127276.094 8   2436837.733 6
 92  4 13  2 29 30.0000000  0  3 12 24 13
  20967231.786    -1410057.156 7  -1098744.053 9
  20981617.326    -3479546.586 7  -2711329.354 9
  21766983.632     3194369.221 9   2489118.078 6
 92  4 13  2 30  0.0000000  0  3 12 24 13
  20966255.664    -1415193.606 7  -1102746.453 9
  20972941.637    -3525138.081 8  -2746855.132 9
  21779794.963     3261707.361 8   2541589.339 3
 92  4 13  2 30 30.0000000  0  3 12 24 13
  20965411.449    -1419622.353 8  -1106197.405 9
  20964384.957    -3570102.303 7  -2781892.119 9
  21792656.057     3329290.498 8   2594251.493 5
 92  4 13  2 31  0.0000000  0  3 12 24 13
  20964700.941    -1423341.643 8  -1109095.535 9
  20955950.896    -3614431.755 8  -2816434.472 9
  21805565.121     3397117.738 8   2647103.889 5
 92  4 13  2 31 30.0000000  0  3 12 24 13
  20964130.433    -1426353.616 8  -1111442.513 9
  20947631.954    -3658134.344 8  -2850488.364 9
  21818515.255     3465183.401 8   2700142.040 5
 92  4 13  2 32  0.0000000  0  3 12 24 13
  20963690.037    -1428657.285 8  -1113237.566 9
  20939437.131    -3701209.291 8  -2884053.180 9
  21831513.359     3533486.211 8   2753365.019 4
 92  4 13  2 32 30.0000000  0  3 12 24 13
  20963385.452    -1430253.980 8  -1114481.719 9
  20931358.924    -3743649.968 7  -2917123.758 9
  21844556.128     3602022.562 8   2806769.979 5
 92  4 13  2 33  0.0000000  0  4 20 12 24 13
  24712371.983     -224762.366 4   -175139.501 2
  20963217.865    -1431141.862 8  -1115173.557 9
  20923403.029    -3785462.262 8  -2949704.699 9
  21857644.166     3670791.726 8   2860356.341 5
 92  4 13  2 33 30.0000000  0  4 20 12 24 13
  24694323.275     -319603.360 3   -249041.389 1
  20963183.990    -1431323.530 8  -1115315.152 9
  20915562.258    -3826666.550 8  -2981811.865 9
  21870774.478     3739788.571 8   2914120.100 2
 92  4 13  2 34  0.0000000  0  3 12 24 13
  20963287.718    -1430796.701 8  -1114904.567 9
  20907835.707    -3867266.070 8  -3013447.778 9
  21883940.462     3809012.152 8   2968060.567 5
 92  4 13  2 34 30.0000000  0  3 12 24 13
  20963513.162    -1429564.797 7  -1113944.620 9
  20900223.377    -3907265.511 8  -3044616.092 9
  21897161.912     3878457.040 8   3022173.440 5
 92  4 13  2 35  0.0000000  0  3 12 24 13
  20963885.205    -1427625.991 8  -1112433.847 8
  20892727.667    -3946667.819 8  -3075319.123 9
  21910419.331     3948122.601 8   3076458.273 6
 92  4 13  2 35 30.0000000  0  3 12 24 13
  20964389.154    -1424981.407 8  -1110373.126 8
  20885347.075    -3985460.996 7  -3105547.503 9
  21923717.226     4018005.539 8   3130912.525 5
 92  4 13  2 36  0.0000000  0  3 12 24 13
  20965027.714    -1421630.241 8  -1107761.818 8
  20878086.402    -4023618.487 7  -3135280.551 9
  21937057.690     4088104.329 8   3185534.947 4
 92  4 13  2 36 30.0000000  0  3 12 24 13
  20965800.279    -1417572.078 8  -1104599.595 9
  20870945.044    -4061133.476 7  -3164512.948 9
  21950437.728     4158417.268 8   3240324.242 6
 92  4 13  2 37  0.0000000  0  3 12 24 13
  20966703.555    -1412807.942 8  -1100887.254 9
  20863928.403    -4098012.456 8  -3193249.732 9
  21963854.040     4228940.390 8   3295277.329 5
 92  4 13  2 37 30.0000000  0  4 20 12 24 13
  24550484.952      -72217.73915    -56273.433 2
  20967748.029    -1407338.751 8  -1096625.532 9
  20857030.480    -4134263.794 8  -3221497.454 9
  21977315.020     4299671.174 7   3350392.236 5
 92  4 13  2 38  0.0000000  0  4 20 12 24 13
  24532553.466     -166339.136 4   -129614.605 2
  20968923.515    -1401161.166 8  -1091811.819 8
  20850247.075    -4169901.456 8  -3249266.993 9
  21990813.479     4370610.802 7   3405669.856 5
 92  4 13  2 38 30.0000000  0  4 20 12 24 13
  24514663.952     -260381.953 4   -202894.936 2
  20970235.108    -1394282.252 8  -1086451.636 8
  20843572.493    -4204961.560 8  -3276586.482 9
  22004353.303     4441749.592 7   3461102.676 5
 92  4 13  2 39  0.0000000  0  4 20 12 24 13
  24496794.222     -354340.338 4   -276109.085 2
  20971674.411    -1386697.597 8  -1080541.497 9
  20837010.038    -4239445.838 8  -3303457.291 9
  22017927.304     4513089.308 7   3516692.083 4
 92  4 13  2 39 30.0000000  0  4 20 12 24 13
  24478931.089     -448213.993 4   -349257.619 2
  20973254.017    -1378407.845 8  -1074081.946 8
  20830565.402    -4273341.753 8  -3329869.633 9
  22031542.679     4584628.012 8   3572436.498 4
 92  4 13  2 40  0.0000000  0  4 20 12 24 13
  24461079.647     -542005.976 4   -422342.126 2
  20974966.132    -1369417.196 8  -1067076.224 8
  20824224.490    -4306642.656 8  -3355818.317 9
  22045189.535     4656359.329 7   3628331.022 4
 92  4 13  2 40 30.0000000  0  4 20 12 24 13
  24443244.696     -635711.281 4   -495359.452 1
  20976809.556    -1359721.676 8  -1059521.275 8
  20818007.392    -4339328.897 8  -3381288.058 9
  22058875.959     4728285.363 7   3684377.271 5
 92  4 13  2 41  0.0000000  0  4 20 12 24 13
  24425425.929     -729329.971 4   -568308.923 2
  20978786.090    -1349322.604 7  -1051418.091 8
  20811907.816    -4371383.412 8  -3406265.537 9
  22072601.358     4800402.709 8   3740572.622 5
 92  4 13  2 41 30.0000000  0  3 12 24 13
  20980900.223    -1338221.942 7  -1042768.201 8
  20805926.357    -4402803.209 8  -3430748.424 9
  22086360.331     4872707.130 8   3796913.715 5
 92  4 13  2 42  0.0000000  0  3 12 24 13
  20983147.471    -1326417.315 7  -1033569.771 9
  20800068.712    -4433595.530 8  -3454742.381 9
  22100160.975     4945199.235 8   3853401.089 4
 92  4 13  2 42 30.0000000  0  3 12 24 13
  20985525.722    -1313913.255 7  -1023826.335 9
  20794325.588    -4463759.161 8  -3478246.436 9
  22113986.805     5017872.425 8   3910029.537 4
 92  4 13  2 43  0.0000000  0  4 20 12 24 13
  24354336.744      -15540.28614    -12109.303 1
  20988040.682    -1300707.944 8  -1013536.454 9
  20788703.581    -4493300.132 8  -3501265.316 9
  22127850.706     5090726.757 8   3966799.149 6
 92  4 13  2 43 30.0000000  0  4 20 12 24 13
  24336610.616     -108719.282 4    -84716.532 2
  20990688.150    -1286801.873 8  -1002700.552 9
  20783201.187    -4522225.956 8  -3523804.844 9
  22141746.088     5163760.752 7   4023708.745 4
 92  4 13  2 44  0.0000000  0  4 20 12 24 13
  24318894.980     -201808.260 4   -157253.438 3
  20993463.926    -1272196.465 8   -991319.694 9
  20777814.820    -4550540.556 8  -3545868.100 9
  22155678.943     5236970.543 7   4080755.366 4
 92  4 13  2 44 30.0000000  0  4 20 12 24 13
  24301199.129     -294805.609 4   -229718.991 2
  20996375.512    -1256891.230 8   -979393.540 9
  20772542.067    -4578241.713 8  -3567453.359 9
  22169642.974     5310354.680 7   4137937.812 5
 92  4 13  2 45  0.0000000  0  4 20 12 24 13
  24283509.276     -387712.471 4   -302114.001 1
  20999419.903    -1240888.960 8   -966924.229 9
  20767385.340    -4605336.556 8  -3588566.157 9
  22183639.986     5383908.814 7   4195252.699 4
 92  4 13  2 45 30.0000000  0  4 20 12 24 13
  24265845.804     -480527.362 4   -374437.127 2
  21002601.301    -1224189.757 8   -953911.837 9
  20762345.529    -4631817.096 8  -3609200.278 9
  22197666.676     5457631.289 7   4252698.773 5
 92  4 13  2 46  0.0000000  0  4 20 12 24 13
  24248207.516     -573247.362 4   -446686.609 1
  21005914.006    -1206792.083 8   -940355.187 8
  20757424.136    -4657674.894 8  -3629349.144 9
  22211727.542     5531521.777 7   4310275.784 5
 92  4 13  2 46 30.0000000  0  4 20 12 24 13
  24230578.220     -665870.335 4   -518860.149 2
  21009351.429    -1188695.378 8   -926253.853 9
  20752621.461    -4682906.754 7  -3649010.271 9
  22225824.081     5605579.831 7   4367983.343 4
 92  4 13  2 47  0.0000000  0  4 20 12 24 13
  24212975.605     -758398.012 4   -590959.533 2
  21012930.953    -1169902.688 8   -911610.202 9
  20747936.304    -4707524.993 7  -3668193.261 9
  22239949.705     5679800.513 8   4425817.621 4
 92  4 13  2 47 30.0000000  0  4 20 12 24 13
  24195387.683     -850829.315 4   -662984.007 2
  21016640.581    -1150414.597 8   -896424.669 8
  20743370.764    -4731529.597 7  -3686898.095 9
  22254096.911     5754181.717 8   4483776.990 4
 92  4 13  2 48  0.0000000  0  4 20 12 24 13
  24177807.850     -943162.834 4   -734932.171 1
  21020477.927    -1130231.495 8   -880697.572 9
  20738922.442    -4754915.125 8  -3705120.524 9
  22268284.889     5828721.609 7   4541860.031 4
 92  4 13  2 48 30.0000000  0  4 20 12 24 13
  24160260.997    -1035400.722 4   -806805.764 1
  21024449.575    -1109357.122 8   -864431.812 9
  20734587.743    -4777686.812 8  -3722864.633 9
  22282498.946     5903415.255 7   4600062.865 4
 92  4 13  2 49  0.0000000  0  4 20 12 24 13
  24142728.537    -1127542.312 3   -878604.588 2
  21028554.037    -1087792.521 8   -847628.216 8
  20730370.863    -4799841.328 8  -3740127.834 9
  22296741.186     5978260.266 7   4658383.644 4
 92  4 13  2 49 30.0000000  0  4 20 12 24 13
  24125226.954    -1219585.018 4   -950326.372 2
  21032787.704    -1065537.227 8   -830286.418 8
  20726275.999    -4821360.379 7  -3756895.861 9
  22311012.209     6053255.610 8   4716821.610 5
 92  4 13  2 50  0.0000000  0  4 20 12 24 13
  24107726.868    -1311527.711 4  -1021969.891 1
  21037156.579    -1042591.959 8   -812406.989 8
  20722300.748    -4842253.969 8  -3773176.519 9
  22325313.806     6128398.975 8   4775374.870 4
 92  4 13  2 50 30.0000000  0  4 20 12 24 13
  24090242.073    -1403371.759 4  -1093536.901 2
  21041650.770    -1018959.385 8   -793991.995 8
  20718441.222    -4862547.795 8  -3788989.823 9
  22339636.390     6203686.995 8   4834040.866 3
 92  4 13  2 51  0.0000000  0  4 20 12 24 13
  24072774.963    -1495114.399 4  -1165024.582 2
  21046280.465     -994638.787 7   -775040.888 8
  20714692.318    -4882243.986 8  -3804337.446 9
  22353989.853     6279119.275 7   4892819.234 3
 92  4 13  2 51 30.0000000  0  4 20 12 24 13
  24055348.630    -1586753.600 5  -1236431.970 1
  21051040.269     -969630.023 7   -755553.521 7
  20711057.934    -4901341.985 8  -3819218.953 9
  22368370.901     6354694.226 7   4951708.786 4
 92  4 13  2 52  0.0000000  0  4 20 12 24 13
  24037930.687    -1678289.866 5  -1307758.812 3
  21055928.686     -943935.618 7   -735531.909 9
  20707535.071    -4919856.848 8  -3833646.065 9
  22382781.622     6430408.228 7   5010706.704 4
 92  4 13  2 52 30.0000000  0  4 20 12 24 13
  24020527.135    -1769721.540 5  -1379004.028 1
  21060950.505     -917556.067 8   -714976.415 7
  20704125.530    -4937772.778 8  -3847606.471 9
  22397217.227     6506260.057 7   5069812.040 4
 92  4 13  2 53  0.0000000  0  4 20 12 24 13
  24003143.970    -1861047.539 5  -1450166.956 2
  21066099.441     -890492.119 8   -693887.632 9
  20700838.009    -4955059.812 8  -3861076.827 9
  22411678.018     6582247.521 7   5129023.067 3
 92  4 13  2 53 30.0000000  0  4 20 12 24 13
  23985787.486    -1952265.920 5  -1521246.096 1
  21071378.489     -862744.009 8   -672265.731 8
  20697664.404    -4971716.489 8  -3874055.996 9
  22426163.090     6658369.742 7   5188339.110 4
 92  4 13  2 54  0.0000000  0  4 20 12 24 13
  23968453.186    -2043374.335 5  -1592239.511 2
  21076787.642     -834311.715 7   -650110.701 8
  20694613.115    -4987754.017 8  -3886552.703 9
  22440671.546     6734625.622 7   5247759.283 4
 92  4 13  2 54 30.0000000  0  4 20 12 24 13
  23951137.474    -2134374.205 5  -1663148.265 1
  21082329.007     -805198.864 7   -627425.373 8
  20691681.448    -5003167.546 8  -3898563.195 9
  22455210.282     6811010.214 7   5307279.737 4
 92  4 13  2 55  0.0000000  0  4 20 12 24 13
  23933833.450    -2225266.178 5  -1733973.355 1
  21088001.981     -775408.024 7   -604211.729 8
  20688867.596    -5017966.040 8  -3910094.432 9
  22469767.603     6887520.113 7   5366897.840 4
 92  4 13  2 55 30.0000000  0  4 20 12 24 13
  23916562.110    -2316041.680 5  -1804707.365 1
  21093799.367     -744932.734 7   -580464.750 7
  20686159.868    -5032172.155 7  -3921164.090 9
  22484349.511     6964160.956 7   5426617.941 5
 92  4 13  2 56  0.0000000  0  4 20 12 24 13
  23899318.045    -2406709.487 5  -1875357.398 1
  21099727.764     -713784.114 7   -556193.095 8
  20683569.662    -5045798.841 8  -3931782.241 9
  22498958.096     7040920.826 7   5486430.810 3
 92  4 13  2 56 30.0000000  0  4 20 12 24 13
  23882079.080    -2497263.936 5  -1945919.178 1
  21105781.471     -681958.819 7   -531394.166 8
  20681090.379    -5058827.224 8  -3941934.181 9
  22513589.165     7117802.095 7   5546338.313 2
 92  4 13  2 57  0.0000000  0  4 20 12 24 13
  23864869.793    -2587703.949 5  -2016392.156 1
  21111974.885     -649458.122 8   -506068.951 9
  20678723.218    -5071269.692 8  -3951629.560 9
  22528241.223     7194802.712 7   5606338.775 4
 92  4 13  2 57 30.0000000  0  4 20 12 24 13
  23847680.294    -2678028.110 5  -2086774.594 1
  21118281.320     -616283.053 8   -480218.245 8
  20676466.979    -5083123.762 8  -3960866.448 9
  22542918.462     7271921.169 7   5666431.086 2
 92  4 13  2 58  0.0000000  0  4 20 12 24 13
  23830520.474    -2768234.627 5  -2157065.154 1
  21124723.260     -582434.452 8   -453842.717 8
  20674322.866    -5094366.499 8  -3969626.971 9
  22557610.092     7349155.866 7   5726613.943 1
 92  4 13  2 58 30.0000000  0  4 20 12 24 13
  23813367.848    -2858321.979 6  -2227263.046 2
  21131291.112     -547912.715 8   -426942.660 8
  20672303.762    -5104989.312 8  -3977904.438 9
  22572332.300     7426506.371 7   5786887.110 2
 92  4 13  2 59  0.0000000  0  5 16 20 12 24 13
  24983964.759    -3365428.187 5  -2622411.800 3
  23796248.801    -2948289.414 6  -2297367.697 1
  21137989.975     -512719.464 8   -399519.353 8
  20670400.681    -5114994.556 8  -3985700.688 9
  22587074.894     7503969.646 7   5847248.043 2
 92  4 13  2 59 30.0000000  0  5 16 20 12 24 13
  24967859.910    -3450086.038 5  -2688379.071 1
  23779153.734    -3038136.054 6  -2367378.001 2
  21144812.051     -476857.005 7   -371574.577 8
  20668615.415    -5124375.738 8  -3993010.650 9
  22601836.674     7581543.164 7   5907694.897 3
 92  4 13  3  0  0.0000000  0  5 16 20 12 24 13
  24951738.570    -3534800.413 5  -2754390.481 2
  23762078.757    -3127862.129 6  -2437294.218 2
  21151763.938     -440328.043 7   -343110.432 8
  20666946.471    -5133136.091 7  -3999836.851 9
  22616613.445     7659224.112 7   5968225.534 2
 92  4 13  3  0 30.0000000  0  5 16 20 12 24 13
  24935613.635    -3619547.861 5  -2820427.595 1
  23745024.760    -3217461.982 6  -2507112.097 4
  21158841.738     -403129.036 8   -314124.199 7
  20665398.340    -5141278.618 7  -4006181.632 9
  22631424.391     7737015.075 7   6028841.898 6
 92  4 13  3  1  0.0000000  0  5 16 20 12 24 13
  24919476.703    -3704311.398 4  -2886477.238 2
  23728002.544    -3306937.884 6  -2576833.412 2
  21166047.251     -365265.239 8   -284619.959 7
  20663962.938    -5148821.745 7  -4012059.351 9
  22646244.032     7814910.571 7   6089539.681 4
 92  4 13  3  1 30.0000000  0  5 16 20 12 24 13
  24903336.779    -3789078.053 5  -2952529.371 2
  23710996.818    -3396287.340 6  -2646456.162 3
  21173380.775     -326736.639 8   -254597.682 7
  20662645.049    -5155771.101 7  -4017474.391 9
  22661082.860     7892909.691 7   6150318.221 4
 92  4 13  3  2  0.0000000  0  5 16 20 12 24 13
  24887224.133    -3873844.756 5  -3018581.509 2
  23694023.767    -3485509.800 6  -2715979.949 3
  21180836.311     -287545.579 7   -224059.199 8
  20661430.287    -5162128.391 7  -4022428.084 9
  22675948.966     7971009.892 7   6211175.519 3
 92  4 13  3  2 30.0000000  0  5 16 20 12 24 13
  24871089.902    -3958609.188 5  -3084631.940 2
  23677061.811    -3574600.480 6  -2785401.113 4
  21188423.761     -247689.929 8   -193002.857 8
  20660330.352    -5167903.543 8  -4026928.161 9
  22690829.766     8049213.213 7   6272113.129 3
 92  4 13  3  3  0.0000000  0  5 16 20 12 24 13
  24854954.475    -4043371.711 5  -3150680.841 2
  23660136.727    -3663558.917 5  -2854719.184 3
  21196130.825     -207171.736 7   -161430.245 8
  20659337.740    -5173107.252 8  -4030982.960 9
  22705730.948     8127517.372 7   6333129.334 2
 92  4 13  3  3 30.0000000  0  5 16 20 12 24 13
  24838827.438    -4128135.600 5  -3216730.840 1
  23643239.524    -3752384.461 5  -2923933.728 3
  21203968.599     -165993.289 8   -129343.142 7
  20658462.045    -5177726.788 8  -4034582.546 9
  22720649.824     8205919.871 7   6394222.216 3
 92  4 13  3  4  0.0000000  0  5 16 20 12 24 13
  24822697.704    -4212901.385 6  -3282782.229
  23626358.214    -3841078.081 5  -2993045.466 4
  21211927.490     -124158.448 7    -96744.567 8
  20657690.680    -5181767.206 8  -4037730.875 9
  22735588.780     8284416.751 7   6455388.623 4
 92  4 13  3  4 30.0000000  0  5 16 20 12 24 13
  24806569.170    -4297657.920 5  -3348826.467 1
  23609499.685    -3929637.053 5  -3062052.324 2
  21220015.889      -81667.586 7    -63634.804 7
  20657033.535    -5185229.439 8  -4040428.674 9
  22750537.331     8363007.106 7   6516627.862 3
 92  4 13  3  5  0.0000000  0  5 16 20 12 24 13
  24790437.936    -4382399.312 5  -3414858.945 2
  23592675.333    -4018061.861 5  -3130954.628 2
  21228224.807      -38524.090 7    -30016.503 7
  20656490.611    -5188097.297 8  -4042663.325 9
  22765516.161     8441686.977 7   6577936.894 3
 92  4 13  3  5 30.0000000  0  5 16 20 12 24 13
  24774319.296    -4467128.063 5  -3480881.085 3
  23575877.060    -4106348.692 6  -3199749.424 4
  21236558.137        5273.454 7      4111.447 8
  20656056.811    -5190363.493 7  -4044429.144 9
  22780505.785     8520458.261 7   6639317.097 3
 92  4 13  3  6  0.0000000  0  5 16 20 12 24 13
  24758194.658    -4551833.090 5  -3546885.193 2
  23559095.879    -4194497.139 5  -3268436.391 4
  21245019.180       49722.061 8     38746.702 8
  20655737.529    -5192037.141 8  -4045733.241 9
  22795512.497     8599317.435 7   6700765.792 5
 92  4 13  3  6 30.0000000  0  5 16 20 12 24 13
  24742083.212    -4636504.018 5  -3612862.751 2
  23542358.463    -4282505.576 6  -3337014.268 4
  21253597.742       94820.073 8     73888.009 8
  20655534.273    -5193109.957 8  -4046569.156 9
  22810533.295     8678262.845 7   6762281.728 3
 92  4 13  3  7  0.0000000  0  5 16 20 12 24 13
  24725981.360    -4721137.762 5  -3678811.384 2
  23525634.244    -4370370.097 5  -3405480.018 3
  21262304.912      140568.746 7    109536.302 8
  20655446.730    -5193573.175 8  -4046930.062 9
  22825574.785     8757295.816 7   6823865.929 2
 92  4 13  3  7 30.0000000  0  5 16 20 12 24 13
  24709868.413    -4805749.638 5  -3744742.926 3
  23508941.798    -4458095.188 5  -3473837.075 4
  21271132.903      186960.329 8    145685.576 7
  20655474.013    -5193431.683 8  -4046819.759 9
  22840627.365     8836408.555 7   6885512.206 2
 92  4 13  3  8  0.0000000  0  5 16 20 12 24 13
  24693775.853    -4890343.026 5  -3810660.068 4
  23492270.937    -4545677.590 5  -3542082.976 2
  21280082.605      233995.009 8    182335.960 7
  20655615.513    -5192680.041 7  -4046234.026 9
  22855700.030     8915601.208 7   6947220.760 3
 92  4 13  3  8 30.0000000  0  5 16 20 12 24 13
  24677676.998    -4974941.166 5  -3876580.451 2
  23475634.855    -4633115.471 6  -3610216.247 1
  21289155.226      281671.437 7    219486.420 8
  20655874.234    -5191321.169 8  -4045175.118 9
  22870782.589     8994873.097 7   7008991.085 3
 92  4 13  3  9  0.0000000  0  5 16 20 12 24 13
  24661576.646    -5059554.314 5  -3942513.011 2
  23459025.153    -4720406.632 6  -3678235.191 2
  21298350.160      329988.446 8    257136.027 7
  20656245.077    -5189365.232 8  -4043650.962 9
  22885883.431     9074223.553 6   7070822.582 3
 92  4 13  3  9 30.0000000  0  5 16 20 12 24 13
  24645481.390    -5144169.215 5  -4008446.863 2
  23442438.538    -4807549.641 6  -3746138.685 2
  21307668.306      378944.472 8    295283.565 7
  20656731.341    -5186824.791 8  -4041671.353 9
  22900992.672     9153650.608 6   7132713.775 2
 92  4 13  3 10  0.0000000  0  5 16 20 12 24 13
  24629378.634    -5228763.727 5  -4074364.482 2
  23425888.193    -4894542.608 6  -3813925.239 3
  21317103.076      428538.093 8    333927.930 8
  20657326.432    -5183707.497 8  -4039242.237 9
  22916128.594     9233152.674 6   7194663.479 2
 92  4 13  3 10 30.0000000  0  5 16 20 12 24 13
  24613298.668    -5313316.713 5  -4140250.130 2
  23409367.832    -4981383.944 6  -3881593.688 2
  21326661.961      478767.482 8    373067.699 8
  20658024.049    -5180017.294 8  -4036366.713 9
  22931267.513     9312728.636 6   7256670.743 2
 92  4 13  3 11  0.0000000  0  5 16 20 12 24 13
  24597212.102    -5397804.540 5  -4206084.588 2
  23392866.056    -5068072.488 6  -3949143.040 2
  21336338.962      529630.604 7    412701.290 8
  20658840.082    -5175744.206 8  -4033036.991 9
  22946422.324     9392376.917 7   7318734.365 2
 92  4 13  3 11 30.0000000  0  5 16 20 12 24 13
  24581150.124    -5482225.392 5  -4271867.285 2
  23376405.950    -5154607.901 6  -4016573.104 2
  21346141.573      581124.355 7    452826.292 7
  20659762.243    -5170886.356 8  -4029251.611 9
  22961594.220     9472094.774 7   7380852.186 3
 92  4 13  3 12  0.0000000  0  5 16 20 12 24 13
  24565089.345    -5566604.578 5  -4337617.537 2
  23359963.234    -5240990.322 6  -4083883.942 3
  21356057.210      633245.041 7    493439.806 8
  20660798.629    -5165453.201 7  -4025017.939 9
  22976775.709     9551878.770 6   7443021.504 2
 92  4 13  3 12 30.0000000  0  5 16 20 12 24 13
  24549048.049    -5650953.263 5  -4403343.553 2
  23343553.193    -5327215.539 6  -4151072.296 2
  21366095.160      685993.661 7    534542.607 8
  20661936.640    -5159454.048 7  -4020343.235 9
  22991974.285     9631729.895 6   7505243.201 3
 92  4 13  3 13  0.0000000  0  5 16 20 12 24 13
  24532998.660    -5735276.211 5  -4469049.986 2
  23327177.333    -5413282.150 6  -4218137.011 2
  21376254.825      739368.242 8    576133.179 8
  20663185.574    -5152890.960 7  -4015229.098 9
  23007179.162     9711646.950 7   7567516.264 2
 92  4 13  3 13 30.0000000  0  5 16 20 12 24 13
  24516951.667    -5819580.627 5  -4534741.514 2
  23310825.750    -5499184.798 6  -4285074.074 1
  21386525.417      793370.149 7    618212.583 6
  20664544.532    -5145777.068 8  -4009685.771 9
  23022402.322     9791631.549 7   7629841.913 4
 92  4 13  3 14  0.0000000  0  5 16 20 12 24 13
  24500916.068    -5903857.721 5  -4600411.733 3
  23294507.450    -5584923.470 5  -4351883.299 2
  21396922.518      847995.966 8    660778.148 7
  20665998.227    -5138105.210 7  -4003707.658 9
  23037632.680     9871680.925 7   7692218.023 3
 92  4 13  3 14 30.0000000  0  5 16 20 12 24 13
  24484883.166    -5988090.914 5  -4666047.738 2
  23278230.515    -5670500.979 6  -4418566.978 1
  21407435.939      903239.412 8    703824.968 7
  20667573.637    -5129847.480 7  -3997273.030 9
  23052876.527     9951789.849 6   7754640.506 2
 92  4 13  3 15  0.0000000  0  5 16 20 12 24 13
  24468863.159    -6072270.161 5  -4731641.735 3
  23261980.868    -5755914.285 5  -4485122.656 1
  21418063.885      959099.962 7    747352.653 8
  20669256.073    -5120986.576 7  -3990368.398 9
  23068132.663    10031958.352 6   7817109.479 3
 92  4 13  3 15 30.0000000  0  5 16 20 12 24 13
  24452850.643    -6156396.183 5  -4797194.252
  23245753.099    -5841162.936 5  -4551550.044 1
  21428810.545     1015574.252 8    791358.589 7
  20671059.623    -5111517.962 7  -3982990.208 9
  23083397.795    10112182.877 6   7879622.083 3
 92  4 13  3 16  0.0000000  0  5 16 20 12 24 13
  24436859.412    -6240436.912 5  -4862680.319 2
  23229549.917    -5926240.307 5  -4617843.971 3
  21439678.021     1072665.756 7    835845.455 7
  20672979.496    -5101423.558 7  -3975124.409 9
  23098680.016    10192467.612 6   7942181.581 4
 92  4 13  3 16 30.0010000  0  5 16 20 12 24 13
  24420886.171    -6324393.666 5  -4928100.940 2
  23213395.002    -6011150.685 5  -4684007.818 2
  21450655.219     1130371.028 7    880810.589 7
  20675018.383    -5090728.608 8  -3966790.643 9
  23113965.236    10272810.964 6   8004786.806 4
 92  4 13  3 17  0.0010000  0  5 16 20 12 24 13
  24404919.527    -6408256.835 5  -4993448.634 4
  23197281.458    -6095884.667 5  -4750034.125 2
  21461753.536     1188686.047 8    926250.845 7
  20677158.303    -5079465.804 8  -3958014.397 9
  23129267.541    10353208.093 6   8067433.979 3
 92  4 13  3 17 30.0010000  0  5 16 20 12 24 13
  24388989.455    -6492029.399 6  -5058725.729 3
  23181177.206    -6180447.252 4  -4815926.964 2
  21472966.374     1247606.895 8    972163.181 7
  20679408.844    -5067652.063 8  -3948808.845 9
  23144577.642    10433656.806 7   8130121.269 4
 92  4 13  3 18  0.0010000  0  5 16 20 12 24 13
  24373062.379    -6575702.730 6  -5123925.960 4
  23165130.814    -6264829.772 3  -4881679.486 2
  21484293.131     1307138.466 7   1018551.405 8
  20681758.315    -5055292.081 8  -3939177.655 9
  23159891.343    10514162.599 7   8192853.072 3
 92  4 13  3 18 30.0010000  0  4 16 12 24 13
  24357152.693    -6659298.363 5  -5189065.222 4
  21495741.006     1367275.836 7   1065411.695 8
  20684212.117    -5042405.453 8  -3929136.085 9
  23175226.625    10594721.501 7   8255626.303 2
 92  4 13  3 19  0.0010000  0  4 16 12 24 13
  24341262.193    -6742818.818 6  -5254145.887 1
  21507298.905     1428016.705 7   1112742.228 7
  20686766.349    -5028982.645 8  -3918676.712 9
  23190563.708    10675331.623 7   8318439.337 2
 92  4 13  3 19 30.0010000  0  4 16 12 24 13
  24325383.987    -6826259.676 5  -5319164.565 2
  21518969.829     1489356.241 7   1160539.262 7
  20689424.610    -5015016.960 8  -3907794.315 9
  23205911.284    10755989.255 6   8381289.450 2
 92  4 13  3 20  0.0010000  0  4 16 12 24 13
  24309518.371    -6909617.385 5  -5384118.874 2
  21530758.568     1551297.132 8   1208804.877 6
  20692185.100    -5000502.734 8  -3896484.499 9
  23221270.547    10836698.010 6   8444179.440 1
 92  4 13  3 20 30.0010000  0  4 16 12 24 13
  24293673.141    -6992897.707 5  -5449012.461 3
  21542658.826     1613834.711 8   1257535.433 7
  20695052.912    -4985437.588 8  -3884745.383 9
  23236637.309    10917454.250 6   8507106.350 3
 92  4 13  3 21  0.0010000  0  4 16 12 24 13
  24277841.401    -7076090.230 5  -5513837.609 2
  21554674.510     1676968.102 8   1306730.261 6
  20698022.359    -4969805.979 8  -3872564.870 9
  23252014.864    10998257.948 6   8570070.247 2
 92  4 13  3 21 30.0010000  0  4 16 12 24 13
  24262023.751    -7159207.532 6  -5578604.145 3
  21566802.315     1740692.959 8   1356385.981 6
  20701108.722    -4953611.342 8  -3859945.639 9
  23267402.313    11079105.959 7   8633068.770 4
 92  4 13  3 22  0.0010000  0  4 16 12 24 13
  24246222.291    -7242264.569 6  -5643323.720 2
  21579038.041     1805009.245 8   1406502.535 6
  20704300.310    -4936850.350 8  -3846885.090 9
  23282791.560    11159999.066 7   8696102.315 2
 92  4 13  3 22 30.0010000  0  5 16 20 12 24 13
  24230435.816    -7325252.476 6  -5707989.466 3
  23022179.276      -13769.10915    -10723.348 2
  21591388.594     1869913.837 7   1457077.530 7
  20707593.830    -4919525.297 7  -3833385.016 9
  23298194.893    11240935.655 7   8759169.803 2
 92  4 13  3 23  0.0010000  0  5 16 20 12 24 13
  24214646.650    -7408164.828 5  -5772596.303 3
  23006479.145      -96283.432 5    -75020.438 1
  21603851.863     1935403.874 7   1508108.723 6
  20710997.076    -4901640.429 7  -3819448.729 9
  23313602.729    11321913.675 6   8822269.609 2
 92  4 13  3 23 30.0010000  0  5 16 20 12 24 13
  24198882.961    -7490992.247 5  -5837137.002 3
  22990814.089     -178600.127 5   -139163.272 2
  21616424.561     2001478.351 7   1559595.332 5
  20714504.046    -4883208.822 8  -3805086.407 9
  23329015.956    11402933.583 6   8885402.014 1
 92  4 13  3 24  0.0010000  0  5 16 20 12 24 13
  24183139.060    -7573715.476 5  -5901596.476 3
  22975183.510     -260718.725 5   -203151.995 2
  21629109.081     2068133.596 7   1611534.463 6
  20718115.949    -4864235.699 8  -3790302.142 9
  23344443.279    11483992.657 5   8948564.891 2
 92  4 13  3 24 30.0010000  0  5 16 20 12 24 13
  24167417.644    -7656310.132 5  -5965955.784 3
  22959602.398     -342634.020 5   -266982.055 2
  21641902.124     2135370.307 8   1663926.675 6
  20721830.677    -4844722.973 8  -3775097.382 9
  23359878.992    11565092.743 5   9011759.916 3
 92  4 13  3 25  0.0010000  0  5 16 20 12 24 13
  24151734.903    -7738782.354 5  -6030219.710 3
  22944050.664     -424348.548 5   -330655.836 2
  21654806.088     2203182.304 8   1716767.166 7
  20725647.332    -4824660.215 8  -3759464.024 9
  23375323.399    11646229.159 6   9074983.068 2
 92  4 13  3 25 30.0010000  0  5 16 20 12 24 13
  24136062.352    -7821129.441 6  -6094386.051 2
  22928540.003     -505859.607 5   -394170.913 1
  21667818.882     2271567.775 7   1770054.519 6
  20729573.417    -4804043.196 8  -3743398.788 9
  23390765.410    11727401.455 6   9138234.212 3
 92  4 13  3 26  0.0010000  0  5 16 20 12 24 13
  24120411.387    -7903357.709 6  -6158459.888 3
  22913078.207     -587163.841 5   -457524.801 2
  21680941.698     2340525.614 7   1823787.900 7
  20733605.024    -4782856.606 8  -3726889.724 9
  23406216.413    11808609.562 6   9201513.277 1
 92  4 13  3 26 30.0010000  0  5 16 20 12 24 13
  24104793.699    -7985473.019 6  -6222445.671 2
  22897643.991     -668260.612 4   -520717.325 2
  21694173.038     2410052.197 7   1877964.445 6
  20737744.259    -4761097.175 8  -3709934.282 9
  23421675.513    11889850.899 6   9264818.182 1
 92  4 13  3 27  0.0010000  0  5 16 20 12 24 13
  24089181.705    -8067486.232 6  -6286351.911 3
  22882246.050     -749148.108 4   -583746.366 2
  21707513.202     2480144.971 8   1932582.169 6
  20741992.916    -4738760.775 8  -3692529.267 9
  23437143.901    11971124.938 6   9328148.536 1
 92  4 13  3 27 30.0010000  0  5 16 20 12 24 13
  24073593.997    -8149403.800 6  -6350183.649 2
  22866900.874     -829824.660 3   -646611.137 1
  21720957.696     2550801.613 8   1987639.263 5
  20746348.604    -4715864.811 8  -3674688.227 9
  23452609.898    12052430.417 6   9391503.444 1
 92  4 13  3 28  0.0010000  0  4 16 12 24 13
  24058023.974    -8231216.413 5  -6413933.557 3
  21734511.009     2622022.413 8   2043135.972 6
  20750812.212    -4692426.497 8  -3656424.560 9
  23468095.374    12133769.155 6   9454884.407 2
 92  4 13  3 28 30.0010000  0  4 16 12 24 13
  24042483.334    -8312920.881 5  -6477599.240 4
  21748167.458     2693801.321 7   2099067.569 6
  20755369.057    -4668457.340 8  -3637747.273 9
  23483574.559    12215136.732 6   9518287.712 2
 92  4 13  3 29  0.0010000  0  4 16 12 24 13
  24026962.482    -8394499.938 6  -6541167.152 2
  21761935.724     2766142.341 7   2155437.185 6
  20760034.727    -4643956.936 8  -3618656.029 9
  23499075.928    12296538.608 6   9581717.752 2
 92  4 13  3 29 30.0010000  0  4 16 12 24 13
  24011454.517    -8475943.299 5  -6604629.377 3
  21775806.522     2839037.783 7   2212238.811 6
  20764792.733    -4618947.671 8  -3599168.256 9
  23514568.301    12377968.729 6   9645169.830 1
 92  4 13  3 30  0.0010000  0  4 16 12 24 13
  23995987.621    -8557224.302 6  -6667965.044 3
  21789785.547     2912485.738 7   2269470.957 6
  20769650.569    -4593427.105 8  -3579282.066 9
  23530066.376    12459426.447 6   9708643.352 2
 92  4 13  3 30 30.0010000  0  4 16 12 24 13
  23980556.106    -8638337.967 6  -6731170.360 3
  21803863.501     2986484.811 7   2327132.553 6
  20774608.237    -4567376.921 8  -3558983.197 9
  23545570.742    12540912.706 6   9772139.085 2
 92  4 13  3 31  0.0010000  0  4 16 12 24 13
  23965156.066    -8719276.127 6  -6794238.922 3
  21818051.178     3061029.877 7   2385219.605 6
  20779662.439    -4540806.894 8  -3538279.240 9
  23561082.903    12622423.428 6   9835654.010 1
 92  4 13  3 31 30.0010000  0  4 16 12 24 13
  23949778.215    -8800040.517 6  -6857172.041 3
  21832342.584     3136122.346 7   2443733.192 6
  20784818.869    -4513710.165 8  -3517164.883 9
  23576601.958    12703961.501 6   9899190.108 4
 92  4 13  3 32  0.0010000  0  4 16 12 24 13
  23934446.829    -8880642.944 6  -6919978.994 2
  21846733.521     3211756.843 7   2502669.126 6
  20790078.727    -4486072.141 8  -3495628.730 9
  23592120.415    12785523.086 6   9962744.608 2
 92  4 13  3 32 30.0010000  0  4 16 12 24 13
  23919132.531    -8961098.844 6  -6982671.773 1
  21861229.984     3287930.660 7   2562025.306 5
  20795435.722    -4457901.971 8  -3473677.905 9
  23607641.271    12867107.368 5  10026316.847 1
 92  4 13  3 33  0.0010000  0  4 16 12 24 13
  23903847.610    -9041408.133 6  -7045250.281 3
  21875829.578     3364643.360 7   2621801.407 6
  20800897.640    -4429215.618 8  -3451324.880 9
  23623172.017    12948715.469 5  10089907.579 3
 92  4 13  3 33 30.0010000  0  5 16 12  3 24 13
  23888592.372    -9121585.770 6  -7107726.207 4
  21890527.805     3441889.524 7   2681993.185 6
  25319224.165     -255760.864 4   -199293.993 3
  20806448.894    -4400022.021 8  -3428576.598 9
  23638707.863    13030344.641 5  10153514.660 2
 92  4 13  3 34  0.0010000  0  5 16 12  3 24 13
  23873362.616    -9201613.400 6  -7170085.236 2
  21905325.559     3519670.714 7   2742601.889 6
  25307019.915     -319862.354 4   -249243.412 1
  20812103.280    -4370327.360 8  -3405437.868 9
  23654242.208    13111998.085 6  10217140.804 2
 92  4 13  3 34 30.0010000  0  5 16 12  3 24 13
  23858168.533    -9281487.081 6  -7232324.316 3
  21920228.843     3597979.823 7   2803621.949 6
  25294862.431     -383816.042 3   -299077.569 2
  20817846.705    -4340140.968 8  -3381915.987 9
  23669790.344    13193670.133 6  10280781.358 2
 92  4 13  3 35  0.0010000  0  4 16 12 24 13
  23842992.440    -9361204.692 6  -7294441.777 3
  21935232.854     3676814.747 7   2865051.741 6
  20823689.661    -4309440.588 8  -3357993.577 9
  23685331.285    13275360.255 6  10344435.986 1
 92  4 13  3 35 30.0010000  0  4 16 12 24 13
  23827854.420    -9440763.540 6  -7356435.524 3
  21950330.102     3756174.605 7   2926890.549 6
  20829636.041    -4278194.753 8  -3333646.149 9
  23700885.419    13357069.900 6  10408105.873 1
 92  4 13  3 36  0.0010000  0  4 16 12 24 13
  23812752.976    -9520156.751 6  -7418300.228 2
  21965532.278     3836054.503 7   2989134.593 6
  20835689.151    -4246392.067 8  -3308864.806 9
  23716434.453    13438795.734 6  10471788.374 1
 92  4 13  3 36 30.0010000  0  4 16 12 24 13
  23797666.817    -9599401.833 6  -7480049.494 4
  21980832.786     3916453.196 7   3051782.897 5
  20841843.891    -4214031.865 8  -3283649.033 9
  23731991.584    13520538.822 6  10535484.235 3
 92  4 13  3 37  0.0010000  0  4 16 12 24 13
  23782622.335    -9678493.291 6  -7541679.065 4
  21996230.426     3997366.586 7   3114832.271 6
  20848105.356    -4181127.152 8  -3258008.971 9
  23747544.518    13602297.098 6  10599192.051 1
 92  4 13  3 37 30.0010000  0  4 16 12 24 13
  23767599.433    -9757412.550 6  -7603174.414 4
  22011729.099     4078794.039 7   3178282.197 6
  20854466.955    -4147705.962 8  -3231966.464 9
  23763102.246    13684071.727 5  10662912.589 2
 92  4 13  3 38  0.0010000  0  5 16 12  3 24 13
  23752614.007    -9836150.914 6  -7664528.873 3
  22027316.205     4160730.069 7   3242128.449 6
  25210444.172      -60824.30714    -47395.734 3
  20860916.686    -4113803.337 8  -3205548.806 9
  23778665.075    13765859.219 5  10726643.093 3
 92  4 13  3 38 30.0010000  0  6 16 20 12  3 24 13
  23737672.650    -9914703.905 6  -7725738.834 3
  22540153.478       -1255.36914      -972.897 2
  22043005.844     4243172.377 7   3306369.170 5
  25198494.145     -123604.958 5    -96315.931 2
  20867459.057    -4079428.662 8  -3178763.316 9
  23794237.492    13847658.875 5  10790383.026 2
 92  4 13  3 39  0.0010000  0  5 16 12  3 24 13
  23722754.677    -9993048.067 6  -7786786.111 3
  22058788.118     4326119.134 7   3371002.947 6
  25186583.691     -186240.914 5   -145123.333 1
  20874090.170    -4044570.743 8  -3151601.271 9
  23809810.812    13929471.749 5  10854133.366 3
 92  4 13  3 39 30.0010000  0  5 16 12  3 24 13
  23707893.666   -10071182.572 6  -7847670.012 3
  22074669.024     4409564.841 7   3436025.536 6
  25174695.420     -248735.313 4   -193820.488 2
  20880819.611    -4009219.628 8  -3124054.940 9
  23825373.937    14011294.188 5  10917891.043 1
 92  4 13  3 40  0.0010000  0  5 16 12  3 24 13
  23693059.934   -10149110.992 6  -7908393.304 2
  22090644.965     4493510.493 7   3501437.703 6
  25162823.640     -311084.968 4   -242404.837 3
  20887641.088    -3973365.095 8  -3096116.308 9
  23840949.954    14093129.027 5  10981658.472 1
 92  4 13  3 40 30.0010000  0  6 16 20 12  3 24 13
  23678269.675   -10226840.514 6  -7968961.638 2
  22483193.210      -12388.159 5     -9648.171 1
  22106710.242     4577951.604 7   3567235.938 6
  25150984.836     -373291.791 4   -290877.461 2
  20894559.096    -3937009.414 8  -3067787.194 9
  23856519.675    14174974.109 4  11045433.940 2
 92  4 13  3 41  0.0010000  0  6 16 20 12  3 24 13
  23663518.988   -10304360.717 6  -8029366.861 2
  22469066.090      -86561.773 4    -67445.696 1
  22122876.852     4662889.285 7   3633421.115 6
  25139175.109     -435352.571 5   -339236.317 2
  20901573.643    -3900155.062 8  -3039069.498 9
  23872098.688    14256832.881 5  11109219.943 2
 92  4 13  3 41 30.0010000  0  6 16 20 12  3 24 13
  23648807.273   -10381679.067 6  -8089614.758 3
  22455011.217     -160466.883 4   -125034.024 1
  22139130.700     4748315.822 7   3699987.217 4
  25127391.767     -497272.622 5   -387485.446 2
  20908677.823    -3862824.039 8  -3009980.360 9
  23887676.807    14338699.627 5  11173012.169 1
 92  4 13  3 42  0.0010000  0  6 16 20 12  3 24 13
  23634124.638   -10458807.387 6  -8149714.641 5
  22440989.025     -234097.432 5   -182408.376 4
  22155480.180     4834232.029 7   3766934.869 6
  25115642.003     -559048.679 5   -435622.852 2
  20915869.547    -3825028.320 8  -2980529.124 9
  23903260.916    14420577.504 6  11236813.160 2
 92  4 13  3 42 30.0010000  0  6 16 20 12  3 24 13
  23619491.168   -10535744.632 6  -8209665.624 4
  22427037.886     -307454.036 5   -239569.296 3
  22171927.394     4920632.231 7   3834259.668 5
  25103909.026     -620683.818 5   -483650.064 1
  20923151.505    -3786757.911 8  -2950707.998 9
  23918847.726    14502462.855 5  11300619.964 2
 92  4 13  3 43  0.0010000  0  6 16 20 12  3 24 13
  23604880.180   -10612485.722 6  -8269463.769 5
  22413122.118     -380534.867 5   -296515.287 3
  22188450.757     5007513.307 7   3901959.171 5
  25092204.829     -682179.240 4   -531568.395 2
  20930528.798    -3747996.468 8  -2920504.256 9
  23934432.436    14584355.223 5  11364432.062 1
 92  4 13  3 43 30.0010000  0  6 16 20 12  3 24 13
  23590311.167   -10689037.646 6  -8329114.514 5
  22399277.102     -453336.900 5   -353244.067 3
  22205078.445     5094873.400 7   3970031.948 5
  25080540.803     -743533.874 5   -579377.417 1
  20937999.926    -3708737.323 8  -2889912.688 9
  23950011.450    14666255.060 5  11428250.060 1
 92  4 13  3 44  0.0010000  0  6 16 20 12  3 24 13
  23575781.126   -10765399.329 6  -8388616.994 4
  22385477.357     -525857.800 5   -409753.767 4
  22221794.572     5182709.041 7   4038475.270 6
  25068877.378     -804748.812 4   -627077.209 2
  20945566.087    -3668977.910 8  -2858931.311 9
  23965598.560    14748161.072 4  11492072.692 1
 92  4 13  3 44 30.0010000  0  6 16 20 12  3 24 13
  23561294.557   -10841550.373 6  -8447955.332 2
  22371722.877     -598096.583 5   -466043.643 3
  22238600.937     5271016.453 7   4107286.213 5
  25057261.318     -865826.012 5   -674670.019 2
  20953225.485    -3628713.932 8  -2827556.760 9
  23981189.566    14830071.675 4  11555899.058 2
 92  4 13  3 45  0.0010000  0  6 16 20 12  3 24 13
  23546837.662   -10917476.549 6  -8507118.475 3
  22358034.656     -670049.905 5   -522111.084 4
  22255491.544     5359793.872 7   4176463.374 5
  25045661.748     -926764.350 5   -722154.261 2
  20960980.816    -3587964.354 8  -2795803.815 9
  23996780.873    14911987.938 5  11619729.706 1
 92  4 13  3 45 30.0010000  0  6 16 20 12  3 24 13
  23532446.128   -10993170.554 6  -8566100.709 3
  22344402.192     -741713.779 5   -577952.986 5
  22272472.988     5449039.892 7   4246005.690 4
  25034088.262     -987562.685 5   -769529.406 2
  20968825.482    -3546743.663 8  -2763683.771 9
  24012364.088    14993910.520 5  11683565.326 3
 92  4 13  3 46  0.0010000  0  6 16 20 12  3 24 13
  23518085.467   -11068616.387 6  -8624889.522 3
  22330811.400     -813088.328 6   -633569.401 3
  22289544.069     5538749.559 7   4315909.299 3
  25022545.052    -1048223.383 5   -816797.252 2
  20976759.193    -3505049.755 8  -2731194.997 9
  24027952.093    15075836.813 4  11747403.838 1
 92  4 13  3 46 30.0010000  0  6 16 20 12  3 24 13
  23503777.274   -11143801.541 6  -8683475.239 3
  22317298.558     -884169.180 6   -688956.985 5
  22306705.987     5628922.053 7   4386173.554 5
  25011039.316    -1108745.269 5   -863956.942 2
  20984784.335    -3462879.910 8  -2698335.353 9
  24043543.103    15157768.216 4  11811246.413 2
 92  4 13  3 47  0.0010000  0  6 16 20 12  3 24 13
  23489524.241   -11218733.235 6  -8741863.436 4
  22303821.986     -954954.017 6   -744113.911 5
  22323954.249     5719554.372 7   4456796.107 3
  24999539.278    -1169128.546 5   -911008.638 3
  20992899.118    -3420231.441 8  -2665102.773 9
  24059120.917    15239704.566 3  11875092.928 2
 92  4 13  3 47 30.0010000  0  6 16 20 12  3 24 13
  23475303.583   -11293425.676 6  -8800065.227 3
  22290408.073    -1025444.348 6   -799041.347 5
  22341285.849     5810640.113 7   4527771.973 4
  24988083.612    -1229377.053 5   -957955.336 3
  21001108.935    -3377096.998 8  -2631491.502 9
  24074720.317    15321641.965 4  11938940.394 2
 92  4 13  3 48  0.0010000  0  6 16 20 12  3 24 13
  23461136.895   -11367878.248 6  -8858080.120 3
  22277047.820    -1095634.656 6   -853735.018 5
  22358702.894     5902178.836 7   4599100.795 5
  24976642.032    -1289488.926 5  -1004795.577 2
  21009407.491    -3333483.297 8  -2597506.776 9
  24090317.020    15403582.390 4  12002790.037 1
 92  4 13  3 48 30.0010000  0  6 16 20 12  3 24 13
  23447003.479   -11442108.951 6  -8915922.084 4
  22263749.925    -1165524.502 7   -908194.551 5
  22376207.474     5994165.788 7   4670778.901 5
  24965219.036    -1349466.366 5  -1051530.980 1
  21017798.083    -3289398.870 8  -2563155.267 9
  24105916.420    15485523.885 4  12066640.566 1
 92  4 13  3 49  0.0010000  0  6 16 20 12  3 24 13
  23432924.024   -11516128.060 6  -8973599.202 2
  22250509.594    -1235110.823 6   -962417.596 6
  22393797.795     6086599.316 7   4742805.004 5
  24953835.618    -1409308.537 5  -1098161.081 1
  21026275.914    -3244844.765 8  -2528437.765 9
  24121502.029    15567466.927 3  12130492.336 1
 92  4 13  3 49 30.0010000  0  6 16 20 12  3 24 13
  23418874.849   -11589931.137 6  -9031107.998 4
  22237323.821    -1304391.813 6  -1016402.689 5
  22411470.861     6179475.206 7   4815175.792 5
  24942479.780    -1469016.972 5  -1144686.874 2
  21034841.580    -3199833.288 8  -2493363.879 9
  24137103.532    15649410.326 4  12194344.562 1
 92  4 13  3 50  0.0010000  0  6 16 20 12  3 24 13
  23404883.535   -11663501.677 6  -9088435.573 3
  22224200.407    -1373360.812 6  -1070144.697 5
  22429231.465     6272794.692 7   4887892.242 5
  24931137.134    -1528588.146 5  -1191105.763 2
  21043494.493    -3154356.694 8  -2457927.562 9
  24152685.542    15731357.576 4  12258199.581 2
 92  4 13  3 50 30.0010000  0  6 16 20 12  3 24 13
  23390927.296   -11736833.066 6  -9145576.816 5
  22211133.051    -1442020.358 6  -1123645.554 5
  22447073.314     6366550.446 7   4960948.629 5
  24919829.262    -1588026.728 5  -1237421.542 2
  21052240.935    -3108400.839 8  -2422117.787 9
  24168296.935    15813303.669 4  12322053.470 1
 92  4 13  3 51  0.0010000  0  6 16 20 12  3 24 13
  23377014.229   -11809903.158 6  -9202514.472 4
  22198128.355    -1510367.507 6  -1176902.998 5
  22464996.406     6460739.806 7   5034342.915 5
  24908539.974    -1647332.766 5  -1283633.796 1
  21061072.224    -3061974.525 8  -2385941.427 9
  24183889.743    15895249.305 4  12385907.081 1
 92  4 13  3 51 30.0010000  0  6 16 20 12  3 24 13
  23363167.716   -11882687.722 6  -9259229.622 5
  22185180.621    -1578399.446 6  -1229914.821 5
  22483001.641     6555360.348 7   5108073.158 5
  24897279.471    -1706506.197 5  -1329743.194 3
  21069999.742    -3015080.821 8  -2349400.876 9
  24199488.545    15977194.451 4  12449760.664 1
 92  4 13  3 52  0.0010000  0  6 16 20 12  3 24 13
  23349373.367   -11955180.657 6  -9315717.523 3
  22172294.041    -1646114.084 6  -1282679.383 5
  22501089.320     6650408.828 7   5182136.859 5
  24886046.548    -1765547.592 5  -1375749.701 2
  21079009.106    -2967726.429 8  -2312501.329 9
  24215071.157    16059138.760 4  12513613.366 3
 92  4 13  3 52 30.0010000  0  6 16 20 12  3 24 13
  23335636.277   -12027387.788 7  -9371982.728 4
  22159468.318    -1713509.378 6  -1335195.129 5
  22519256.742     6745881.859 7   5256531.387 4
  24874832.811    -1824457.986 5  -1421653.673 3
  21088103.610    -2919935.192 8  -2275261.388 9
  24230662.163    16141081.178 4  12577464.639 1
 92  4 13  3 53  0.0010000  0  6 16 20 12  3 24 13
  23321952.248   -12099311.708 7  -9428027.228 4
  22146705.556    -1780580.986 6  -1387458.627 5
  22537508.409     6841778.140 7   5331255.721 5
  24863645.455    -1883235.874 5  -1467454.872 2
  21097279.057    -2871728.740 8  -2237697.899 9
  24246264.861    16223023.345 4  12641315.638 2
 92  4 13  3 53 30.0010000  0  6 16 20 12  3 24 13
  23308315.588   -12170958.365 6  -9483855.700 3
  22134005.148    -1847327.599 6  -1439468.899 5
  22555832.621     6938093.734 7   5406306.775 5
  24852487.179    -1941882.417 5  -1513153.678 2
  21106532.153    -2823107.386 8  -2199811.108 9
  24261843.573    16304963.766 3  12705165.409 1
 92  4 13  3 54  0.0010000  0  6 16 20 12  3 24 13
  23294728.093   -12242345.618 6  -9539482.027 5
  22121365.598    -1913748.192 6  -1491225.120 5
  22574238.382     7034824.386 7   5481681.271 4
  24841349.591    -2000400.108 5  -1558752.093 3
  21115858.094    -2774075.924 8  -2161604.766 9
  24277426.487    16386901.319 4  12769012.878 2
 92  4 13  3 54 30.0010000  0  6 16 20 12  3 24 13
  23281192.466   -12313469.895 6  -9594903.467 4
  22108789.902    -1979842.983 7  -1542727.476 6
  22592725.683     7131964.187 6   5557374.601 4
  24830242.880    -2058791.403 5  -1604252.012
  21125270.079    -2724626.646 8  -2123072.837 9
  24293031.584    16468832.815 5  12832855.798 2
 92  4 13  3 55  0.0010000  0  6 16 20 12  3 24 13
  23267713.795   -12384319.114 6  -9650110.546 3
  22096276.865    -2045606.685 7  -1593971.846 5
  22611287.332     7229513.074 7   5633386.678 4
  24819152.656    -2117054.100 5  -1649651.703 2
  21134764.506    -2674735.688 8  -2084196.743 9
  24308615.697    16550760.780 5  12896695.542 1
 92  4 13  3 55 30.0010000  0  6 16 20 12  3 24 13
  23254283.693   -12454889.077 6  -9705100.050 4
  22083824.687    -2111039.099 7  -1644958.064 5
  22629929.024     7327465.675 6   5709713.353 3
  24808095.413    -2175190.928 5  -1694953.359 2
  21144344.973    -2624381.641 8  -2044959.825 9
  24324207.602    16632683.199 5  12960531.104 2
 92  4 13  3 56  0.0010000  0  6 16 20 12  3 24 13
  23240906.657   -12525176.614 6  -9759869.479 4
  22071437.261    -2176136.736 7  -1695683.426 6
  22648647.467     7425820.105 6   5786353.144 5
  24797048.361    -2233201.312 5  -1740156.430 1
  21154017.777    -2573553.261 8  -2005353.280 9
  24339789.914    16714600.067 5  13024362.280
 92  4 13  3 56 30.0010000  0  6 16 20 12  3 24 13
  23227581.178   -12595171.795 6  -9814411.087 5
  22059111.296    -2240897.425 7  -1746146.220 6
  22667434.860     7524573.287 6   5863303.644 5
  24786037.282    -2291085.221 5  -1785260.535 2
  21163782.020    -2522243.927 8  -1965371.965 9
  24355391.412    16796511.709 5  13088189.524 1
 92  4 13  3 57  0.0010000  0  6 16 20 12  3 24 13
  23214321.360   -12664872.161 6  -9868722.974 5
  22046853.979    -2305316.660 7  -1796342.948 5
  22686299.601     7623723.580 6   5940563.610 4
  24775034.601    -2348841.808 5  -1830265.422 2
  21173635.896    -2470459.495 8  -1925020.461 9
  24370974.325    16878419.681 4  13152014.002 2
 92  4 13  3 57 30.0010000  0  6 16 20 12  3 24 13
  23201114.302   -12734282.119 6  -9922808.574 4
  22034656.024    -2369390.564 7  -1846270.579 5
  22705249.783     7723269.943 7   6018132.173 4
  24764078.386    -2406469.810 5  -1875170.137 2
  21183575.217    -2418223.354 8  -1884316.956 9
  24386552.440    16960325.585 4  13215836.826 2
 92  4 13  3 58  0.0010000  0  6 16 20 12  3 24 13
  23187959.111   -12803417.388 6  -9976680.145 4
  22022533.916    -2433122.369 7  -1895931.658 5
  22724266.520     7823203.316 7   6096002.293 5
  24753137.758    -2463975.108 5  -1919979.262 1
  21193595.481    -2365570.839 8  -1843289.004 9
  24402149.445    17042223.238 4  13279653.372 2
 92  4 13  3 58 30.0010000  0  6 16 20 12  3 24 13
  23174862.674   -12872278.172 6 -10030337.818 4
  22010473.268    -2496507.689 7  -1945322.741 5
  22743354.004     7923522.545 7   6174173.086 4
  24742206.427    -2521356.774 4  -1964692.036 3
  21203691.588    -2312521.356 8  -1801951.727 9
  24417735.054    17124114.906 4  13343464.969 2
 92  4 13  3 59  0.0010000  0  6 16 20 12  3 24 13
  23161807.015   -12940864.846 6 -10083781.890 5
  21998473.473    -2559542.966 7  -1994441.064 5
  22762514.640     8024225.709 7   6252643.036 3
  24731314.368    -2578613.441 5  -2009307.381 3
  21213862.347    -2259083.183 9  -1760311.574 9
  24433314.369    17206001.089 4  13407272.327 2
 92  4 13  3 59 30.0010000  0  6 16 20 12  3 24 13
  23148811.611   -13009177.959 6 -10137012.819 4
  21986547.728    -2622228.096 7  -2043286.559 4
  22781752.323     8125307.421 7   6331407.944 6
  24720445.993    -2635748.211 5  -2053827.840 2
  21224097.864    -2205260.215 9  -1718371.590 9
  24448892.182    17287879.458 3  13471073.860 2
 92  4 13  4  0  0.0010000  0  6 16 20 12  3 24 13
  23135856.381   -13077204.724 6 -10190020.604 4
  21974684.944    -2684560.169 7  -2091856.952 5
  22801058.956     8226765.181 6   6410465.894 5
  24709597.703    -2692760.796 5  -2098253.007 2
  21234421.217    -2151039.393 9  -1676121.578 9
  24464465.202    17369749.807 3  13534868.720 2
 92  4 13  4  0 30.0010000  0  6 16 20 12  3 24 13
  23122972.798   -13144924.445 6 -10242789.152 5
  21962893.203    -2746536.884 7  -2140150.399 4
  22820437.239     8328595.790 6   6489814.409 3
  24698765.899    -2749651.923 4  -2142583.548 3
  21244816.521    -2096403.457 8  -1633548.119 9
  24480050.811    17451612.467 3  13598657.801
 92  4 13  4  1  0.0010000  0  6 16 20 12  3 24 13
  23110150.077   -13212321.281 7 -10295306.079 5
  21951166.823    -2808156.786 7  -2188165.862 4
  22839888.674     8430794.935 6   6569450.086 4
  24687967.076    -2806422.743 5  -2186820.375 2
  21255293.365    -2041341.420 8  -1590642.621 9
  24495633.725    17533466.515 4  13662440.109 1
 92  4 13  4  1 30.0010000  0  6 16 20 12  3 24 13
  23097381.613   -13279384.750 6 -10347563.272 5
  21939508.494    -2869416.565 8  -2235900.688 6
  22859406.961     8533360.375 6   6649371.173 5
  24677191.636    -2863073.192 5  -2230963.792 2
  21265854.154    -1985853.465 8  -1547405.227 9
  24511191.157    17615311.988 5  13726215.819 2
 92  4 13  4  2  0.0010000  0  6 16 20 12  3 24 13
  23084683.007   -13346115.882 7 -10399561.466 4
  21927918.216    -2930313.710 7  -2283352.956 5
  22878985.808     8636288.697 6   6729575.029 4
  24666432.984    -2919603.717 5  -2275013.399 2
  21276492.592    -1929945.488 8  -1503840.571 9
  24526772.866    17697148.925 4  13789984.988 1
 92  4 13  4  2 30.0010000  0  6 16 20 12  3 24 13
  23072058.747   -13412501.658 7 -10451290.564 5
  21916401.090    -2990845.058 8  -2330520.169 6
  22898649.495     8739577.465 6   6810059.764 4
  24655691.419    -2976014.282 4  -2318969.509 2
  21287212.270    -1873616.574 8  -1459947.904 9
  24542337.492    17778978.160 3  13853747.956 1
 92  4 13  4  3  0.0010000  0  5 16 20 12  3 24
  23059482.751   -13478547.563 7 -10502754.824 6
  21904954.118    -3051010.298 8  -2377402.103 5
  22918369.545     8843221.924 6   6890821.655 4
  24644989.131    -3032306.632 5  -2362833.520 3
  21298008.693    -1816880.888 8  -1415738.272 9
 92  4 13  4  3 30.0010000  0  5 16 20 12  3 24
  23046986.205   -13544257.056 7 -10553956.945 5
  21893574.892    -3110805.507 7  -2423995.709 5
  22938157.045     8947220.294 7   6971859.280 4
  24634300.327    -3088480.068 4  -2406604.811 1
  21308880.668    -1759749.148 8  -1371220.025 9
 92  4 13  4  4  0.0010000  0  5 16 20 12  3 24
  23034538.519   -13609625.295 7 -10604893.162 5
  21882267.923    -3170227.891 7  -2470298.808 6
  22958017.696     9051569.512 7   7053170.310 5
  24623633.711    -3144534.663 4  -2450283.629 3
  21319827.892    -1702219.155 8  -1326391.447 9
 92  4 13  4  4 30.0010000  0  5 16 20 12  3 24
  23022170.883   -13674637.307 6 -10655551.804 5
  21871029.302    -3229273.784 7  -2516308.523 7
  22977937.704     9156267.765 6   7134753.310 4
  24612980.589    -3200469.707 5  -2493869.179 2
  21330849.161    -1644291.276 8  -1281252.842 9
 92  4 13  4  5  0.0010000  0  5 16 20 12  3 24
  23009866.503   -13739311.866 7 -10705947.495 6
  21859860.535    -3287945.026 7  -2562026.309 7
  22997925.768     9261307.559 6   7216602.488 3
  24602363.139    -3256289.867 5  -2537365.319 3
  21341945.379    -1585979.438 8  -1235815.039 9
 92  4 13  4  5 30.0010000  0  5 16 20 12  3 24
  22997626.872   -13803647.325 7 -10756078.955 5
  21848775.406    -3346237.997 8  -2607449.338 7
  23017976.186     9366687.040 6   7298716.360 4
  24591757.381    -3311994.087 5  -2580771.055 1
  21353114.448    -1527282.428 8  -1190077.112 9
 92  4 13  4  6  0.0010000  0  5 16 20 12  3 24
  22985439.413   -13867653.438 6 -10805953.782 6
  21837751.139    -3404149.656 8  -2652575.251 7
  23038096.758     9472403.725 6   7381092.957 2
  24581178.606    -3367582.430 5  -2624086.470 1
  21364359.962    -1468193.454 8  -1144033.747 9
 92  4 13  4  6 30.0010000  0  5 16 20 12  3 24
  22973314.605   -13931338.928 6 -10855578.769 4
  21826800.321    -3461678.509 7  -2697402.860 6
  23058276.688     9578453.293 6   7463728.961 4
  24570625.011    -3423056.285 6  -2667312.685 2
  21375680.424    -1408714.163 8  -1097686.238 9
 92  4 13  4  7  0.0010000  0  5 16 20 12  3 24
  22961264.449   -13994711.361 7 -10904959.819 6
  21815928.647    -3518821.032 7  -2741929.450 7
  23078518.373     9684833.440 6   7546622.542 3
  24560095.401    -3478415.414 5  -2710449.457 2
  21387072.838    -1348838.852 8  -1051030.146 9
 92  4 13  4  7 30.0010000  0  5 16 20 12  3 24
  22949265.553   -14057765.853 7 -10954093.112 5
  21805131.020    -3575573.178 7  -2786151.833 6
  23098822.120     9791542.827 6   7629772.660 4
  24549583.176    -3533658.000 5  -2753495.464 3
  21398543.795    -1288557.554 8  -1004057.697 9
 92  4 13  4  8  0.0010000  0  5 16 20 12  3 24
  22937330.515   -14120495.146 7 -11002973.016 5
  21794412.241    -3631936.774 7  -2830071.458 7
  23119194.517     9898573.841 6   7713173.407 5
  24539082.948    -3588789.263 5  -2796454.745 3
  21410090.901    -1227872.966 8   -956771.001 9
 92  4 13  4  8 30.0010000  0  5 16 20 12  3 24
  22925458.434   -14182865.464 7 -11051573.195 5
  21783754.922    -3687907.855 7  -2873685.215 7
  23139620.572    10005924.794 6   7796823.474 4
  24528613.594    -3643807.738 5  -2839326.116 1
  21421712.358    -1166796.741 8   -909179.130 9
 92  4 13  4  9  0.0010000  0  5 16 20 12  3 24
  22913659.805   -14244864.866 7 -11099884.353 5
  21773175.544    -3743484.592 7  -2916991.694 7
  23160111.089    10113592.060 6   7880719.992 4
  24518162.231    -3698714.616 5  -2882110.542 2
  21433409.060    -1105347.576 8   -861296.659 9
 92  4 13  4  9 30.0010000  0  5 16 20 12  3 24
  22901936.719   -14306482.990 7 -11147898.393 6
  21762680.708    -3798662.917 7  -2959987.731 7
  23180659.165    10221573.950 6   7964861.687 3
  24507738.444    -3753508.637 5  -2924807.027 1
  21445172.317    -1043537.053 8   -813132.601 9
 92  4 13  4 10  0.0010000  0  5 16 20 12  3 24
  22890284.685   -14367715.783 7 -11195612.182 5
  21752251.529    -3853443.138 7  -3002673.546 7
  23201265.098    10329864.131 6   8049243.584 4
  24497334.449    -3808193.250 5  -2967418.266 3
  21456996.432     -981375.090 8   -764694.709 9
 92  4 13  4 10 30.0010000  0  5 16 20 12  3 24
  22878701.003   -14428584.149 6 -11243042.023 4
  21741905.692    -3907821.452 7  -3045046.194 7
  23221931.291    10438461.172 6   8133864.604 4
  24486949.040    -3862767.169 5  -3009943.274 2
  21468895.491     -918858.799 8   -715980.746 9
 92  4 13  4 11  0.0010000  0  5 16 20 12  3 24
  22867180.880   -14489111.858 7 -11290206.415 5
  21731633.002    -3961796.173 7  -3087104.342 7
  23242654.144    10547361.036 6   8218721.591 4
  24476596.004    -3917231.585 5  -3052382.934 2
  21480861.110     -855980.465 8   -666984.616 9
 92  4 13  4 11 30.0010000  0  5 16 20 12  3 24
  22855728.507   -14549308.252 7 -11337112.632 6
  21721437.363    -4015365.586 8  -3128846.691 7
  23263433.658    10656559.951 6   8303811.619 4
  24466246.271    -3971587.625 5  -3094738.085 4
  21492896.878     -792722.951 8   -617693.046 9
 92  4 13  4 12  0.0010000  0  5 16 20 12  3 24
  22844338.493   -14609170.627 7 -11383758.567 6
  21711324.163    -4068526.629 8  -3170270.820 6
  23284271.936    10766054.922 6   8389132.348 4
  24455918.120    -4025835.196 5  -3137008.810 3
  21505012.089     -729075.328 8   -568097.487 9
 92  4 13  4 12 30.0010000  0  5 16 20 12  3 24
  22833012.634   -14668675.107 7 -11430125.638 5
  21701283.212    -4121275.692 8  -3211373.930 7
  23305166.268    10875844.302 6   8474682.470 3
  24445618.748    -4079973.374 5  -3179194.232 2
  21517194.156     -665042.595 8   -518201.844 9
 92  4 13  4 13  0.0010000  0  5 16 20 12  3 24
  22821759.324   -14727795.438 7 -11476193.384 5
  21691328.605    -4173611.073 8  -3252154.683 7
  23326106.774    10985923.623 6   8560458.508 4
  24435339.467    -4134003.504 5  -3221295.525 2
  21529452.969     -600632.094 8   -468011.842 9
 92  4 13  4 13 30.0010000  0  6 16 20 12  3 24 13
  22810583.961   -14786520.057 7 -11521952.764 5
  21681448.645    -4225533.160 8  -3292613.410 7
  23347112.029    11096287.358 6   8646456.156 5
  24425079.371    -4187928.804 5  -3263315.020 3
  21541780.134     -535840.991 8   -417525.271 9
  24884450.455       46238.43515     36028.669 2
 92  4 13  4 14  0.0010000  0  6 16 20 12  3 24 13
  22799495.237   -14844825.103 7 -11567385.211 6
  21671647.830    -4277036.579 8  -3332745.887 7
  23368173.652    11206935.463 6   8732675.407 2
  24414827.966    -4241746.303 4  -3305250.563 2
  21554179.251     -470680.002 8   -366750.481 9
  24899981.502      127833.199 5     99608.846 1
 92  4 13  4 14 30.0010000  0  6 16 20 12  3 24 13
  22788477.266   -14902709.925 7 -11612490.190 6
  21661925.263    -4328122.320 8  -3372552.903 6
  23389272.444    11317860.791 6   8819110.680 4
  24404610.741    -4295460.312 5  -3347105.484 2
  21566646.123     -405164.306 8   -315699.268 9
  24915509.251      209414.371 5    163178.407 1
 92  4 13  4 15  0.0010000  0  6 16 20 12  3 24 13
  22777534.540   -14960189.726 7 -11657279.579 6
  21652284.536    -4378784.805 8  -3412030.116 6
  23410435.095    11429063.358 6   8905761.972 4
  24394416.298    -4349067.655 5  -3388877.264 1
  21579183.441     -339292.474 8   -264370.563 9
  24931021.112      290985.292 5    226740.044 1
 92  4 13  4 15 30.0010000  0  6 16 20 12  3 24 13
  22766675.160   -15017262.787 7 -11701752.032 5
  21642723.854    -4429020.481 8  -3451174.748 6
  23431645.111    11540541.064 6   8992627.663 3
  24384213.160    -4402567.971 5  -3430565.694 1
  21591784.317     -273074.827 8   -212772.391 9
  24946547.665      372547.439 5    290294.886 1
 92  4 13  4 16  0.0010000  0  6 16 20 12  3 24 13
  22755891.322   -15073927.783 7 -11745906.512 5
  21633247.714    -4478828.681 8  -3489986.277 6
  23452911.787    11652288.871 6   9079703.827 3
  24374071.783    -4455963.313 5  -3472172.216 2
  21604450.248     -206528.921 8   -160918.450 9
  24962062.222      454099.049 5    353841.751 1
 92  4 13  4 16 30.0010000  0  6 16 20 12  3 24 13
  22745189.034   -15130196.214 7 -11789751.976 6
  21623851.317    -4528207.221 8  -3528463.017 6
  23474233.327    11764303.268 6   9166987.707 3
  24363929.502    -4509254.406 5  -3513697.574 2
  21617174.642     -139649.326 8   -108804.470 9
  24977579.780      535639.883 4    417379.976 1
 92  4 13  4 17  0.0010000  0  6 16 20 12  3 24 13
  22734552.097   -15186072.207 7 -11833291.659 5
  21614537.368    -4577152.634 9  -3566602.246 6
  23495597.737    11876582.206 6   9254477.722 3
  24353813.005    -4562440.532 5  -3555141.167 2
  21629964.089      -72432.642 8    -56427.820 9
  24993092.544      617171.463 4    480911.072 2
 92  4 13  4 17 30.0010000  0  6 16 20 12  3 24 13
  22723994.606   -15241560.303 7 -11876529.082 6
  21605302.560    -4625661.826 8  -3604401.568 7
  23517018.805    11989123.018 6   9342171.801 2
  24343692.611    -4615521.289 4  -3596502.616 1
  21642823.085       -4873.884 8     -3784.644 9
  25008614.596      698695.192 4    544436.212 1
 92  4 13  4 18  0.0010000  0  6 16 20 12  3 24 13
  22713507.265   -15296676.411 7 -11919476.648 6
  21596156.190    -4673736.405 8  -3641862.243 6
  23538483.349    12101918.862 6   9430064.615 4
  24333626.479    -4668501.214 5  -3637785.491 2
  21655743.239       63031.174 8     49128.391 9
  25024121.361      780206.590 5    607951.553 1
 92  4 13  4 18 30.0010000  0  6 16 20 12  3 24 13
  22703092.177   -15351416.503 7 -11962131.209 5
  21587091.666    -4721371.299 8  -3678980.302 6
  23559991.658    12214969.082 6   9518155.612 3
  24323562.149    -4721377.632 5  -3678987.716 1
  21668735.345      131278.610 8    102308.220 9
  25039633.522      861709.241 5    671459.891 1
 92  4 13  4 19  0.0010000  0  5 16 20 12  3 24
  22692744.538   -15405767.118 7 -12004482.296 6
  21578110.484    -4768566.588 8  -3715755.812 6
  23581553.632    12328267.402 6   9606439.966 3
  24313509.506    -4774154.082 5  -3720112.044 2
  21681780.814      199852.841 8    155742.714 9
 92  4 13  4 19 30.0010000  0  5 16 20 12  3 24
  22682479.648   -15459705.743 7 -12046512.327 6
  21569213.246    -4815319.168 8  -3752186.350 7
  23603154.576    12441811.602 5   9694915.940 4
  24303496.440    -4826829.776 5  -3761157.873 2
  21694891.341      268743.451 8    209423.713 9
 92  4 13  4 20  0.0010000  0  5 16 20 12  3 24
  22672304.391   -15513199.064 7 -12088195.376 6
  21560401.143    -4861622.782 8  -3788267.060 8
  23624809.785    12555602.519 5   9783584.108 2
  24293490.267    -4879401.188 5  -3802122.442 4
  21708057.622      337946.527 7    263348.174 9
 92  4 13  4 20 30.0010000  0  5 16 20 12  3 24
  22662211.879   -15566237.071 7 -12129523.628 5
  21551677.483    -4907478.296 8  -3823998.584 8
  23646512.058    12669633.706 6   9872439.530 2
  24283504.481    -4931871.579 6  -3843008.306 3
  21721289.263      407463.167 8    317516.986 9
 92  4 13  4 21  0.0010000  0  5 16 20 12  3 24
  22652204.803   -15618824.469 7 -12170500.791 6
  21543038.364    -4952882.096 8  -3859378.120 8
  23668255.409    12783903.475 6   9961480.840 3
  24273543.574    -4984240.392 5  -3883815.053 5
  21734577.264      477305.322 8    371939.435 9
 92  4 13  4 21 30.0010000  0  5 16 20 12  3 24
  22642281.374   -15670979.253 7 -12211140.827 6
  21534479.591    -4997834.452 8  -3894405.886 8
  23690046.124    12898405.354 6  10050703.004 4
  24263587.470    -5036510.829 5  -3924545.148 6
  21747925.524      547473.370 8    426615.844 9
 92  4 13  4 22  0.0010000  0  5 16 20 12  3 24
  22632439.190   -15722711.008 7 -12251451.243 6
  21526014.948    -5042331.652 8  -3929078.989 9
  23711871.312    13013137.789 6  10140104.843 4
  24253669.734    -5088681.756 5  -3965197.678 4
  21761344.536      617981.725 8    481557.424 9
 92  4 13  4 22 30.0010000  0  5 16 20 12  3 24
  22622666.854   -15774033.385 7 -12291442.643 5
  21517635.751    -5086371.323 8  -3963395.574 9
  23733748.969    13128097.658 6  10229683.908 3
  24243750.202    -5140753.184 5  -4005772.682 3
  21774828.001      688837.219 8    536769.484 9
 92  4 13  4 23  0.0010000  0  5 16 20 12  3 24
  22612983.855   -15824937.413 7 -12331108.067 6
  21509343.490    -5129948.618 8  -3997351.861 9
  23755672.192    13243284.116 6  10319439.523 3
  24233869.042    -5192723.414 5  -4046268.826 2
  21788375.923      760021.304 8    592237.601 9
 92  4 13  4 23 30.0010000  0  5 16 20 12  3 24
  22603377.606   -15875411.295 7 -12370438.308 5
  21501135.772    -5173064.393 7  -4030948.526 9
  23777633.488    13358690.479 5  10409366.510 2
  24223994.479    -5244596.086 5  -4086688.927 4
  21801983.799      831531.523 8    647959.853 8
 92  4 13  4 24  0.0010000  0  5 16 20 12  3 24
  22593854.102   -15925442.079 7 -12409423.299 6
  21493019.191    -5215716.062 8  -4064183.534 9
  23799628.658    13474314.136 5  10499462.768 2
  24214140.598    -5296370.809 5  -4127032.750 2
  21815655.835      903372.700 9    703939.992 9
 92  4 13  4 24 30.0010000  0  5 16 20 12  3 24
  22584418.433   -15975037.261 7 -12448068.840 4
  21484991.349    -5257903.121 8  -4097056.535 9
  23821668.200    13590149.883 5  10589724.336 3
  24204311.606    -5348049.836 5  -4167301.922 1
  21829383.930      975526.617 8    760163.817 9
 92  4 13  4 25  0.0010000  0  5 16 20 12  3 24
  22575061.910   -16024189.971 7 -12486369.597 5
  21477055.845    -5299621.569 8  -4129564.381 9
  23843763.505    13706195.924 5  10680149.771 4
  24194486.806    -5399632.289 5  -4207495.984 2
  21843174.985     1047990.444 8    816629.135 9
 92  4 13  4 25 30.0010000  0  5 16 20 12  3 24
  22565796.826   -16072902.954 7 -12524327.718 6
  21469205.778    -5340868.892 9  -4161705.117 9
  23865887.292    13822449.741 5  10770737.082 3
  24184702.779    -5451117.877 5  -4247614.387 1
  21857025.398     1120779.119 8    873347.584 8
 92  4 13  4 26  0.0010000  0  5 16 20 12  3 24
  22556609.382   -16121183.968 7 -12561949.230 5
  21461444.152    -5381642.708 8  -4193476.890 9
  23888051.245    13938907.963 5  10861483.671 3
  24174913.957    -5502507.151 5  -4287657.830 2
  21870934.866     1193880.089 8    930309.384 9
 92  4 13  4 26 30.0010000  0  5 16 20 12  3 24
  22547506.188   -16169033.460 8 -12599234.485 5
  21453777.857    -5421942.917 9  -4224879.612 9
  23910243.084    14055564.833 6  10952385.100 2
  24165158.408    -5553802.718 5  -4327628.231 2
  21884903.695     1267280.245 8    987504.327 9
 92  4 13  4 27  0.0010000  0  5 16 20 12  3 24
  22538484.234   -16216430.029 7 -12636166.814 6
  21446199.105    -5461769.288 8  -4255913.129 9
  23932484.983    14172415.550 6  11043437.510 2
  24155408.858    -5605006.483 5  -4367527.132 3
  21898930.988     1340981.144 8   1044933.593 9
 92  4 13  4 27 30.0010000  0  5 16 20 12  3 24
  22529553.714   -16263364.383 7 -12672739.005 6
  21438710.589    -5501117.442 8  -4286573.996 8
  23954754.768    14289459.111 6  11134640.215 3
  24145688.987    -5656116.888 6  -4407353.245 3
  21913009.239     1414975.686 8   1102591.678 9
 92  4 13  4 28  0.0010000  0  5 16 20 12  3 24
  22520708.338   -16309829.611 7 -12708945.630 6
  21431313.511    -5539984.517 8  -4316859.985 9
  23977065.024    14406692.515 6  11225990.862 2
  24135978.111    -5707133.667 5  -4447106.481 2
  21927141.158     1489248.799 8   1160466.829 8
 92  4 13  4 28 30.0010000  0  5 16 20 12  3 24
  22511958.594   -16355818.724 7 -12744781.250 6
  21424007.567    -5578368.772 7  -4346769.748 9
  23999403.458    14524112.174 6  11317486.661 2
  24126293.615    -5758057.924 5  -4486787.574 2
  21941330.933     1563803.802 8   1218561.635 9
 92  4 13  4 29  0.0010000  0  5 16 20 12  3 24
  22503295.193   -16401332.124 7 -12780246.187 5
  21416797.857    -5616268.690 7  -4376302.092 8
  24021785.666    14641714.130 6  11409124.452 2
  24116614.516    -5808890.407 5  -4526397.169 1
  21955576.772     1638645.773 8   1276880.048 8
 92  4 13  4 29 30.0010000  0  5 16 20 12  3 24
  22494728.022   -16446378.616 7 -12815347.307 6
  21409677.789    -5653681.898 8  -4405455.207 7
  24044194.851    14759495.076 5  11500901.691
  24106962.399    -5859631.497 5  -4565935.590 2
  21969867.876     1713775.709 8   1335422.843 8
 92  4 13  4 30  0.0010000  0  5 16 20 12  3 24
  22486239.102   -16490964.071 8 -12850089.176 6
  21402650.953    -5690606.775 8  -4434227.800 8
  24066646.607    14877451.442 5  11592815.646 2
  24097321.673    -5910282.078 5  -4605403.483 2
  21984223.438     1789201.034 8   1394195.812 8
 92  4 13  4 30 30.0010000  0  5 16 20 12  3 24
  22477843.113   -16535091.874 8 -12884474.425 6
  21395716.153    -5727039.474 8  -4462616.883 9
  24089126.545    14995581.566 6  11684864.984 3
  24087693.236    -5960840.747 4  -4644799.697 2
  21998632.065     1864933.877 8   1453208.413 8
 92  4 13  4 31  0.0010000  0  4 16 20 12 24
  22469530.169   -16578772.082 8 -12918510.903 6
  21388879.987    -5762981.364 8  -4490623.514 8
  24111634.363    15113878.827 5  11777044.615 2
  22013100.948     1940962.832 8   1512451.782 7
 92  4 13  4 31 30.0020000  0  4 16 20 12 24
  22461305.662   -16622006.428 8 -12952199.959 7
  21382136.454    -5798431.650 8  -4518247.089 8
  24134177.858    15232343.723 5  11869354.827 3
  22027626.491     2017278.108 7   1571918.225 7
 92  4 13  4 32  0.0020000  0  5 16 20 12  3 24
  22453163.299   -16664792.004 8 -12985539.318 6
  21375481.961    -5833384.037 8  -4545482.683 8
  24156747.729    15350966.751 5  11961788.311 3
  24058929.648      -15918.00015    -12392.439 2
  22042201.501     2093878.475 8   1631606.817 8
 92  4 13  4 32 30.0020000  0  5 16 20 12  3 24
  22445105.177   -16707127.441 7 -13018527.940 6
  21368923.703    -5867836.214 8  -4572328.500 8
  24179356.882    15469749.900 4  12054346.548 4
  24049375.864      -66122.155 5    -51512.570 3
  22056831.672     2170756.328 8   1691511.645 8
 92  4 13  4 33  0.0020000  0  5 16 20 12  3 24
  22437139.091   -16749000.907 7 -13051156.582 6
  21362462.873    -5901788.667 8  -4598784.919 8
  24201975.623    15588687.285 4  12147024.969 2
  24039845.161     -116239.572 5    -90565.002 2
  22071512.209     2247896.214 8   1751620.618 9
 92  4 13  4 33 30.0020000  0  5 16 20 12  3 24
  22429262.347   -16790393.303 7 -13083410.350 6
  21356100.079    -5935240.087 8  -4624850.929 9
  24224647.124    15707774.928 5  12239820.444 2
  24030318.058     -166271.221 5   -129550.562 1
  22086238.914     2325298.024 8   1811933.704 8
 92  4 13  4 34  0.0020000  0  5 16 20 12  3 24
  22421473.137   -16831295.862 7 -13115282.447 6
  21349830.521    -5968189.850 8  -4650526.051 9
  24247340.216    15827008.273 5  12332729.422 1
  24020813.735     -216218.859 5   -168470.725 3
  22101020.780     2402965.632 8   1872453.908 7
 92  4 13  4 34 30.0020000  0  5 16 20 12  3 24
  22413788.855   -16871702.979 8 -13146768.471 6
  21343655.094    -6000632.507 8  -4675806.008 9
  24270060.587    15946387.185 5  12425751.857 2
  24011333.700     -266079.475 6   -207323.078 3
  22115845.818     2480877.744 7   1933164.653 7
 92  4 13  4 35  0.0020000  0  5 16 20 12  3 24
  22406195.113   -16911607.408 8 -13177862.781 6
  21337578.300    -6032569.263 8  -4700691.762 9
  24292807.339    16065905.379 5  12518882.835 2
  24001859.658     -315856.627 6   -246110.345 1
  22130715.523     2559033.767 7   1994065.430 8
 92  4 13  4 35 30.0020000  0  5 16 20 12  3 24
  22398697.304   -16951004.739 8 -13208561.950 6
  21331593.844    -6063994.501 7  -4725178.911 9
  24315572.378    16185563.205 5  12612122.553 2
  23992398.508     -365546.861 6   -284829.940 3
  22145636.197     2637440.665 7   2055161.720 8
 92  4 13  4 36  0.0020000  0  5 16 20 12  3 24
  22391295.127   -16989902.447 8 -13238871.813 6
  21325712.815    -6094907.275 8  -4749266.757 9
  24338364.701    16305356.019 5  12705467.514 2
  23982965.840     -415152.311 6   -323483.466 3
  22160603.633     2716090.368 7   2116447.199 9
 92  4 13  4 36 30.0020000  0  5 16 20 12  3 24
  22383990.985   -17028297.125 8 -13268789.699 6
  21319931.017    -6125307.352 8  -4772955.102 9
  24361183.705    16425279.240 5  12798914.126 2
  23973534.669     -464674.354 5   -362071.944 2
  22175618.437     2794981.836 8   2177921.057 8
 92  4 13  4 37  0.0020000  0  5 16 20 12  3 24
  22376783.373   -17066165.824 8 -13298297.734 5
  21314246.652    -6155190.887 8  -4796240.942 9
  24384038.683    16545331.676 5  12892461.393 3
  23964128.378     -514111.547 6   -400594.328 2
  22190680.012     2874142.484 7   2239604.680 7
 92  4 13  4 37 30.0020000  0  5 16 20 12  3 24
  22369675.594   -17103512.311 7 -13327398.843 6
  21308657.325    -6184556.815 8  -4819123.446 9
  24406907.751    16665508.867 5  12986105.843 2
  23954733.482     -563465.002 6   -439051.493 2
  22205797.048     2953574.020 7   2301499.375 6
 92  4 13  4 38  0.0020000  0  5 16 20 12  3 24
  22362665.550   -17140346.013 7 -13356100.405 6
  21303164.228    -6213403.780 8  -4841601.556 9
  24429797.202    16785806.640 5  13079844.280 2
  23945358.671     -612736.302 6   -477444.586 2
  22220962.047     3033279.357 7   2363607.431 6
 92  4 13  4 38 30.0020000  0  5 16 20 12  3 24
  22355756.829   -17176679.076 8 -13384411.852 6
  21297774.859    -6241729.853 9  -4863673.807 9
  24452708.841    16906221.779 5  13173674.211 2
  23935999.151     -661925.561 5   -515773.784 3
  22236181.612     3113265.110 7   2425933.980 7
 92  4 13  4 39  0.0020000  0  6 16 20 12  3 17 24
  22348930.858   -17212525.260 7 -13412343.909 6
  21292486.217    -6269530.946 9  -4885336.966 8
  24475639.666    17026753.424 5  13267594.789 1
  23926652.522     -711030.681 5   -554037.426 3
  25341361.742     -794150.801 4   -618818.917 3
  22251454.540     3193525.060 7   2488474.202 7
 92  4 13  4 39 30.0020000  0  6 16 20 12  3 17 24
  22342194.821   -17247909.907 7 -13439916.316 6
  21287296.510    -6296807.903 9  -4906591.728 9
  24498612.764    17147395.749 4  13361601.706 3
  23917329.577     -760055.072 5   -592238.120 3
  25324257.981     -884048.831 4   -688869.450 2
  22266779.029     3274046.891 7   2551218.475 7
 92  4 13  4 40  0.0020000  0  6 16 20 12  3 17 24
  22335553.220   -17282833.725 8 -13467129.625 7
  21282203.035    -6323560.323 9  -4927437.764 8
  24521588.257    17268143.664 4  13455690.864 2
  23908010.829     -809000.379 4   -630377.271 3
  25307191.995     -973767.838 4   -758780.498 2
  22282148.491     3354816.642 8   2614155.921 7
 92  4 13  4 40 30.0020000  0  6 16 20 12  3 17 24
  22328997.357   -17317284.008 7 -13493973.973 7
  21277213.591    -6349784.000 9  -4947871.789 8
  24544582.339    17388996.185 4  13549861.541 1
  23898719.662     -857864.583 4   -668453.203 3
  25290140.401    -1063325.061 4   -828565.572 3
  22297561.121     3435819.733 8   2677275.212 6
 92  4 13  4 41  0.0020000  0  5 16 20 12  3 24
  22322535.628   -17351231.694 8 -13520426.690 6
  21272325.475    -6375475.212 9  -4967890.913 8
  24567592.908    17509951.906 4  13644112.711 1
  23889427.294     -906646.408 4   -706464.945 2
  22313018.419     3517044.357 8   2740567.138 6
 92  4 13  4 41 30.0020000  0  5 16 20 12  3 24
  22316180.630   -17384646.973 8 -13546464.531 7
  21267535.093    -6400632.641 9  -4987494.091 8
  24590638.254    17631007.419 4  13738441.595 2
  23880156.513     -955346.615 5   -744413.074 2
  22328520.089     3598496.737 7   2804036.521 7
 92  4 13  4 42  0.0020000  0  5 16 20 12  3 24
  22309924.260   -17417513.595 8 -13572074.835 6
  21262851.136    -6425255.022 9  -5006680.340 8
  24613682.702    17752159.112 5  13832845.376 2
  23870914.511    -1003965.935 5   -782298.175 2
  22344058.029     3680163.887 7   2867673.237 6
 92  4 13  4 42 30.0020000  0  5 16 20 12  3 24
  22303774.319   -17449822.657 8 -13597250.687 7
  21258270.005    -6449343.368 9  -5025450.468 8
  24636751.733    17873400.604 4  13927319.194 2
  23861673.107    -1052507.375 5   -820122.489 2
  22359644.542     3762056.610 8   2931485.743 6
 92  4 13  4 43  0.0020000  0  5 16 20 12  3 24
  22297733.800   -17481570.599 8 -13621989.311 6
  21253787.210    -6472891.828 9  -5043799.894 9
  24659842.345    17994732.978 4  14021863.766 3
  23852451.792    -1100967.223 6   -857883.354 2
  22375276.918     3844201.734 8   2995494.910 7
 92  4 13  4 43 30.0020000  0  5 16 20 12  3 24
  22291794.313   -17512779.475 8 -13646307.867 6
  21249406.341    -6495900.831 8  -5061728.979 9
  24682947.053    18116150.572 4  14116474.789 4
  23843251.462    -1149348.026 6   -895582.559 3
  22390960.859     3926606.497 8   3059706.400 7
 92  4 13  4 44  0.0020000  0  6 16 20 12  3 17 24
  22285954.955   -17543462.275 8 -13670216.496 5
  21245134.000    -6518368.327 8  -5079236.106 9
  24706081.435    18237650.352 5  14211149.855 3
  23834052.928    -1197650.018 6   -933220.324 2
  25171703.492       -2940.16114     -2291.684 2
  22406688.872     4009258.676 8   3124110.672 7
 92  4 13  4 44 30.0020000  0  5 16 20 12  3 24
  22280217.228   -17573621.413 8 -13693717.084 6
  21240961.788    -6540290.914 8  -5096318.611 9
  24729210.123    18359230.777 5  14305887.747 2
  23824881.076    -1245871.736 6   -970795.612 2
  22422462.451     4092159.932 8   3188709.045 7
 92  4 13  4 45  0.0020000  0  5 16 20 12  3 24
  22274574.233   -17603270.793 8 -13716820.472 6
  21236893.305    -6561671.200 8  -5112978.560 9
  24752356.201    18480884.217 5  14400682.534 1
  23815714.922    -1294017.856 6  -1008311.981 2
  22438277.103     4175286.557 7   3253483.032 7
 92  4 13  4 45 30.0020000  0  5 16 20 12  3 24
  22269029.273   -17632408.266 8 -13739524.938 6
  21232927.948    -6582502.430 8  -5129210.652 9
  24775523.263    18602612.794 5  14495535.803 2
  23806564.359    -1342083.711 6  -1045765.781 1
  22454134.024     4258611.095 7   3318411.219 8
 92  4 13  4 46  0.0020000  0  5 16 20 12  3 24
  22263585.041   -17661026.101 8 -13761824.511 5
  21229069.622    -6602784.492 8  -5145014.836 9
  24798705.314    18724411.322 5  14590443.674 2
  23797443.174    -1390071.235 6  -1083158.554 2
  22470029.022     4342118.820 8   3383482.164 8
 92  4 13  4 46 30.0020000  0  5 16 20 12  3 24
  22258234.346   -17689129.164 8 -13783722.964 6
  21225316.220    -6622518.540 8  -5160392.002 9
  24821890.062    18846273.748 5  14685401.306 1
  23788325.584    -1437983.475 6  -1120492.692 3
  22485953.698     4425815.221 7   3448700.118 7
 92  4 13  4 47  0.0020000  0  6 16 20 12  3 17 24
  22252989.474   -17716715.676 8 -13805218.935 6
  21221662.947    -6641702.165 8  -5175340.263 9
  24845090.100    18968197.964 5  14780407.067 2
  23779223.284    -1485820.086 6  -1157767.767 2
  25071416.318      -67031.674 5    -52232.986 1
  22501914.950     4509698.720 7   3514063.867 7
 92  4 13  4 47 30.0020000  0  6 16 20 12  3 17 24
  22247837.842   -17743772.914 8 -13826302.461 6
  21218118.803    -6660333.150 8  -5189857.883 9
  24868311.127    19090181.321 5  14875458.957 2
  23770130.281    -1533580.376 5  -1194983.524 2
  25054809.016     -154318.588 5   -120248.920 2
  22517915.770     4593786.757 7   3579586.994 7
 92  4 13  4 48  0.0020000  0  6 16 20 12  3 17 24
  22242792.034   -17770290.271 8 -13846965.288 6
  21214677.485    -6678408.274 8  -5203942.368 9
  24891531.551    19212222.119 5  14970555.561 2
  23761060.661    -1581263.204 5  -1232138.895 2
  25038237.687     -241436.112 5   -188132.924 2
  22533961.865     4678101.112 7   3645286.466 7
 92  4 13  4 48 30.0020000  0  6 16 20 12  3 17 24
  22237849.355   -17796263.870 8 -13867204.417 6
  21211346.788    -6695926.212 8  -5217592.695 9
  24914761.569    19334316.877 5  15065694.227 1
  23751989.842    -1628869.137 5  -1269234.216 1
  25021690.344     -328369.376 4   -255873.300 1
  22550047.829     4762643.846 7   3711163.912 6
 92  4 13  4 49  0.0020000  0  6 16 20 12  3 17 24
  22233015.204   -17821680.525 8 -13887009.556 6
  21208118.323    -6712886.546 8  -5230808.521 9
  24938007.179    19456461.188 4  15160871.492 2
  23742954.093    -1676399.641 6  -1306270.948 2
  25005170.279     -415125.172 4   -323474.982
  22566175.760     4847408.195 7   3777214.063 6
 92  4 13  4 49 30.0020000  0  6 16 20 12  3 17 24
  22228283.879   -17846532.339 8 -13906374.546 6
  21204996.885    -6729289.726 8  -5243590.201 9
  24961266.273    19578650.293 5  15256083.721 1
  23733922.248    -1723856.718 5  -1343250.290 2
  24988708.978     -501703.636 4   -390938.491 2
  22582354.961     4932398.539 7   3843440.303 6
 92  4 13  4 50  0.0020000  0  6 16 20 12  3 17 24
  22223665.578   -17870817.208 8 -13925297.791 7
  21201984.271    -6745129.126 8  -5255932.573 9
  24984514.880    19700885.770 5  15351331.985 1
  23724898.195    -1771235.776 5  -1380168.959 2
  24972256.664     -588094.940 4   -458256.559 2
  22598569.834     5017604.346 7   3909834.433 7
 92  4 13  4 50 30.0020000  0  6 16 20 12  3 17 24
  22219148.603   -17894535.646 8 -13943779.659 7
  21199075.987    -6760405.011 8  -5267835.818 9
  25007782.071    19823162.331 4  15446612.254 2
  23715902.621    -1818539.154 5  -1417028.676 3
  24955864.013     -674292.641 4   -525423.405 2
  22614822.483     5103020.051 7   3976392.138 6
 92  4 13  4 51  0.0020000  0  6 16 20 12  3 17 24
  22214740.756   -17917704.745 8 -13961833.466 6
  21196274.123    -6775121.784 8  -5279303.420 9
  25031060.059    19945471.401 4  15541917.953 1
  23706916.941    -1865772.704 5  -1453833.898 1
  24939490.552     -760302.080 5   -592443.944 2
  22631115.603     5188640.703 7   4043109.514 7
 92  4 13  4 51 30.0020000  0  6 16 20 12  3 17 24
  22210433.938   -17940328.630 8 -13979462.416 6
  21193583.186    -6789272.452 8  -5290329.892 9
  25054347.937    20067814.904 4  15637250.458 2
  23697939.358    -1912931.265 5  -1490580.763 4
  24923159.953     -846106.414 5   -659304.231 2
  22647447.999     5274469.896 7   4109989.397 6
 92  4 13  4 52  0.0020000  0  6 16 20 12  3 17 24
  22206233.243   -17962414.720 8 -13996672.318 6
  21190998.678    -6802856.119 8  -5300914.558 9
  25077627.418    20190189.254 4  15732606.906 2
  23688977.664    -1960015.706 5  -1527269.810 2
  24906875.829     -931698.925 5   -725999.487 2
  22663818.467     5360494.846 7   4177021.815 6
 92  4 13  4 52 30.0020000  0  6 16 20 12  3 17 24
  22202127.586   -17983965.959 8 -14013465.459 6
  21188520.590    -6815871.977 9  -5311056.779 9
  25100924.292    20312590.766 4  15827984.591 2
  23680029.755    -2007026.788 5  -1563901.742
  24890627.377    -1017087.222 5   -792535.559 2
  22680220.110     5446703.635 8   4244197.484 5
 92  4 13  4 53  0.0020000  0  6 16 20 12  3 17 24
  22198130.156   -18004982.039 8 -14029841.591 7
  21186152.234    -6828318.731 9  -5320755.541 9
  25124223.862    20435015.919 4  15923380.699 4
  23671102.538    -2053965.306 5  -1600477.123 3
  24874411.003    -1102294.111 5   -858930.330 1
  22696659.528     5533083.971 8   4311506.812 5
 92  4 13  4 53 30.0020000  0  6 16 20 12  3 17 24
  22194237.950   -18025446.442 8 -14045787.847 7
  21183891.196    -6840195.497 9  -5330010.167 9
  25147515.937    20557461.289 4  16018792.536 2
  23662178.614    -2100831.420 5  -1636996.116 3
  24858227.008    -1187328.661 5   -925190.760 2
  22713129.528     5619627.492 7   4378943.309 6
 92  4 13  4 54  0.0020000  0  6 16 20 12  3 17 24
  22190451.270   -18045351.340 8 -14061298.116 6
  21181740.788    -6851498.660 9  -5338817.829 8
  25170830.497    20679925.780 4  16114219.290 3
  23653272.978    -2147623.410 5  -1673457.333 3
  24842077.189    -1272202.024 4   -991325.690 2
  22729630.105     5706338.443 7   4446510.269 6
 92  4 13  4 54 30.0020000  0  6 16 20 12  3 17 24
  22186771.019   -18064687.391 8 -14076365.121 6
  21179697.699    -6862226.888 8  -5347177.480 7
  25194142.657    20802406.335 4  16209658.576 2
  23644385.932    -2194341.441 5  -1709860.928 4
  24825958.545    -1356918.479 4  -1057338.266 1
  22746165.456     5793227.876 7   4514216.310 6
 92  4 13  4 55  0.0020000  0  6 16 20 12  3 17 24
  22183197.494   -18083457.530 8 -14090991.157 7
  21177767.339    -6872384.254 8  -5355092.308 8
  25217441.027    20924894.515 4  16305103.784 1
  23635510.275    -2240991.105 5  -1746211.250 3
  24809872.285    -1441464.489 4  -1123218.145 1
  22762734.987     5880306.097 7   4582069.451 6
 92  4 13  4 55 30.0020000  0  6 16 20 12  3 17 24
  22179734.891   -18101662.002 8 -14105176.424 7
  21175941.902    -6881964.082 8  -5362557.090 7
  25240750.492    21047392.357 5  16400556.510 3
  23626647.214    -2287567.315 5  -1782504.323 2
  24793808.203    -1525817.698 4  -1188947.693 1
  22779346.486     5967581.090 7   4650075.933 6
 92  4 13  4 56  0.0020000  0  7 25 16 20 12  3 17 24
  25108576.793        -971.253 4      -756.391
  22176376.016   -18119312.063 8 -14118929.681 7
  21174226.790    -6890969.699 7  -5369574.435 8
  25264062.953    21169892.401 4  16496010.912 2
  23617795.839    -2334074.717 5  -1818743.775 1
  24777797.188    -1609982.221 4  -1254530.298 2
  22795984.667     6055045.153 7   4718229.749 6
 92  4 13  4 56 30.0020000  0  7 25 16 20 12  3 17 24
  25107535.316       -6480.838 4     -5049.381 1
  22173120.569   -18136407.448 8 -14132250.736 7
  21172622.299    -6899397.710 8  -5376141.714 8
  25287373.913    21292393.382 4  16591466.102 2
  23608957.657    -2380511.684 5  -1854928.385 3
  24761820.650    -1693953.195 4  -1319962.026 2
  22812663.620     6142684.785 7   4786520.346 6
 92  4 13  4 57  0.0020000  0  7 25 16 20 12  3 17 24
  25106578.677      -11445.808 3     -8918.131 2
  22169974.548   -18152952.488 8 -14145142.935 6
  21171134.127    -6907246.033 8  -5382257.275 8
  25310686.977    21414892.962 4  16686920.195 2
  23600139.565    -2426877.399 5  -1891057.477 2
  24745869.890    -1777734.177 5  -1385245.723 2
  22829372.853     6230496.036 7   4854944.690 6
 92  4 13  4 57 30.0020000  0  7 25 16 20 12  3 17 24
  25105730.566      -15876.127 4    -12370.262 1
  22166927.757   -18168941.556 8 -14157601.927 7
  21169747.890    -6914515.645 8  -5387921.895 9
  25333992.240    21537386.081 4  16782369.221 3
  23591328.361    -2473174.323 4  -1927132.978 3
  24729970.695    -1861337.387 5  -1450390.992 1
  22846111.464     6318473.278 7   4923498.384 6
 92  4 13  4 58  0.0020000  0  7 25 16 20 12  3 17 24
  25104987.680      -19771.060 4    -15405.280 3
  22163993.686   -18184367.075 8 -14169621.772 7
  21168475.268    -6921204.928 9  -5393134.323 9
  25357303.506    21659869.817 4  16877810.885 1
  23582533.953    -2519402.315 5  -1963154.674 1
  24714093.689    -1944747.965 5  -1515386.469 2
  22862888.453     6406620.682 7   4992184.658 6
 92  4 13  4 58 30.0020000  0  7 25 16 20 12  3 17 24
  25104361.710      -23120.644 4    -18015.281 1
  22161171.140   -18199229.352 8 -14181202.732 6
  21167312.076    -6927311.976 9  -5397893.058 8
  25380607.870    21782341.566 4  16973243.361 2
  23573748.532    -2565561.095 5  -1999122.475 2
  24698263.449    -2027952.158 4  -1580220.788 2
  22879694.818     6494946.419 7   5061009.904 6
 92  4 13  4 59  0.0020000  0  7 25 16 20 12  3 17 24
  25103827.781      -25921.609 4    -20197.737 2
  22158445.128   -18213524.208 8 -14192341.531 6
  21166264.002    -6932836.860 9  -5402198.169 9
  25403903.841    21904797.352 3  17068663.292 3
  23564975.409    -2611651.519 4  -2035037.042 1
  24682475.478    -2110942.258 5  -1644888.278 3
  22896539.557     6583451.298 7   5129974.730 6
 92  4 13  4 59 30.0020000  0  7 25 16 20 12  3 17 24
  25103390.985      -28170.414 3    -21950.033 3
  22155835.435   -18227244.446 7 -14203032.599 7
  21165322.650    -6937776.201 8  -5406047.011 9
  25427197.116    22027236.447 4  17164070.211 1
  23556213.074    -2657671.903 5  -2070896.870 3
  24666714.489    -2193710.170 4  -1709382.630 3
  22913414.873     6672116.349 8   5199064.374 6
 92  4 13  5  0  0.0020000  0  7 25 16 20 12  3 17 24
  25103072.004      -29859.215 4    -23266.014 3
  22153332.467   -18240401.727 8 -14213284.996 7
  21164492.225    -6942130.285 8  -5409439.791 9
  25450502.685    22149653.733 4  17259460.155 2
  23547479.219    -2703623.858 5  -2106703.509 2
  24651009.263    -2276256.844 4  -1773704.560 3
  22930311.775     6760930.460 7   5268270.147 6
 92  4 13  5  0 30.0020000  0  7 25 16 20 12  3 17 24
  25102860.651      -31000.782 4    -24155.326 2
  22150936.225   -18252988.863 8 -14223093.118 7
  21163777.220    -6945898.588 8  -5412376.120 9
  25473799.855    22272046.072 4  17354830.673 1
  23538744.167    -2749508.170 5  -2142457.448 2
  24635341.506    -2358598.839 5  -1837867.057 1
  22947241.357     6849892.874 7   5337591.502 6
 92  4 13  5  1  0.0020000  0  7 25 16 20 12  3 17 24
  25102747.931      -31604.254 4    -24625.592 2
  22148649.409   -18264991.514 8 -14232445.808 7
  21163173.438    -6949078.372 8  -5414853.854 9
  25497080.239    22394411.950 4  17450180.510 1
  23530031.898    -2795322.958 5  -2178157.136 1
  24619704.632    -2440733.356 5  -1901867.805 1
  22964202.715     6939008.612 7   5407032.338 6
 92  4 13  5  1 30.0020000  0  7 25 16 20 12  3 17 24
  25102726.044      -31671.215 4    -24677.808 1
  22146484.007   -18276402.895 8 -14241337.747 7
  21162677.285    -6951670.129 8  -5416873.394 9
  25520363.022    22516746.605 4  17545506.012 2
  23521313.935    -2841070.285 5  -2213804.351 1
  24604120.523    -2522661.625 5  -1965707.786 1
  22981186.855     7028294.230 7   5476605.543 5
 92  4 13  5  2  0.0020000  0  7 25 16 20 12  3 17 24
  25102827.072      -31207.126 4    -24316.025 2
  22144422.936   -18287214.997 8 -14249762.735 6
  21162295.347    -6953671.159 7  -5418432.630 9
  25543625.418    22639048.799 4  17640806.202 2
  23512633.441    -2886748.544 5  -2249397.674 1
  24588581.680    -2604379.107 4  -2029383.662 1
  22998216.566     7117780.726 7   5546335.261 6
 92  4 13  5  2 30.0020000  0  7 25 16 20 12  3 17 24
  25102991.959      -30216.230 4    -23543.869 2
  22142479.383   -18297421.043 8 -14257715.456 7
  21162029.131    -6955079.530 8  -5419530.047 9
  25566900.104    22761316.387 4  17736079.464 1
  23503948.455    -2932357.030 5  -2284936.667 2
  24573071.617    -2685879.107 4  -2092889.964 1
  23015286.448     7207476.895 7   5616228.368 6
 92  4 13  5  3  0.0020000  0  7 25 16 20 12  3 17 24
  25103289.656      -28678.970 4    -22345.743 2
  22140654.544   -18307027.382 8 -14265200.876 6
  21161875.037    -6955895.268 8  -5420165.673 9
  25590158.601    22883545.183 4  17831322.516 1
  23495288.950    -2977896.799 5  -2320422.174 2
  24557592.432    -2767166.643 5  -2156230.794 2
  23032392.905     7297365.953 7   5686271.788 5
 92  4 13  5  3 30.0020000  0  7 25 16 20 12  3 17 24
  25103688.380      -26584.791 3    -20713.671 2
  22138943.327   -18316038.543 8 -14272222.524 6
  21161831.268    -6956117.955 8  -5420339.217 9
  25613414.105    23005731.723 4  17926532.582 2
  23486626.745    -3023368.459 5  -2355854.551 2
  24542166.610    -2848246.277 5  -2219409.597 1
  23049529.643     7387421.521 7   5756444.926 5
 92  4 13  5  4  0.0020000  0  6 16 20 12  3 17 24
  22137332.546   -18324471.953 8 -14278794.002 7
  21161901.422    -6955747.470 8  -5420050.495 9
  25636661.808    23127872.420 4  18021706.960
  23477993.023    -3068772.611 5  -2391234.391 1
  24526769.872    -2929121.552 5  -2282429.144 2
  23066693.358     7477615.438 7   5826725.910 6
 92  4 13  5  4 30.0020000  0  6 16 20 12  3 17 24
  22135836.879   -18332333.842 8 -14284920.121 7
  21162085.491    -6954782.051 8  -5419298.206 9
  25659887.031    23249964.724 4  18116843.669 2
  23469366.796    -3114109.012 5  -2426561.388 3
  24511424.993    -3009793.897 5  -2345290.582 2
  23083873.866     7567916.402 7   5897090.283 5
 92  4 13  5  5  0.0020000  0  6 16 20 12  3 17 24
  22134451.537   -18339619.952 8 -14290597.583 7
  21162384.985    -6953219.331 8  -5418080.503 9
  25683109.554    23372006.979 4  18211941.336 2
  23460746.864    -3159376.336 5  -2461834.550 3
  24496109.199    -3090259.632 5  -2407991.046 2
  23101076.260     7658313.509 7   5967529.586 6
 92  4 13  5  5 30.0020000  0  5 16 20  3 17 24
  22133174.722   -18346344.470 8 -14295837.422 7
  21162795.401    -6951059.786 8  -5416397.744 9
  23452135.024    -3204575.938 4  -2497054.999 2
  24480835.669    -3170515.194 5  -2470527.704 1
  23118296.039     7748810.767 7   6038046.891 5
 92  4 13  5  6  0.0020000  0  5 16 20  3 17 24
  22131996.836   -18352515.127 8 -14300645.701 7
  21163318.541    -6948304.254 8  -5414250.584 9
  23443549.268    -3249709.327 4  -2532223.778 3
  24465608.011    -3250569.104 5  -2532907.279 2
  23135541.897     7839423.604 7   6108654.299 4
 92  4 13  5  6 30.0020000  0  5 16 20  3 17 24
  22130931.374   -18358117.117 8 -14305010.854 7
  21163957.995    -6944949.391 8  -5411636.408 8
  23434984.497    -3294774.101 4  -2567339.111 2
  24450413.330    -3330420.108 5  -2595128.660 2
  23152813.241     7930165.209 7   6179362.051 5
 92  4 13  5  7  0.0020000  0  5 16 20  3 17 24
  22129974.439   -18363144.613 8 -14308928.349 7
  21164708.377    -6940994.636 8  -5408554.781 9
  23426426.024    -3339770.798 4  -2602401.415 3
  24435256.725    -3410070.523 5  -2657193.780 2
  23170106.468     8021050.999 7   6250182.140 5
 92  4 13  5  7 30.0020000  0  5 16 20  3 17 24
  22129126.925   -18367596.041 8 -14312396.958 7
  21165574.776    -6936441.570 8  -5405006.931 8
  23417864.550    -3384701.865 5  -2637412.643 3
  24420128.896    -3489522.163 5  -2719104.002 2
  23187430.577     8112086.492 7   6321118.876 5
 92  4 13  5  8  0.0020000  0  5 16 20  3 17 24
  22128393.632   -18371446.547 8 -14315397.323 7
  21166555.997    -6931288.624 8  -5400991.644 9
  23409335.154    -3429566.700 5  -2672372.165 2
  24405050.237    -3568762.734 5  -2780849.685
  23204785.861     8203286.854 7   6392184.058 5
 92  4 13  5  8 30.0020000  0  5 16 20  3 17 24
  22127778.159   -18374683.132 7 -14317919.314 6
  21167651.142    -6925532.537 8  -5396506.388 9
  23400809.057    -3474362.534 5  -2707277.919 4
  24390021.342    -3647769.820 5  -2842413.570 3
  23222171.125     8294653.762 7   6463379.055 5
 92  4 13  5  9  0.0020000  0  5 16 20  3 17 24
  22127279.903   -18377308.453 8 -14319964.998 7
  21168863.801    -6919175.673 8  -5391552.986 9
  23392297.647    -3519092.707 6  -2742132.572 4
  24375037.712    -3726533.934 5  -2903788.030 2
  23239586.067     8386183.855 7   6534701.176 5
 92  4 13  5  9 30.0020000  0  5 16 20  3 17 24
  22126892.569   -18379327.591 8 -14321538.322 6
  21170189.782    -6912214.539 8  -5386128.731 9
  23383800.033    -3563754.312 6  -2776933.770 4
  24360089.162    -3805044.215 5  -2964964.742 2
  23257036.089     8477873.318 7   6606147.509 4
 92  4 13  5 10  0.0020000  0  5 16 20  3 17 24
  22126623.657   -18380753.823 8 -14322649.630 6
  21171625.490    -6904650.853 8  -5380234.941 9
  23375314.406    -3608350.053 6  -2811683.613 2
  24345195.471    -3883310.511 5  -3025951.398 4
  23274512.792     8569712.809 7   6677710.749 4
 92  4 13  5 10 30.0020000  0  5 16 20  3 17 24
  22126461.470   -18381601.104 8 -14323309.827 7
  21173178.712    -6896482.963 8  -5373870.361 9
  23366836.877    -3652878.226 6  -2846380.856 3
  24330353.049    -3961345.469 6  -3086757.715 3
  23292011.975     8661676.025 7   6749370.384 5
 92  4 13  5 11  0.0020000  0  5 16 20  3 17 24
  22126406.009   -18381884.173 8 -14323530.372 6
  21174845.561    -6887709.479 8  -5367033.870 9
  23358378.830    -3697338.832 5  -2881025.443 3
  24315534.904    -4039165.597 6  -3147396.649 3
  23309533.346     8753755.920 7   6821120.945 5
 92  4 13  5 11 30.0020000  0  5 16 20  3 17 24
  22126462.670   -18381606.411 8 -14323313.907 7
  21176632.324    -6878331.391 8  -5359726.273 9
  23349927.083    -3741733.138 5  -2915618.338 3
  24300770.427    -4116785.145 5  -3207879.283 2
  23327080.499     8845950.370 7   6892960.761 3
 92  4 13  5 12  0.0020000  0  5 16 20  3 17 24
  22126623.059   -18380757.662 8 -14322652.525 7
  21178535.406    -6868349.488 8  -5351948.174 9
  23341496.918    -3786062.369 6  -2950160.509 2
  24286032.628    -4194204.720 5  -3268206.088 3
  23344642.638     8938261.090 7   6964891.165 4
 92  4 13  5 12 30.0020000  0  5 16 20  3 17 24
  22126897.368   -18379319.671 8 -14321532.001 7
  21180547.311    -6857762.432 8  -5343698.533 9
  23333070.950    -3830326.170 6  -2984651.750 2
  24271341.900    -4271408.349 5  -3328364.712 2
  23362234.761     9030684.747 7   7036909.563 4
 92  4 13  5 13  0.0020000  0  5 16 20  3 17 24
  22127288.597   -18377272.108 8 -14319936.474 6
  21182675.239    -6846566.918 8  -5334974.765 8
  23324664.770    -3874521.317 6  -3019089.490 4
  24256699.436    -4348376.055 6  -3388339.473 3
  23379846.071     9123247.940 7   7109036.709 4
 92  4 13  5 13 30.0020000  0  5 16 20  3 17 24
  22127791.949   -18374599.585 8 -14317853.962 6
  21184923.983    -6834764.985 8  -5325778.450 8
  23316259.192    -3918650.467 6  -3053475.786 2
  24242097.447    -4425103.528 6  -3448127.023 2
  23397478.962     9215943.335 7   7181266.856 4
 92  4 13  5 14  0.0020000  0  5 16 20  3 17 24
  22128422.111   -18371290.777 8 -14315275.641 7
  21187287.248    -6822354.785 8  -5316108.165 9
  23307878.192    -3962712.293 6  -3087809.658 4
  24227534.128    -4501586.898 5  -3507724.349 1
  23415145.732     9308756.846 7   7253589.058 4
 92  4 13  5 14 30.0020000  0  5 16 20  3 17 24
  22129178.190   -18367348.467 8 -14312203.691 7
  21189763.831    -6809336.644 8  -5305964.175 9
  23299501.992    -4006707.600 6  -3122091.660 3
  24213025.973    -4577833.832 5  -3567137.436 2
  23432828.391     9401674.270 7   7325992.196 5
 92  4 13  5 15  0.0020000  0  5 16 20  3 17 24
  22130040.091   -18362790.442 8 -14308651.969 7
  21192358.238    -6795712.113 8  -5295347.687 9
  23291144.376    -4050638.232 6  -3156323.264 4
  24198566.081    -4653853.987 5  -3626373.791 2
  23450526.638     9494682.419 7   7398466.063 5
 92  4 13  5 15 30.0020000  0  5 16 20  3 17 24
  22131023.712   -18357631.349 8 -14304631.877 7
  21195065.360    -6781478.427 8  -5284256.501 9
  23282800.554    -4094501.417 6  -3190502.348 2
  24184127.178    -4729664.705 5  -3685447.012 3
  23468238.678     9587756.601 7   7470991.403 4
 92  4 13  5 16  0.0020000  0  5 16 20  3 17 24
  22132117.356   -18351883.117 8 -14300152.704 7
  21197887.906    -6766633.991 7  -5272689.407 9
  23274465.423    -4138296.175 6  -3224628.105 2
  24169758.424    -4805261.148 5  -3744353.257 2
  23485966.302     9680906.266 7   7543575.539 5
 92  4 13  5 16 30.0020000  0  5 16 20  3 17 24
  22133319.222   -18345564.913 8 -14295229.422 8
  21200828.273    -6751179.899 8  -5260647.257 9
  23266142.886    -4182023.968 5  -3258701.617 1
  24155408.560    -4880643.331 5  -3803092.523 2
  23503708.920     9774140.848 7   7616225.862 4
 92  4 13  5 17  0.0020000  0  5 16 20  3 17 24
  22134629.616   -18338681.946 8 -14289866.048 6
  21203888.552    -6735114.956 8  -5248129.119 9
  23257834.135    -4225683.992 6  -3292722.381 1
  24141109.957    -4955808.331 6  -3861662.564 2
  23521471.623     9867479.094 7   7688956.934 5
 92  4 13  5 17 30.0020000  0  5 16 20  3 17 24
  22136048.231   -18331225.730 8 -14284055.986 7
  21207062.755    -6718441.420 8  -5235136.762 9
  23249540.679    -4269278.376 6  -3326691.936 2
  24126848.230    -5030760.739 6  -3920066.955 3
  23539252.313     9960940.517 7   7761783.995 4
 92  4 13  5 18  0.0020000  0  5 16 20  3 17 24
  22137580.173   -18323172.062 8 -14277780.391 7
  21210350.280    -6701157.168 8  -5221668.530 9
  23241254.714    -4312805.219 5  -3360608.854 1
  24112623.078    -5105475.763 5  -3978286.352 2
  23557063.284    10054539.664 7   7834718.345 5
 92  4 13  5 18 30.0020000  0  5 16 20  3 17 24
  22139228.730   -18314507.511 8 -14271028.782 7
  21213752.624    -6683263.449 8  -5207725.386 9
  23232982.543    -4356265.715 5  -3394474.083 2
  24098454.287    -5179951.422 5  -4036319.251 1
  23574896.739    10148259.631 6   7907746.868 3
 92  4 13  5 19  0.0020000  0  5 16 20  3 17 24
  22140998.404   -18305208.690 8 -14263782.940 6
  21217274.588    -6664757.579 8  -5193305.227 9
  23224729.253    -4399657.446 6  -3428285.782 2
  24084325.068    -5254163.299 5  -4094146.607 2
  23592752.679    10242088.520 6   7980860.248 5
 92  4 13  5 19 30.0020000  0  5 16 20  3 17 24
  22142887.696   -18295271.414 8 -14256039.576 6
  21220911.667    -6645642.674 8  -5178410.502 9
  23216482.263    -4442983.825 6  -3462046.570 2
  24070266.300    -5328100.475 5  -4151759.919 3
  23610633.498    10336015.591 6   8054050.192 5
 92  4 13  5 20  0.0020000  0  5 16 20  3 17 24
  22144902.904   -18284700.589 8 -14247802.557 6
  21224665.671    -6625916.794 8  -5163039.688 9
  23208249.664    -4486242.893 5  -3495754.862 3
  24056239.313    -5401750.576 5  -4209149.555 4
  23628521.515    10430018.619 6   8127299.257 5
 92  4 13  5 20 30.0020000  0  5 16 20  3 17 24
  22147029.928   -18273521.583 8 -14239091.618 6
  21228537.787    -6605578.929 8  -5147192.022 9
  23200030.254    -4529433.492 5  -3529409.773 2
  24042286.071    -5475132.422 6  -4266330.118 3
  23646415.226    10524091.886 6   8200603.082 5
 92  4 13  5 21  0.0020000  0  5 16 20  3 17 24
  22149270.580   -18261747.420 8 -14229916.921 6
  21232522.632    -6584629.457 8  -5130867.771 9
  23191826.431    -4572556.420 6  -3563012.054 2
  24028362.809    -5548256.783 6  -4323310.053 3
  23664333.524    10618252.832 6   8273975.229 5
 92  4 13  5 21 30.0020000  0  5 16 20  3 17 24
  22151621.853   -18249396.063 8 -14220292.459 6
  21236628.289    -6563070.331 8  -5114068.464 9
  23183630.705    -4615613.177 5  -3596562.755 1
  24014493.214    -5621154.324 5  -4380113.250 2
  23682267.410    10712512.814 6   8347424.534 4
 92  4 13  5 22  0.0020000  0  5 16 20  3 17 24
  22154078.049   -18236482.797 8 -14210230.162 7
  21240842.769    -6540901.142 8  -5096793.773 9
  23175454.768    -4658603.361 5  -3630061.549 2
  24000665.884    -5693842.862 5  -4436753.583 1
  23700228.875    10806862.908 7   8420944.065 5
 92  4 13  5 22 30.0020000  0  5 16 20  3 17 24
  22156642.477   -18223003.955 8 -14199727.168 7
  21245179.270    -6518118.630 8  -5079041.160 9
  23167290.217    -4701523.502 5  -3663505.729 3
  23986870.636    -5766327.117 5  -4493234.769 2
  23718204.131    10901323.771 7   8494549.899 5
 92  4 13  5 23  0.0020000  0  5 16 20  3 17 24
  22159315.724   -18208948.438 8 -14188774.792 7
  21249634.184    -6494726.953 8  -5060813.880 9
  23159130.168    -4744377.711 4  -3696898.593 1
  23973122.753    -5838583.434 5  -4549538.305 3
  23736198.573    10995899.462 7   8568245.216 4
 92  4 13  5 23 30.0020000  0  5 16 20  3 17 24
  22162104.094   -18194310.979 8 -14177368.976 7
  21254198.826    -6470724.856 8  -5042110.964 9
  23150992.603    -4787164.072 4  -3730238.638 3
  23959408.744    -5910602.050 5  -4605656.648 3
  23754215.800    11090566.287 7   8642011.545 5
 92  4 13  5 24  0.0020000  0  5 16 20  3 17 24
  22165003.386   -18179079.889 8 -14165500.572 7
  21258882.481    -6446110.319 8  -5022930.826 9
  23142863.428    -4829880.661 4  -3763524.295 3
  23945755.297    -5982362.170 6  -4661573.550 3
  23772244.720    11185314.414 7   8715841.233 4
 92  4 13  5 24 30.0020000  0  5 16 20  3 17 24
  22168017.803   -18163233.992 8 -14153153.091 7
  21263683.957    -6420885.784 8  -5003275.360 9
  23134754.643    -4872529.530 4  -3796757.231 1
  23932156.713    -6053847.257 6  -4717276.137 3
  23790295.220    11280147.092 7   8789736.812 2
 92  4 13  5 25  0.0020000  0  6 25 16 20  3 17 24
  25218313.425        4201.77415      3275.863 2
  22171150.631   -18146767.704 8 -14140322.204 7
  21268600.852    -6395051.693 7  -4983144.903 9
  23126653.951    -4915110.746 4  -3829937.272 1
  23918600.398    -6125060.667 6  -4772767.009 1
  23808348.723    11375049.628 6   8863686.863 3
 92  4 13  5 25 30.0020000  0  5 25 16 20 17 24
  25223168.564       29696.674 5     23141.963 1
  22174398.584   -18129682.801 8 -14127009.276 8
  21273635.567    -6368604.407 8  -4962536.618 9
  23905097.145    -6196025.977 6  -4828064.581 2
  23826423.209    11470018.091 6   8937688.233 4
 92  4 13  5 26  0.0020000  0  6 25 16 20  3 17 24
  25228110.343       55682.581 5     43390.597 2
  22177766.153   -18111981.569 8 -14113216.090 7
  21278784.206    -6341545.702 8  -4941451.935 9
  23110474.751      -24041.08115    -18714.724 2
  23891641.260    -6266749.688 5  -4883173.854 1
  23844507.293    11565076.268 6   9011759.523 2
 92  4 13  5 26 30.0020000  0  6 25 16 20  3 17 24
  25233156.750       82176.097 5     64034.821 2
  22181255.738   -18093663.365 8 -14098942.141 7
  21284050.660    -6313876.644 8  -4919891.641 9
  23102420.528      -66411.745 5    -51730.766 1
  23878226.449    -6337252.713 5  -4938111.182 2
  23862614.454    11660228.645 6   9085904.195 4
 92  4 13  5 27  0.0020000  0  6 25 16 20  3 17 24
  25238299.089      109199.969 5     85092.402 3
  22184853.847   -18074753.188 7 -14084206.903 6
  21289428.337    -6285597.155 8  -4897855.690 9
  23094363.903     -108712.673 5    -84692.343 1
  23864848.209    -6407543.586 5  -4992883.245 3
  23880745.305    11755469.148 7   9160117.582 3
 92  4 13  5 27 30.0020000  0  6 25 16 20  3 17 24
  25243538.862      136765.280 5    106571.907 1
  22188564.675   -18055258.158 8 -14069015.960 7
  21294924.131    -6256710.015 8  -4875346.244 9
  23086324.072     -150946.113 5   -117601.531 2
  23851513.743    -6477618.671 6  -5047487.138 3
  23898878.550    11850796.828 6   9234398.837 3
 92  4 13  5 28  0.0020000  0  6 25 16 20  3 17 24
  25248895.254      164863.205 5    128466.395 2
  22192387.629   -18035162.653 8 -14053357.118 7
  21300535.645    -6227212.603 8  -4852361.268 9
  23078305.820     -193108.976 6   -150455.665 1
  23838226.340    -6547454.581 6  -5101904.641 3
  23917030.982    11946203.242 6   9308741.467 4
 92  4 13  5 28 30.0020000  0  6 25 16 20  3 17 24
  25254336.188      193491.511 5    150774.108 2
  22196324.804   -18014469.966 8 -14037232.938 8
  21306266.480    -6197105.461 8  -4828901.169 9
  23070299.263     -235201.461 6   -183254.896 3
  23824981.808    -6617041.195 6  -5156127.909 4
  23935203.805    12041660.454 6   9383123.717 5
 92  4 13  5 29  0.0020000  0  6 25 16 20  3 17 24
  25259886.845      222641.512 5    173488.373 2
  22200375.898   -17993187.848 8 -14020649.463 7
  21312113.031    -6166390.306 8  -4804967.296 9
  23062300.201     -277224.822 6   -216000.328 2
  23811796.336    -6686355.255 6  -5210138.817 4
  23953375.423    12137160.896 6   9457539.611 5
 92  4 13  5 29 30.0020000  0  6 25 16 20  3 17 24
  25265528.339      252282.850 5    196585.529 1
  22204541.514   -17971290.066 7 -14003586.263 7
  21318072.307    -6135068.067 8  -4780560.364 9
  23054314.030     -319178.724 6   -248691.666 2
  23798652.535    -6755386.427 6  -5263929.301 2
  23971561.434    12232705.939 6   9531990.253 5
 92  4 13  5 30  0.0020000  0  6 25 16 20  3 17 24
  25271249.576      282408.638 5    220060.148 2
  22208820.456   -17948787.533 7 -13986051.821 7
  21324150.296    -6103136.977 8  -4755679.012 9
  23046342.548     -361061.044 6   -281327.186 3
  23785575.587    -6824135.921 6  -5317500.232 3
  23989746.842    12328300.854 6   9606479.788 5
 92  4 13  5 30 30.0020000  0  6 25 16 20  3 17 24
  25277080.239      313030.590 5    243921.449 3
  22213214.211   -17925697.750 8 -13968059.752 6
  21330342.510    -6070597.355 8  -4730323.475 9
  23038386.357     -402871.367 6   -313906.579 1
  23772539.113    -6892620.888 6  -5370865.047 2
  24007953.239    12423963.045 6   9681021.724 5
 92  4 13  5 31  0.0020000  0  6 25 16 20  3 17 24
  25283002.939      344135.009 4    268158.558 2
  22217723.989   -17902012.607 8 -13949603.795 7
  21336648.046    -6037451.257 8  -4704495.366 9
  23030441.556     -444610.966 6   -346430.918 2
  23759560.497    -6960838.427 6  -5424021.520 3
  24026177.623    12519709.041 6   9755628.977 5
 92  4 13  5 31 30.0020000  0  6 25 16 20  3 17 24
  25289007.184      375728.923 4    292777.163 2
  22222345.592   -17877736.855 8 -13930687.613 7
  21343070.498    -6003697.579 7  -4678193.801 9
  23022520.741     -486277.608 6   -378898.436 2
  23746628.952    -7028791.535 6  -5476971.899 3
  24044403.507    12615546.679 6   9830307.603 5
 92  4 13  5 32  0.0030000  0  6 25 16 20  3 17 24
  25295121.752      407836.305 4    317795.894 2
  22227073.016   -17852890.032 8 -13911326.431 6
  21349607.475    -5969336.641 7  -4651419.061 9
  23014599.026     -527873.475 6   -411310.768 2
  23733746.567    -7096492.150 6  -5529725.553 4
  24062665.961    12711478.113 6   9905059.369 2
 92  4 13  5 32 30.0030000  0  6 25 16 20  3 17 24
  25301338.549      440452.740 5    343211.339 2
  22231913.165   -17827448.873 8 -13891502.139 7
  21356261.667    -5934371.734 7  -4624173.692 9
  23006702.192     -569396.474 5   -443666.311 1
  23720910.056    -7163926.020 6  -5582271.372 4
  24080933.818    12807488.115 6   9979872.340 4
 92  4 13  5 33  0.0030000  0  6 25 16 20  3 17 24
  25307626.395      473561.857 5    369010.603 1
  22236867.535   -17801405.509 8 -13871208.591 7
  21363032.779    -5898802.138 7  -4596457.133 9
  22998807.456     -610847.776 5   -475965.951 2
  23708129.604    -7231082.577 6  -5634601.090 2
  24099210.962    12903557.105 6  10054731.266 3
 92  4 13  5 33 30.0030000  0  6 25 16 20  3 17 24
  25314027.261      507165.493 5    395195.201 2
  22241937.626   -17774766.461 8 -13850450.881 7
  21369920.214    -5862626.957 8  -4568268.695 8
  22990934.306     -652224.942 5   -508207.858 4
  23695404.015    -7297983.002 6  -5686731.238 2
  24117506.097    12999673.476 6  10129627.096 4
 92  4 13  5 34  0.0030000  0  6 25 16 20  3 17 24
  25320504.281      541250.360 4    421754.852 1
  22247125.236   -17747512.879 8 -13829214.305 7
  21376915.269    -5825847.611 8  -4539609.479 9
  22983070.151     -693528.645 5   -540392.514 4
  23682716.197    -7364644.459 6  -5738675.130 3
  24135800.932    13095814.654 6  10204542.294 2
 92  4 13  5 34 30.0030000  0  6 25 16 20  3 17 24
  25327086.224      575797.287 5    448674.434 1
  22252427.663   -17719641.983 8 -13807496.719 7
  21384031.145    -5788463.075 8  -4510478.710 9
  22975226.383     -734756.794 5   -572518.286 2
  23670076.647    -7431064.569 6  -5790430.992 3
  24154104.160    13191975.645 6  10279472.953 2
 92  4 13  5 35  0.0030000  0  6 25 16 20  3 17 24
  25333740.716      610794.973 5    475945.426 1
  22257843.116   -17691183.240 8 -13785321.066 7
  21391256.442    -5750477.248 8  -4480879.391 9
  22967393.404     -775912.260 4   -604587.382 3
  23657487.763    -7497254.874 6  -5842007.766 3
  24172403.492    13288160.315 6  10354422.025 2
 92  4 13  5 35 30.0030000  0  6 25 16 20  3 17 24
  25340494.439      646261.026 5    503581.252 3
  22263371.288   -17662126.977 8 -13762679.804 6
  21398601.658    -5711885.983 8  -4450808.280 9
  22959589.208     -816989.979 5   -636595.973 5
  23644929.457    -7563215.357 6  -5893405.481 2
  24190714.516    13384390.607 6  10429406.597 2
 92  4 13  5 36  0.0030000  0  6 25 16 20  3 17 24
  25347327.909      682191.712 5    531579.043 2
  22269015.181   -17632475.627 8 -13739574.847 7
  21406059.292    -5672691.622 8  -4420267.236 9
  22951782.613     -857991.285 5   -668545.032 3
  23632426.912    -7628919.632 6  -5944603.527 3
  24209031.835    13480673.678 6  10504432.378 1
 92  4 13  5 36 30.0030000  0  6 25 16 20  3 17 24
  25354259.410      718583.341 5    559936.158 2
  22274769.098   -17602246.909 8 -13716019.994 7
  21413634.750    -5632894.951 8  -4389256.860 9
  22943992.505     -898915.930 5   -700434.333 4
  23619976.230    -7694342.031 6  -5995581.956 3
  24227374.636    13577039.032 5  10579522.211 1
 92  4 13  5 37  0.0030000  0  6 25 16 20  3 17 24
  25361266.462      755444.018 5    588658.792 2
  22280634.239   -17571431.558 8 -13692008.032 8
  21421323.525    -5592497.321 8  -4357778.231 9
  22936220.086     -939764.289 6   -732264.204 2
  23607578.915    -7759485.767 5  -6046343.234 4
  24245735.127    13673493.612 5  10654681.619 3
 92  4 13  5 37 30.0030000  0  6 25 16 20  3 17 24
  25368377.836      792770.768 6    617744.545 2
  22286610.899   -17540014.489 8 -13667527.194 7
  21429123.227    -5551499.638 7  -4325831.976 9
  22928465.654     -980535.690 6   -764034.094 3
  23595237.658    -7824347.369 5  -6096884.685 4
  24264099.212    13770029.925 5  10729904.685 2
 92  4 13  5 38  0.0030000  0  6 25 16 20  3 17 24
  25375565.659      830558.672 6    647189.575 4
  22292699.987   -17508009.027 8 -13642587.870 7
  21437038.048    -5509902.549 7  -4293418.675 9
  22920709.124    -1021229.537 6   -795743.559 4
  23582947.666    -7888922.818 6  -6147203.177 3
  24282483.388    13866636.249 5  10805182.319 2
 92  4 13  5 38 30.0030000  0  6 25 16 20  3 17 24
  25382846.719      868815.386 6    676999.954 2
  22298905.389   -17475403.473 8 -13617180.942 7
  21445069.489    -5467706.219 7  -4260538.431 9
  22912988.567    -1061844.683 6   -827391.719 3
  23570714.933    -7953228.592 6  -6197311.525 4
  24300876.855    13963304.324 5  10880508.049 4
 92  4 13  5 39  0.0030000  0  6 25 16 20  3 17 24
  25390215.021      907559.271 6    707189.969 2
  22305225.016   -17442189.050 7 -13591299.563 7
  21453212.450    -5424912.363 7  -4227192.595 8
  22905265.913    -1102381.618 5   -858978.919 2
  23558524.171    -8017285.388 7  -6247225.830 3
  24319279.013    14060001.183 6  10955856.198 5
 92  4 13  5 39 30.0030000  0  6 25 16 20  3 17 24
  25397687.946      946801.692 6    737768.435 2
  22311660.359   -17408378.433 7 -13564953.627 7
  21461467.236    -5381521.824 7  -4193381.809 8
  22897577.735    -1142840.188 5   -890505.022 4
  23546384.077    -8081080.326 7  -6296936.091 2
  24337680.573    14156711.025 6  11031214.465 3
 92  4 13  5 40  0.0030000  0  6 25 16 20  3 17 24
  25405252.310      986551.858 6    768742.608 2
  22318208.126   -17373974.003 7 -13538144.984 7
  21469838.341    -5337534.373 7  -4159105.896 8
  22889895.255    -1183218.785 5   -921968.819 2
  23534295.246    -8144603.255 7  -6346434.378 2
  24356088.729    14253435.512 6  11106584.151 3
 92  4 13  5 40 30.0030000  0  6 25 16 20  3 17 24
  25412906.909     1026806.254 6    800109.619 3
  22324865.615   -17338967.498 7 -13510867.189 7
  21478320.670    -5292951.646 8  -4124366.138 8
  22882215.174    -1223517.820 5   -953370.616 4
  23522257.379    -8207865.248 6  -6395729.340 1
  24374493.591    14350173.025 6  11181964.031 3
 92  4 13  5 41  0.0030000  0  6 25 16 20  3 17 24
  25420660.141     1067559.906 5    831865.657 3
  22331641.225   -17303382.570 8 -13483138.672 6
  21486919.317    -5247775.927 8  -4089164.307 9
  22874573.763    -1263737.791 5   -984710.819 4
  23510266.580    -8270861.275 6  -6444817.081 3
  24392911.938    14446923.896 5  11257354.283 4
 92  4 13  5 41 30.0030000  0  6 25 16 20  3 17 24
  25428510.510     1108786.566 5    863990.292 2
  22338522.662   -17267217.914 8 -13454958.399 6
  21495627.089    -5202007.320 8  -4053500.491 9
  22866926.358    -1303877.363 5  -1015988.355 5
  23498336.041    -8333575.254 6  -6493685.072 3
  24411323.393    14543715.517 5  11332776.296 3
 92  4 13  5 42  0.0030000  0  6 25 16 20  3 17 24
  25436434.623     1150461.506 5    896464.221 2
  22345516.220   -17230473.323 8 -13426326.247 7
  21504450.578    -5155646.751 8  -4017375.386 9
  22859308.029    -1343935.726 6  -1047202.616 3
  23486451.666    -8396022.377 6  -6542345.113 5
  24429755.233    14640565.287 5  11408243.634 3
 92  4 13  5 42 30.0030000  0  6 25 16 20  3 17 24
  25444457.370     1192580.130 5    929283.917 3
  22352615.907   -17193150.426 8 -13397243.472 7
  21513384.993    -5108694.644 8  -3980789.353 9
  22851696.602    -1383911.738 6  -1078352.693 3
  23474616.762    -8458220.988 6  -6590811.490 4
  24448194.865    14737474.456 5  11483757.272 2
 92  4 13  5 43  0.0030000  0  6 25 16 20  3 17 24
  25452548.468     1235126.677 5    962437.054 2
  22359827.414   -17155256.549 8 -13367715.786 7
  21522435.130    -5061149.846 8  -3943741.462 9
  22844112.152    -1423802.899 6  -1109436.696 4
  23462832.517    -8520143.456 7  -6639062.683 4
  24466650.691    14834454.961 5  11559326.454 2
 92  4 13  5 43 30.0030000  0  6 25 16 20  3 17 24
  25460730.103     1278089.181 5    995914.320 3
  22367148.946   -17116785.015 8 -13337737.956 7
  21531592.590    -5013016.053 8  -3906234.648 9
  22836530.700    -1463611.853 6  -1140456.616 2
  23451104.038    -8581786.155 6  -6687095.875 4
  24485122.702    14931496.483 5  11634943.159 3
 92  4 13  5 44  0.0030000  0  6 25 16 20  3 17 24
  25468984.890     1321467.495 5   1029715.602 2
  22374576.304   -17077744.626 8 -13307316.874 7
  21540863.371    -4964296.482 7  -3868271.372 9
  22828974.132    -1503339.606 7  -1171413.253 2
  23439421.126    -8643164.336 6  -6734922.949 4
  24503589.918    15028575.608 5  11710589.184 3
 92  4 13  5 44 30.0030000  0  6 25 16 20  3 17 24
  25477319.118     1365272.587 5   1063849.387 4
  22382115.784   -17038121.955 8 -13276442.079 7
  21550247.174    -4914990.606 7  -3829851.211 8
  22821431.053    -1542983.921 7  -1202304.876 4
  23427798.173    -8704260.450 6  -6782530.234 3
  24522072.722    15125682.276 5  11786256.683 2
 92  4 13  5 45  0.0030000  0  6 25 16 20  3 17 24
  25485729.796     1409503.753 4   1098315.270 2
  22389769.484   -16997917.774 8 -13245114.143 6
  21559741.004    -4865097.130 7  -3790973.196 9
  22813908.661    -1582541.985 7  -1233129.309 4
  23416227.383    -8765064.296 5  -6829909.765 4
  24540556.425    15222816.180 6  11861945.449 2
 92  4 13  5 45 30.0030000  0  6 25 16 20  3 17 24
  25494228.013     1454170.073 5   1133120.226 2
  22397532.013   -16957129.210 8 -13213330.824 6
  21569343.654    -4814619.968 7  -3751640.367 8
  22806391.064    -1622015.995 6  -1263888.236 4
  23404700.663    -8825608.257 6  -6877086.830 3
  24559038.033    15319968.582 6  11937648.560 2
 92  4 13  5 46  0.0030000  0  6 25 16 20  3 17 24
  25502822.463     1499272.116 5   1168264.593 2
  22405403.064   -16915751.337 8 -13181088.333 7
  21579065.026    -4763558.701 8  -3711852.412 9
  22798891.156    -1661404.108 6  -1294580.252 2
  23393230.901    -8885895.720 6  -6924064.027 2
  24577534.029    15417151.756 6  12013375.661 1
 92  4 13  5 46 30.0030000  0  5 16 20  3 17 24
  22413389.235   -16873784.762 8 -13148387.097 7
  21588890.122    -4711912.591 8  -3671608.715 8
  22791418.829    -1700702.991 6  -1325202.670 2
  23381810.009    -8945911.554 6  -6970829.516 3
  24596035.418    15514373.032 6  12089132.515 2
 92  4 13  5 47  0.0030000  0  5 16 20  3 17 24
  22421484.531   -16831249.603 8 -13115242.801 7
  21598828.841    -4659685.230 8  -3630912.103 8
  22783948.901    -1739914.877 6  -1355757.347 2
  23370440.681    -9005673.745 7  -7017397.343 4
  24614545.806    15611625.049 6  12164913.307 2
 92  4 13  5 47 30.0030000  0  5 16 20  3 17 24
  22429687.149   -16788136.968 8 -13081648.539 7
  21608878.483    -4606877.944 8  -3589763.595 9
  22776511.950    -1779039.225 6  -1386243.815 4
  23359116.319    -9065173.795 7  -7063760.930 5
  24633049.594    15708901.477 5  12240713.043 1
 92  4 13  5 48  0.0030000  0  5 16 20  3 17 24
  22438001.895   -16744449.141 8 -13047606.077 7
  21619037.851    -4553492.862 8  -3548164.864 9
  22769082.193    -1818076.182 6  -1416662.146 2
  23347847.121    -9124401.138 6  -7109912.014 5
  24651574.069    15806186.137 5  12316519.253 1
 92  4 13  5 48 30.0030000  0  5 16 20  3 17 24
  22446422.763   -16700198.308 8 -13013124.899 7
  21629305.743    -4499531.316 8  -3506116.939 9
  22761663.826    -1857025.226 6  -1447011.997 3
  23336624.991    -9183365.787 6  -7155858.425 4
  24670084.758    15903470.836 5  12392325.591 2
 92  4 13  5 49  0.0030000  0  5 16 20  3 17 24
  22454948.564   -16655384.137 7 -12978204.761 6
  21639684.260    -4444993.745 8  -3463620.148 9
  22754276.342    -1895884.557 6  -1477291.969 4
  23325452.327    -9242068.460 6  -7201600.699 5
  24688594.243    16000761.730 5  12468136.611 2
 92  4 13  5 49 30.0030000  0  5 16 20  3 17 24
  22463583.486   -16610007.182 7 -12942846.090 7
  21650169.799    -4389882.398 8  -3420676.265 9
  22746895.454    -1934654.400 6  -1507502.238 5
  23314336.321    -9300497.629 6  -7247129.854 5
  24707111.524    16098064.272 5  12543956.748 1
 92  4 13  5 50  0.0030000  0  5 16 20  3 17 24
  22472322.136   -16564089.192 7 -12907065.838 7
  21660765.366    -4334198.787 8  -3377286.465 9
  22739534.350    -1973334.401 6  -1537642.469 4
  23303270.980    -9358660.371 6  -7292451.412 3
  24725625.507    16195385.963 5  12619792.067 2
 92  4 13  5 50 30.0030000  0  5 16 20  3 17 24
  22481160.916   -16517638.509 7 -12870870.495 7
  21671473.051    -4277944.099 8  -3333451.674 9
  22732193.331    -2011924.061 6  -1567712.318 5
  23292253.310    -9416548.646 6  -7337559.089 4
  24744163.170    16292739.231 5  12695652.005 2
 92  4 13  5 51  0.0030000  0  5 16 20  3 17 24
  22490100.126   -16470651.686 7 -12834257.393 7
  21682285.066    -4221121.541 8  -3289174.379 9
  22724870.901    -2050423.955 6  -1597712.215 5
  23281285.403    -9474149.348 6  -7382442.675 2
  24762687.946    16390118.317 5  12771531.650 1
 92  4 13  5 51 30.0030000  0  5 16 20  3 17 24
  22499143.666   -16423128.287 7 -12797226.189 6
  21693204.108    -4163733.095 8  -3244456.130 9
  22717554.466    -2088833.880 6  -1627642.004 5
  23270381.652    -9531465.129 7  -7427104.257 3
  24781211.823    16487515.942 5  12847425.880 2
 92  4 13  5 52  0.0030000  0  5 16 20  3 17 24
  22508294.233   -16375047.725 7 -12759760.809 8
  21704236.768    -4105778.150 8  -3199296.460 9
  22710259.315    -2127151.195 6  -1657499.633 6
  23259526.766    -9588495.506 7  -7471543.414 3
  24799756.087    16584932.398 5  12923334.910 2
 92  4 13  5 52 30.0030000  0  5 16 20  3 17 24
  22517554.820   -16326390.481 7 -12721846.089 7
  21715368.664    -4047256.797 8  -3153695.428 9
  22702990.549    -2165373.606 6  -1687283.275 6
  23248739.334    -9645231.769 7  -7515753.403 5
  24818300.647    16682369.871 5  12999260.138 1
 92  4 13  5 53  0.0030000  0  5 16 20  3 17 24
  22526925.133   -16277152.738 7 -12683479.015 8
  21726614.177    -3988171.667 8  -3107655.106 8
  22695734.670    -2203501.696 6  -1716993.423 6
  23237992.373    -9701677.844 7  -7559737.257 4
  24836848.209    16779825.513 5  13075199.515 2
 92  4 13  5 53 30.0030000  0  5 16 20  3 17 24
  22536401.574   -16227331.953 7 -12644657.639 7
  21737967.018    -3928524.646 8  -3061176.933 9
  22688496.782    -2241535.092 6  -1746629.778 6
  23227299.974    -9757845.239 7  -7603503.995 4
  24855391.569    16877301.415 4  13151154.747 2
 92  4 13  5 54  0.0030000  0  5 16 20  3 17 24
  22545998.230   -16176929.996 8 -12605383.396 7
  21749422.087    -3868317.741 8  -3014262.483 8
  22681280.777    -2279473.153 6  -1776191.878 6
  23216667.535    -9813734.683 7  -7647054.144 4
  24873941.229    16974794.045 3  13227123.234 2
 92  4 13  5 54 30.0030000  0  4 16 20  3 17
  22555693.518   -16125967.060 8 -12565672.035 7
  21760988.083    -3807551.742 8  -2966912.385 8
  22674081.558    -2317314.676 6  -1805678.747 6
  23206083.363    -9869347.545 6  -7690388.768 4
 92  4 13  5 55  0.0030000  0  4 16 20  3 17
  22565495.532   -16074452.623 8 -12525530.898 6
  21772653.606    -3746229.667 8  -2919128.994 8
  22666894.634    -2355060.537 6  -1835091.076 6
  23195553.452    -9924694.049 6  -7733515.839 3
 92  4 13  5 55 30.0030000  0  4 16 20  3 17
  22575406.069   -16022382.555 8 -12484956.818 7
  21784429.754    -3684351.311 7  -2870912.115 8
  22659731.093    -2392707.863 6  -1864426.605 6
  23185073.907    -9979770.980 6  -7776432.840 3
 92  4 13  5 56  0.0030000  0  4 16 20  3 17
  22585418.542   -15969769.398 8 -12443959.553 7
  21796312.026    -3621919.164 7  -2822263.712 8
  22652585.839    -2430256.561 6  -1893685.285 6
  23174642.027   -10034572.391 6  -7819135.157 4
 92  4 13  5 56 30.0030000  0  4 16 20  3 17
  22595533.238   -15916617.843 8 -12402542.757 7
  21808297.429    -3558933.514 8  -2773184.009 9
  22645459.772    -2467704.516 6  -1922865.479 6
  23164267.114   -10089105.731 6  -7861628.600 5
 92  4 13  5 57  0.0030000  0  4 16 20  3 17
  22605750.166   -15862923.075 8 -12360702.677 7
  21820387.459    -3495396.639 8  -2723674.797 9
  22638349.598    -2505051.498 6  -1951966.989 6
  23153945.855   -10143363.666 7  -7903907.447 5
 92  4 13  5 57 30.0030000  0  4 16 20  3 17
  22616069.623   -15808688.903 8 -12318442.303 7
  21832583.918    -3431308.294 8  -2673735.867 9
  22631263.104    -2542294.731 6  -1980987.645 6
  23143669.570   -10197340.519 6  -7945967.259 5
 92  4 13  5 58  0.0030000  0  4 16 20  3 17
  22626489.806   -15753929.186 8 -12275772.410 6
  21844881.702    -3366673.987 7  -2623371.492 8
  22624193.995    -2579437.141 7  -2009929.718 6
  23133449.645   -10251045.720 6  -7987815.403 4
 92  4 13  5 58 30.0030000  0  4 16 20  3 17
  22637011.921   -15698636.121 8 -12232686.886 6
  21857286.817    -3301492.391 7  -2572580.672 7
  22617147.073    -2616474.632 7  -2038790.068 7
  23123283.384   -10304471.442 6  -8029445.777 3
 92  4 13  5 59  0.0030000  0  4 16 20  3 17
  22647635.666   -15642802.654 8 -12189180.299 7
  21869793.558    -3235765.951 8  -2521365.299 8
  22610125.638    -2653407.360 7  -2067568.778 7
  23113174.682   -10357604.588 7  -8070848.159 4
 92  4 13  5 59 30.0030000  0  4 16 20  3 17
  22658364.941   -15586428.390 8 -12145252.300 7
  21882405.228    -3169498.403 7  -2469728.301 8
  22603113.189    -2690236.697 7  -2096266.943 7
  23103119.343   -10410453.353 7  -8112028.951 4
 92  4 13  6  0  0.0030000  0  4 16 20  3 17
  22669194.943   -15529505.602 8 -12100896.912 7
  21895114.928    -3102689.530 8  -2417669.480 7
  22596125.027    -2726959.113 7  -2124881.797 7
  23093118.567   -10463005.616 7  -8152978.699 4
 92  4 13  6  0 30.0030000  0  4 16 20  3 17
  22680135.567   -15472022.665 8 -12056105.007 6
  21907930.455    -3035341.103 7  -2365190.217 8
  22589163.546    -2763573.562 7  -2153412.513 7
  23083170.852   -10515259.862 7  -8193696.213 5
 92  4 13  6  1  0.0030000  0  5 16 20  3 17 24
  22691179.325   -15413979.910 8 -12010876.895 7
  21920853.611    -2967455.607 7  -2312292.447 8
  22582214.359    -2800079.881 7  -2181858.978 7
  23073279.501   -10567229.110 7  -8234191.669 5
  25133825.913       94310.68815     73499.962 1
 92  4 13  6  1 30.0030000  0  5 16 20  3 17 24
  22702328.906   -15355390.022 8 -11965222.429 6
  21933873.594    -2899033.483 8  -2258976.545 9
  22575286.754    -2836475.784 7  -2210219.406 7
  23063442.709   -10618920.847 6  -8274470.878 4
  25152400.457      191875.171 5    149524.503 1
 92  4 13  6  2  0.0030000  0  5 16 20  3 17 24
  22713579.816   -15296265.431 8 -11919151.314 6
  21946991.014    -2830077.374 7  -2205244.551 8
  22568381.633    -2872761.179 7  -2238493.720 7
  23053660.182   -10670341.105 6  -8314538.560 3
  25170960.308      289423.608 5    225536.054 1
 92  4 13  6  2 30.0030000  0  5 16 20  3 17 24
  22724933.556   -15236619.548 8 -11872673.995 6
  21960218.759    -2760588.772 7  -2151097.614 7
  22561496.601    -2908934.993 8  -2266681.100 8
  23043922.926   -10721499.885 6  -8354402.474 5
  25189518.361      386962.705 5    301540.373 1
 92  4 13  6  3  0.0030000  0  5 16 20  3 17 24
  22736378.731   -15176469.072 8 -11825803.506 7
  21973542.432    -2690569.697 7  -2096537.323 8
  22554633.753    -2944995.933 8  -2294780.519 7
  23034240.529   -10772394.064 6  -8394060.205 5
  25208082.409      484505.919 5    377548.000 2
 92  4 13  6  3 30.0030000  0  5 16 20  3 17 24
  22747917.443   -15115821.521 8 -11778545.669 6
  21986964.742    -2620021.984 7  -2041565.109 8
  22547793.386    -2980943.195 7  -2322791.343 8
  23024608.794   -10823010.725 7  -8433501.689 3
  25226649.153      582038.500 5    453547.346 2
 92  4 13  6  4  0.0030000  0  5 16 20  3 17 24
  22759557.484   -15054669.710 8 -11730894.888 5
  22000489.577    -2548948.926 7  -1986183.532 7
  22540973.108    -3016776.624 7  -2350713.483 7
  23015029.226   -10873342.929 7  -8472721.511 5
  25245194.315      679557.938 5    529536.716 2
 92  4 13  6  4 30.0030000  0  5 16 20  3 17 24
  22771292.860   -14993000.178 8 -11682840.701 7
  22014113.045    -2477354.099 8  -1930395.406 7
  22534178.914    -3052497.178 7  -2378547.657 8
  23005506.620   -10923388.640 7  -8511718.082 6
  25263753.267      777079.669 5    605527.588 2
 92  4 13  6  5  0.0030000  0  5 16 20  3 17 24
  22783127.171   -14930794.635 8 -11634368.863 6
  22027839.945    -2405236.131 7  -1874199.622 7
  22527402.405    -3088100.584 7  -2406290.556 8
  22996041.871   -10973141.884 8  -8550486.778 6
  25282313.118      874616.567 5    681530.277 2
 92  4 13  6  5 30.0030000  0  5 16 20  3 17 24
  22795069.402   -14868049.992 8 -11585476.931 6
  22041662.476    -2332601.067 7  -1817600.903 7
  22520650.179    -3123589.676 7  -2433944.361 8
  22986624.791   -11022612.043 7  -8589034.894 6
  25300880.464      972162.638 5    757540.407 2
 92  4 13  6  6  0.0030000  0  5 16 20  3 17 24
  22807109.668   -14804764.996 8 -11536163.941 6
  22055580.041    -2259448.604 7  -1760599.019 8
  22513919.237    -3158961.191 7  -2461506.539 9
  22977263.474   -11071806.817 7  -8627368.409 6
  25319454.406     1069734.150 5    833570.056 1
 92  4 13  6  6 30.0030000  0  5 16 20  3 17 24
  22819254.260   -14740954.842 8 -11486441.733 7
  22069598.935    -2185779.846 7  -1703194.837 8
  22507206.583    -3194212.858 7  -2488975.340 8
  22967948.622   -11120737.010 7  -8665495.769 5
  25338014.859     1167329.052 4    909617.954
 92  4 13  6  7  0.0030000  0  5 16 20  3 17 24
  22831490.589   -14676648.152 8 -11436332.637 6
  22083715.564    -2111598.504 7  -1645391.221 7
  22500525.711    -3229345.702 7  -2516351.562 9
  22958692.529   -11169399.474 7  -8703414.495 6
  25356592.997     1264924.539 4    985666.139 2
 92  4 13  6  7 30.0030000  0  5 16 20  3 17 24
  22843821.353   -14611860.391 8 -11385848.659 6
  22097931.419    -2036905.434 8  -1587188.853 7
  22493859.527    -3264357.029 7  -2543633.098 9
  22949483.503   -11217786.323 7  -8741118.502 6
  25375151.047     1362500.704 3   1061699.306 2
 92  4 13  6  8  0.0030000  0  5 16 20  3 17 24
  22856237.855   -14546596.597 8 -11334993.745 7
  22112239.616    -1961703.033 7  -1528589.629 7
  22487220.020    -3299246.330 7  -2570819.530 9
  22940334.136   -11265884.804 7  -8778597.799 5
  25393725.290     1460047.986 3   1137710.078 1
 92  4 13  6  8 30.0030000  0  5 16 20  3 17 24
  22868749.094   -14480860.611 8 -11283770.912 7
  22126645.242    -1885994.562 7  -1469596.052 7
  22480604.503    -3334013.451 7  -2597910.760 8
  22931234.236   -11313677.727 7  -8815838.995 6
  25412289.638     1557564.264 4   1213696.679 1
 92  4 13  6  9  0.0030000  0  5 16 20  3 17 24
  22881350.271   -14414633.161 8 -11232165.113 6
  22141150.102    -1809779.213 7  -1410207.509 6
  22474012.666    -3368654.627 7  -2624903.853 8
  22922206.287   -11361147.001 7  -8852827.995 4
  25430834.800     1655055.752 4   1289663.845 1
 92  4 13  6  9 30.0030000  0  5 16 20  3 17 24
  22894054.876   -14347897.758 8 -11180163.500 7
  22155749.395    -1733061.883 7  -1350427.804 7
  22467446.310    -3403171.562 7  -2651800.144 8
  22913233.198   -11408292.045 6  -8889564.361 5
  25449379.361     1752530.354 4   1365618.176 1
 92  4 13  6 10  0.0030000  0  5 16 20  3 17 24
  22906849.118   -14280646.111 8 -11127759.619 7
  22170445.519    -1655842.115 7  -1290256.603 6
  22460899.141    -3437560.342 7  -2678596.569 8
  22904322.170   -11455123.092 7  -8926056.051 5
  25467931.420     1850004.816 4   1441572.274 2
 92  4 13  6 10 30.0030000  0  4 16 20  3 17
  22919744.092   -14212878.702 8 -11074953.847 6
  22185231.582    -1578123.085 7  -1229696.366 7
  22454383.156    -3471820.711 7  -2705292.924 9
  22895467.798   -11501659.381 7  -8962318.041 4
 92  4 13  6 11  0.0030000  0  4 16 20  3 17
  22932736.499   -14144590.394 8 -11021742.172 6
  22200113.581    -1499908.406 7  -1168749.895 6
  22447887.552    -3505952.889 7  -2731889.401 9
  22886663.492   -11547926.012 7  -8998369.914 5
 92  4 13  6 11 30.0030000  0  4 16 20  3 17
  22945829.934   -14075790.814 8 -10968132.117 7
  22215095.108    -1421197.992 7  -1107417.134 7
  22441416.832    -3539953.383 7  -2758383.286 9
  22877906.554   -11593930.616 7  -9034217.602 5
 92  4 13  6 12  0.0030000  0  4 16 20  3 17
  22959019.000   -14006495.210 8 -10914135.539 7
  22230168.375    -1341996.792 7  -1045701.960 7
  22434971.293    -3573823.890 6  -2784775.856 9
  22869199.680   -11639691.281 7  -9069875.220 5
 92  4 13  6 12 30.0030000  0  4 16 20  3 17
  22972294.712   -13936704.123 7 -10859752.873 6
  22245329.181    -1262304.373 7   -983604.021 7
  22428551.537    -3607560.564 6  -2811064.134 8
  22860541.977   -11685191.188 8  -9105329.624 3
 92  4 13  6 13  0.0030000  0  4 16 20  3 17
  22985674.448   -13866423.964 7 -10804989.125 7
  22260588.615    -1182124.351 7   -921126.100 8
  22422152.167    -3641163.836 6  -2837248.434 8
  22851934.937   -11730425.646 8  -9140577.198 5
 92  4 13  6 13 30.0030000  0  4 16 20  3 17
  22999133.330   -13795671.831 7 -10749857.606 6
  22275938.289    -1101459.660 7   -858270.533 7
  22415788.173    -3674632.826 6  -2863328.123 7
  22843378.558   -11775388.050 7  -9175612.757 4
 92  4 13  6 14  0.0030000  0  4 16 20  3 17
  23012688.746   -13724446.390 8 -10694357.265 6
  22291380.296    -1020310.521 7   -795037.472 7
  22409441.267    -3707964.499 6  -2889300.814 7
  22834873.148   -11820071.347 7  -9210430.858 4
 92  4 13  6 14 30.0030000  0  4 16 20  3 17
  23026332.901   -13652753.356 7 -10638492.573 7
  22306914.943     -938679.263 7   -731428.741 7
  22403129.135    -3741157.500 7  -2915165.433 6
  22826423.198   -11864466.646 7  -9245024.529 6
 92  4 13  6 15  0.0030000  0  4 16 20  3 17
  23040064.294   -13580600.857 7 -10582269.863 7
  22322541.028     -856568.785 7   -667446.593 7
  22396837.690    -3774210.957 7  -2940921.329 7
  22818029.905   -11908576.772 7  -9279395.993 5
 92  4 13  6 15 30.0030000  0  4 16 20  3 17
  23053878.733   -13507989.394 7 -10525689.535 6
  22338258.247     -773982.745 7   -603093.868 7
  22390574.127    -3807125.044 7  -2966568.642 7
  22809696.576   -11952387.884 7  -9313534.451 6
 92  4 13  6 16  0.0030000  0  4 16 20  3 17
  23067785.505   -13434906.725 7 -10468742.015 6
  22354062.403     -690921.991 7   -538371.227 6
  22384339.945    -3839897.138 7  -2992105.319 6
  22801413.009   -11995896.217 7  -9347436.999 5
 92  4 13  6 16 30.0030000  0  5 16 20  3 17 24
  23081784.912   -13361351.728 7 -10411426.422 6
  22369955.900     -607389.408 7   -473280.930 7
  22378130.341    -3872526.271 7  -3017530.580 6
  22793190.903   -12039107.414 7  -9381107.992 5
  25708666.261       55113.87114     42955.572 1
 92  4 13  6 17  0.0030000  0  5 16 20  3 17 24
  23095872.159   -13287313.151 7 -10353734.042 6
  22385944.134     -523391.230 7   -407827.839 6
  22371946.224    -3905015.109 7  -3042846.511 5
  22785024.555   -12082023.931 7  -9414549.370 5
  25727171.248      152368.458 4    118738.400 1
 92  4 13  6 17 30.0030000  0  5 16 20  3 17 24
  23110054.444   -13212779.114 7 -10295655.581 7
  22402018.407     -438925.391 7   -342010.363 7
  22365790.285    -3937358.003 7  -3068048.735 5
  22776913.371   -12124649.395 7  -9447763.954 5
  25745675.341      249612.400 4    194512.850 2
 92  4 13  6 18  0.0030000  0  4 16 20  3 17
  23124328.159   -13137755.723 7 -10237195.821 5
  22418177.518     -353993.846 7   -275829.985 7
  22359666.423    -3969552.932 7  -3093135.700 4
  22768852.853   -12166999.792 7  -9480764.199 6
 92  4 13  6 18 30.0030000  0  4 16 20  3 17
  23138699.910   -13062251.671 7 -10178361.514 6
  22434426.271     -268601.518 7   -209290.548 7
  22353569.247    -4001601.607 7  -3118108.699 5
  22760848.992   -12209071.957 7  -9513547.647 7
 92  4 13  6 19  0.0030000  0  5 16 20 23  3 17
  23153156.503   -12986273.502 7 -10119157.743 5
  22450763.758     -182750.986 7   -142394.080 7
  25404520.217     -203844.891 4   -158840.551 1
  22347495.149    -4033502.115 7  -3142966.217 6
  22752891.301   -12250868.808 7  -9546116.572 6
 92  4 13  6 19 30.0030000  0  5 16 20 23  3 17
  23167703.934   -12909834.395 7 -10059594.817 4
  22467184.893      -96443.261 7    -75141.328 7
  25386651.988     -297771.147 4   -232029.652 2
  22341454.032    -4065251.914 6  -3167706.293 6
  22744993.271   -12292387.335 7  -9578468.637 7
 92  4 13  6 20  0.0030000  0  4 16 20  3 17
  23182338.001   -12832942.616 7  -9999679.158 5
  22483698.361       -9680.160 7     -7533.763 6
  22335446.494    -4096849.470 6  -3192327.714 5
  22737148.002   -12333626.731 7  -9610603.171 6
 92  4 13  6 20 30.0030000  0  4 16 20  3 17
  23197053.316   -12755597.763 8  -9939410.447 5
  22500293.671       77535.387 7     60426.354 6
  22329461.435    -4128293.400 7  -3216829.449 7
  22729350.996   -12374586.797 7  -9642520.044 6
 92  4 13  6 21  0.0030000  0  4 16 20  3 17
  23211857.365   -12677805.344 8  -9878792.987 4
  22516976.820      165200.268 7    128736.595 6
  22323504.559    -4159582.828 7  -3241210.793 6
  22721608.858   -12415275.351 7  -9674225.365 5
 92  4 13  6 21 30.0030000  0  4 16 20  3 17
  23226742.959   -12599571.077 8  -9817831.233 6
  22533746.013      253312.543 7    197395.458 7
  22317582.161    -4190716.330 7  -3265470.653 7
  22713918.582   -12455682.780 7  -9705711.640 5
 92  4 13  6 22  0.0030000  0  4 16 20  3 17
  23241721.192   -12520895.365 8  -9756525.485 4
  22550594.346      341868.205 7    266399.840 7
  22311690.339    -4221693.795 7  -3289608.934 7
  22706281.970   -12495822.115 7  -9736989.012 6
 92  4 13  6 22 30.0030000  0  5 16 20 23  3 17
  23256775.268   -12441776.614 8  -9694874.506 6
  22567523.928      430867.965 7    335750.261 7
  25279832.635      -34201.84215    -26651.481 4
  22305825.198    -4252510.466 6  -3313621.889 6
  22698697.520   -12535684.817 7  -9768050.794 6
 92  4 13  6 23  0.0030000  0  5 16 20 23  3 17
  23271911.792   -12362223.974 7  -9632885.443 5
  22584557.238      520308.483 7    405444.140 6
  25262100.513     -127418.152 4    -99287.459 3
  22299990.936    -4283166.111 7  -3337509.387 7
  22691166.731   -12575263.320 8  -9798891.138 6
 92  4 13  6 23 30.0030000  0  5 16 20 23  3 17
  23287132.552   -12282230.581 7  -9570552.966 5
  22601651.703      610188.139 7    475480.186 6
  25244372.283     -220544.055 4   -171852.948 2
  22294185.458    -4313657.956 7  -3361269.241 7
  22683687.812   -12614553.408 7  -9829506.724 4
 92  4 13  6 24  0.0030000  0  5 16 20 23  3 17
  23302437.859   -12201794.062 7  -9507875.177 4
  22618843.902      700498.752 7    545852.038 6
  25226671.637     -313568.246 4   -244339.176 3
  22288412.355    -4343990.223 7  -3384904.766 7
  22676266.147   -12653557.553 8  -9859899.500 5
 92  4 13  6 24 30.0030000  0  5 16 20 23  3 17
  23317833.698   -12120912.030 7  -9444850.245 5
  22636110.447      791239.879 7    616559.366 7
  25208988.381     -406475.870 5   -316734.623 2
  22282675.526    -4374159.254 7  -3408413.096 8
  22668903.245   -12692252.188 7  -9890051.090 5
 92  4 13  6 25  0.0030000  0  5 16 20 23  3 17
  23333305.091   -12039583.317 7  -9381477.237 5
  22653455.837      882411.548 7    687602.192 5
  25191327.308     -499254.944 4   -389029.906 3
  22276962.678    -4404161.108 7  -3431791.157 7
  22661594.606   -12730632.136 7  -9919957.475 6
 92  4 13  6 25 30.0030000  0  5 16 20 23  3 17
  23348866.414   -11957804.398 7  -9317753.416 5
  22670889.072      974008.140 7    758976.128 7
  25173698.312     -591898.234 4   -461219.365 3
  22271282.811    -4433997.441 7  -3455040.228 8
  22654351.317   -12768711.537 7  -9949629.715 6
 92  4 13  6 26  0.0030000  0  5 16 20 23  3 17
  23364516.184   -11875591.517 7  -9253691.436 6
  22688405.046     1066027.196 7    830679.235 6
  25156102.595     -684396.150 5   -533295.525 3
  22265640.719    -4463666.453 7  -3478158.942 8
  22647158.097   -12806496.882 7  -9979072.814 6
 92  4 13  6 26 30.0030000  0  5 16 20 23  3 17
  23380239.096   -11792966.620 7  -9189308.396 5
  22705992.667     1158469.204 7    902711.901 6
  25138525.461     -776752.830 5   -605261.683 4
  22260027.403    -4493163.885 7  -3501143.944 7
  22640023.938   -12844000.743 7 -10008296.569 7
 92  4 13  6 27  0.0030000  0  5 16 20 23  3 17
  23396035.461   -11709939.541 6  -9124612.000 7
  22723660.938     1251330.100 7    975070.979 6
  25120960.919     -868969.784 5   -677118.946 2
  22254447.966    -4522489.468 7  -3523995.042 7
  22632932.645   -12881244.520 7 -10037317.685 7
 92  4 13  6 27 30.0030000  0  5 16 20 23  3 17
  23411910.072   -11626520.496 6  -9059610.204 6
  22741411.348     1344601.457 7   1047749.897 6
  25103455.440     -961050.053 5   -748869.732 3
  22248897.008    -4551647.514 7  -3546715.594 7
  22625899.814   -12918228.736 7 -10066136.535 7
 92  4 13  6 28  0.0030000  0  5 16 20 23  3 17
  23427859.628   -11542710.047 6  -8994303.368 5
  22759237.007     1438284.333 7   1120749.493 6
  25085970.043    -1052998.542 5   -820517.764 2
  22243382.626    -4580632.751 7  -3569301.496 6
  22618917.049   -12954928.606 7 -10094733.800 7
 92  4 13  6 28 30.0040000  0  5 16 20 23  3 17
  23443881.139   -11458489.136 6  -8928676.697 5
  22777142.111     1532379.391 7   1194070.262 6
  25068486.446    -1144825.865 5   -892071.386 2
  22237898.824    -4609444.180 7  -3591751.946 7
  22611983.448   -12991336.721 7 -10123103.741 7
 92  4 13  6 29  0.0040000  0  5 16 20 23  3 17
  23459993.187   -11373842.641 7  -8862718.420 4
  22795123.365     1626878.391 7   1267705.811 4
  25051039.125    -1236518.756 5   -963520.331 3
  22232449.497    -4638078.126 7  -3614064.107 6
  22605121.499   -13027428.802 7 -10151227.411 7
 92  4 13  6 29 30.0040000  0  5 16 20 23  3 17
  23476187.076   -11288760.271 7  -8796420.460 4
  22813184.960     1721785.587 7   1341659.416 6
  25033609.193    -1328087.213 4  -1034872.295 3
  22227036.744    -4666529.489 7  -3636234.016 7
  22598315.011   -13063191.049 7 -10179094.056 7
 92  4 13  6 30  0.0040000  0  5 16 20 23  3 17
  23492457.410   -11203244.667 7  -8729784.935 5
  22831326.603     1817094.266 7   1415925.882 6
  25016213.734    -1419538.123 4  -1106132.618 2
  22221657.265    -4694801.121 7  -3658263.840 7
  22591568.482   -13098643.794 8 -10206719.533 7
 92  4 13  6 30 30.0040000  0  5 16 20 23  3 17
  23508808.090   -11117305.409 7  -8662819.289 5
  22849534.798     1912801.426 7   1490502.833 6
  24998827.873    -1510861.003 4  -1177293.209 3
  22216310.466    -4722892.021 7  -3680152.843 6
  22584874.718   -13133816.753 8 -10234127.017 7
 92  4 13  6 31  0.0040000  0  5 16 20 23  3 17
  23525245.113   -11030954.335 6  -8595532.730 5
  22867824.236     2008904.877 7   1565388.589 5
  24981468.388    -1602043.070 3  -1248344.102 3
  22210999.344    -4750799.910 7  -3701899.228 7
  22578236.712   -13168719.997 8 -10261324.326 8
 92  4 13  6 31 30.0040000  0  5 16 20 23  3 17
  23541745.690   -10944195.535 6  -8527928.504 4
  22886183.226     2105402.789 7   1640581.730 6
  24964146.979    -1693080.460 4  -1319282.265 2
  22205725.395    -4778522.656 7  -3723501.364 7
  22571639.181   -13203373.588 8 -10288327.090 7
 92  4 13  6 32  0.0040000  0  5 16 20 23  3 17
  23558337.400   -10857038.625 6  -8460014.055 5
  22904626.758     2202291.313 7   1716079.216 6
  24946854.354    -1783965.678 4  -1390101.827 2
  22200484.724    -4806059.500 7  -3744958.653 8
  22565088.413   -13237796.762 8 -10315150.310 7
 92  4 13  6 32 30.0040000  0  5 16 20 23  3 17
  23574994.772   -10769480.606 6  -8391787.057 4
  22923136.544     2299569.179 7   1791880.087 6
  24929598.898    -1874688.521 4  -1460794.846 3
  22195284.525    -4833407.026 7  -3766268.412 8
  22558582.920   -13271972.107 8 -10341780.428 7
 92  4 13  6 33  0.0040000  0  5 16 20 23  3 17
  23591739.678   -10681514.954 6  -8323242.398 5
  22941721.877     2397232.241 6   1867981.145 5
  24912355.134    -1965252.616 4  -1531364.192 2
  22190109.505    -4860565.479 7  -3787430.824 7
  22552135.880   -13305878.536 8 -10368200.985 7
 92  4 13  6 33 30.0040000  0  5 16 20 23  3 17
  23608560.135   -10593147.536 7  -8254384.687 4
  22960377.063     2495277.996 6   1944380.391 5
  24895158.442    -2055666.727 4  -1601816.691 3
  22184982.758    -4887532.928 8  -3808444.408 8
  22545734.115   -13339504.725 8 -10394403.175 6
 92  4 13  6 34  0.0040000  0  5 16 20 23  3 17
  23625446.841   -10504379.378 7  -8185214.707 5
  22979105.395     2593704.544 6   2021076.351 6
  24877982.729    -2145931.371 4  -1672152.650 4
  22179884.786    -4914306.812 8  -3829307.163 8
  22539390.503   -13372833.122 8 -10420373.307 7
 92  4 13  6 34 30.0040000  0  5 16 20 23  3 17
  23642417.497   -10415211.565 7  -8115733.297 5
  22997903.581     2692507.001 6   2098065.234 5
  24860831.604    -2236036.308 4  -1742364.225 3
  22174831.185    -4940887.716 8  -3850019.546 8
  22533108.355   -13405846.305 8 -10446097.812 6
 92  4 13  6 35  0.0040000  0  5 16 20 23  3 17
  23659459.196   -10325658.574 7  -8045951.741 5
  23016785.411     2791682.182 7   2175344.573 6
  24843713.154    -2325977.445 4  -1812448.188 2
  22169807.263    -4967273.900 8  -3870580.210 8
  22526883.164   -13438554.560 8 -10471584.747 6
 92  4 13  6 35 30.0040000  0  5 16 20 23  3 17
  23676568.951   -10235730.149 6  -7975877.657 4
  23035725.401     2891229.710 7   2252914.034 6
  24826628.884    -2415745.436 4  -1882397.195 3
  22164823.512    -4993461.519 8  -3890986.140 7
  22520720.031   -13470963.154 7 -10496838.200 7
 92  4 13  6 36  0.0040000  0  5 16 20 23  3 17
  23693756.652   -10145434.035 7  -7905517.062 4
  23054735.538     2991146.058 7   2330770.868 6
  24809590.780    -2505324.795 5  -1952199.176 2
  22159878.137    -5019449.994 8  -3911236.899 8
  22514609.959   -13503077.297 7 -10521862.161 6
 92  4 13  6 36 30.0040000  0  5 16 20 23  3 17
  23710999.815   -10054780.757 7  -7834878.171 5
  23073821.225     3091430.299 7   2408914.388 6
  24792577.856    -2594707.151 5  -2021847.713 3
  22154968.436    -5045235.651 8  -3931329.604 8
  22508548.757   -13534909.438 7 -10546666.406 6
 92  4 13  6 37  0.0040000  0  5 16 20 23  3 17
  23728322.724    -9963773.191 7  -7763963.197 4
  23092969.571     3192078.121 7   2487341.228 6
  24775612.300    -2683903.951 4  -2091351.632 1
  22150102.805    -5070817.884 8  -3951263.782 8
  22502544.512   -13566469.473 7 -10571258.619 5
 92  4 13  6 37 30.0040000  0  5 16 20 23  3 17
  23745707.089    -9872403.710 7  -7692766.211 5
  23112197.957     3293086.379 7   2566048.903 5
  24758661.137    -2772918.139 5  -2160713.229 1
  22145274.347    -5096195.620 8  -3971038.608 9
  22496593.931   -13597752.949 7 -10595635.314 6
 92  4 13  6 38  0.0040000  0  5 16 20 23  3 17
  23763164.606    -9780676.044 7  -7621290.137 6
  23131483.907     3394451.123 7   2645034.368 6
  24741759.135    -2861755.757 5  -2229937.288 3
  22140482.465    -5121368.566 8  -3990653.849 8
  22490687.120   -13628764.229 7 -10619799.914 6
 92  4 13  6 38 30.0040000  0  5 16 20 23  3 17
  23780691.971    -9688580.412 7  -7549527.326 5
  23150840.007     3496171.412 7   2724296.868 6
  24724885.918    -2950424.520 5  -2299029.758 4
  22135732.550    -5146332.791 8  -4010106.476 9
  22484845.066   -13659502.354 7 -10643751.661 6
 92  4 13  6 39  0.0040000  0  5 16 20 23  3 17
  23798284.390    -9596116.096 7  -7477477.229 5
  23170265.359     3598244.343 7   2803834.150 5
  24708056.169    -3038923.450 5  -2367989.904 3
  22131023.413    -5171086.875 8  -4029395.359 8
  22479045.281   -13689948.080 7 -10667475.556 6
 92  4 13  6 39 30.0040000  0  5 16 20 23  3 17
  23815945.162    -9503289.695 7  -7405144.998 6
  23189751.868     3700663.018 6   2883640.848 5
  24691242.910    -3127249.530 5  -2436815.324 2
  22126349.948    -5195632.869 8  -4048522.083 7
  22473307.252   -13720111.347 7 -10690979.357 6
 92  4 13  6 40  0.0040000  0  5 16 20 23  3 17
  23833683.282    -9410096.149 7  -7332526.674 6
  23209310.330     3803429.157 7   2963718.320 6
  24674459.029    -3215395.373 5  -2505500.304 3
  22121719.354    -5219964.743 7  -4067481.964 7
  22467618.390   -13749998.795 8 -10714268.246 6
 92  4 13  6 40 30.0040000  0  5 16 20 23  3 17
  23851485.558    -9316532.539 6  -7259619.970 4
  23228935.944     3906537.869 7   3044062.712 6
  24657728.812    -3303355.613 6  -2574040.695 2
  22117130.431    -5244082.782 8  -4086275.243 8
  22461980.194   -13779614.955 7 -10737345.708 6
 92  4 13  6 41  0.0040000  0  5 16 20 23  3 17
  23869365.182    -9222593.570 7  -7186420.780 4
  23248620.915     4009987.715 7   3124672.912 6
  24641030.371    -3391122.380 5  -2642430.319 2
  22112583.776    -5267983.387 8  -4104899.077 9
  22456400.456   -13808964.731 7 -10760215.624 6
 92  4 13  6 41 30.0040000  0  5 16 20 23  3 17
  23887312.256    -9128276.557 7  -7112927.014 3
  23268367.045     4113772.340 6   3205543.968 6
  24624360.710    -3478697.299 5  -2710670.394 3
  22108078.196    -5291668.678 8  -4123355.132 9
  22450857.294   -13838067.922 7 -10782893.348 5
 92  4 13  6 42  0.0040000  0  5 16 20 23  3 17
  23905334.282    -9033583.191 7  -7039139.988 4
  23288183.927     4217890.424 6   3286674.900 6
  24607734.221    -3566075.481 5  -2778757.211 3
  22103611.289    -5315135.290 8  -4141640.786 9
  22445373.489   -13866909.032 8 -10805366.886 5
 92  4 13  6 42 30.0040000  0  5 16 20 23  3 17
  23923420.761    -8938531.131 7  -6965073.427 4
  23308052.369     4322339.094 6   3368063.419 5
  24591146.105    -3653258.036 5  -2846691.613 4
  22099185.451    -5338381.446 8  -4159754.661 9
  22439932.258   -13895472.887 7 -10827624.409 6
 92  4 13  6 43  0.0040000  0  5 16 20 23  3 17
  23941574.393    -8843125.532 7  -6890731.432 5
  23327996.363     4427113.261 6   3449705.598 5
  24574594.561    -3740242.291 5  -2914471.474 1
  22094804.587    -5361407.350 8  -4177696.923 9
  22434555.781   -13923749.892 8 -10849658.408 6
 92  4 13  6 43 30.0040000  0  5 16 20 23  3 17
  23959794.278    -8747381.721 7  -6816125.881 6
  23347996.119     4532213.589 6   3531601.903 6
  24558081.093    -3827014.389 5  -2982086.015 3
  22090462.990    -5384207.772 8  -4195463.477 9
  22429231.165   -13951731.870 8 -10871462.497 5
 92  4 13  6 44  0.0040000  0  5 16 20 23  3 17
  23978078.922    -8651313.823 7  -6741267.818 5
  23368057.630     4637634.068 7   3613747.649 5
  24541604.200    -3913577.409 5  -3049537.633 4
  22086172.060    -5406783.691 8  -4213055.091 9
  22423963.512   -13979413.122 8 -10893032.257 6
 92  4 13  6 44 30.0040000  0  5 16 20 23  3 17
  23996416.928    -8554918.187 7  -6666154.348 6
  23388176.401     4743373.855 6   3696142.258 5
  24525174.074    -3999935.014 5  -3116829.215 4
  22081918.308    -5429131.828 8  -4230469.222 9
  22418753.422   -14006800.805 7 -10914373.242 7
 92  4 13  6 45  0.0040000  0  5 16 20 23  3 17
  24014822.986    -8458192.061 7  -6590783.352 5
  23408357.831     4849427.271 6   3778781.225 6
  24508778.124    -4086079.794 5  -3183954.943 2
  22077709.220    -5451253.062 8  -4247706.545 9
  22413588.594   -14033910.390 7 -10935497.531 7
 92  4 13  6 45 30.0040000  0  5 16 20 23  3 17
  24033290.800    -8361147.908 7  -6515164.572 6
  23428598.919     4955793.998 6   3861664.343 5
  24492433.443    -4172019.127 5  -3250920.561 2
  22073543.303    -5473143.025 8  -4264763.660 9
  22408485.827   -14060746.593 7 -10956408.807 8
 92  4 13  6 46  0.0040000  0  5 16 20 23  3 17
  24051819.773    -8263782.055 7  -6439295.073 4
  23448898.164     5062472.063 6   3944790.045 5
  24476104.646    -4257763.200 5  -3317734.030 4
  22069421.156    -5494798.896 8  -4281638.357 9
  22403430.128   -14087305.806 7 -10977104.265 7
 92  4 13  6 46 30.0040000  0  5 16 20 23  3 17
  24070407.802    -8166091.947 7  -6363172.914 5
  23469258.271     5169457.826 6   4028155.548 4
  24459833.108    -4343309.877 5  -3384393.714 2
  22065346.979    -5516219.411 8  -4298329.645 9
  22398427.190   -14113595.243 7 -10997589.494 8
 92  4 13  6 47  0.0040000  0  5 16 20 23  3 17
  24089057.591    -8068098.846 7  -6286814.664 5
  23489675.937     5276743.811 6   4111754.976 5
  24443597.547    -4428648.482 5  -3450891.234 4
  22061316.267    -5537407.685 8  -4314839.977 9
  22393476.419   -14139613.121 7 -11017863.118 8
 92  4 13  6 47 30.0040000  0  5 16 20 23  3 17
  24107763.744    -7969799.210 7  -6210217.549 4
  23510145.165     5384332.282 6   4195590.111 5
  24427391.369    -4513778.005 5  -3517225.823 5
  22057324.534    -5558356.147 8  -4331163.449 9
  22388582.606   -14165340.987 7 -11037910.745 8
 92  4 13  6 48  0.0040000  0  5 16 20 23  3 17
  24126529.251    -7871175.674 7  -6133368.044 5
  23530678.849     5492218.869 6   4279657.504 6
  24411237.052    -4598689.648 5  -3583390.682 4
  22053382.861    -5579064.394 8  -4347299.751 8
  22383737.959   -14190784.175 7 -11057736.552 8
 92  4 13  6 48 30.0040000  0  5 16 20 23  3 17
  24145358.917    -7772224.432 7  -6056263.185 5
  23551263.200     5600402.184 6   4363956.113 5
  24395111.816    -4683372.929 5  -3649377.591 4
  22049491.855    -5599529.179 8  -4363246.353 9
  22378948.777   -14215946.107 6 -11077343.213 7
 92  4 13  6 49  0.0040000  0  5 16 20 23  3 17
  24164249.737    -7672955.947 7  -5978911.181 5
  23571908.108     5708878.310 6   4448482.952 4
  24379048.036    -4767822.647 5  -3715182.485 4
  22045645.217    -5619749.360 9  -4379002.354 9
  22374216.553   -14240823.957 7 -11096728.512 7
 92  4 13  6 49 30.0040000  0  5 16 20 23  3 17
  24183201.420    -7573354.853 7  -5901299.919 3
  23592606.077     5817644.440 6   4533235.738 5
  24363024.727    -4852045.932 5  -3780810.928 4
  22041841.449    -5639723.192 8  -4394566.375 9
  22369538.590   -14265429.349 7 -11115901.493 7
 92  4 13  6 50  0.0040000  0  5 16 20 23  3 17
  24202221.450    -7473431.488 7  -5823437.556 4
  23613351.415     5926697.535 6   4618212.140 5
  24347041.593    -4936037.556 5  -3846258.875 4
  22038089.246    -5659449.121 8  -4409937.240 9
  22364900.501   -14289774.823 6 -11134871.951 7
 92  4 13  6 50 30.0040000  0  5 16 20 23  3 17
  24221290.049    -7373209.488 7  -5745342.519 3
  23634162.108     6036033.089 6   4703408.622 4
  24331107.624    -5019789.007 5  -3911519.664 4
  22034382.013    -5678926.607 7  -4425114.512 9
  22360322.672   -14313856.148 7 -11153636.570 7
 92  4 13  6 51  0.0040000  0  5 16 20 23  3 17
  24240417.407    -7272697.577 7  -5667021.554 4
  23655012.977     6145650.359 6   4788824.644 5
  24315209.630    -5103300.713 5  -3976593.644 4
  22030723.649    -5698151.704 7  -4440095.088 7
  22355791.309   -14337661.223 7 -11172185.946 7
 92  4 13  6 51 30.0040000  0  5 16 20 23  3 17
  24259596.331    -7171900.386 7  -5588478.285 4
  23675935.491     6255542.853 6   4874455.116 5
  24299362.603    -5186575.395 5  -4041482.929 3
  22027114.146    -5717126.072 7  -4454880.301 8
  22351311.210   -14361196.846 7 -11190525.348 7
 92  4 13  6 52  0.0040000  0  5 16 20 23  3 17
  24278831.614    -7070824.792 7  -5509718.110 3
  23696900.279     6365709.817 7   4960299.456 5
  24283561.142    -5269604.030 5  -4106180.531 4
  22023552.011    -5735845.333 7  -4469466.743 9
  22346887.771   -14384443.733 7 -11208639.803 7
 92  4 13  6 52 30.0040000  0  5 16 20 23  3 17
  24298122.961    -6969461.177 7  -5430733.507 4
  23717917.827     6476147.653 7   5046354.838 5
  24267802.549    -5352388.780 5  -4170688.062 3
  22020036.346    -5754308.095 7  -4483853.311 9
  22342519.794   -14407384.681 7 -11226515.852 6
 92  4 13  6 53  0.0040000  0  5 16 20 23  3 17
  24317468.268    -6867799.698 7  -5351516.785 4
  23738974.948     6586853.168 6   5132618.815 4
  24252103.316    -5434939.662 6  -4235013.319 4
  22016574.044    -5772513.197 8  -4498039.088 9
  22338210.280   -14430025.906 7 -11244158.340 7
 92  4 13  6 53 30.0040000  0  5 16 20 23  3 17
  24336873.233    -6765827.932 6  -5272058.294 4
  23760089.934     6697822.695 6   5219088.548 4
  24236440.062    -5517246.516 6  -4299148.424 3
  22013159.708    -5790458.662 8  -4512022.546 9
  22333958.321   -14452381.081 7 -11261577.929 7
 92  4 13  6 54  0.0040000  0  5 16 20 23  3 17
  24356333.659    -6663540.838 6  -5192354.097 5
  23781263.976     6809052.970 6   5305761.430 3
  24220817.877    -5599308.964 6  -4363093.114 5
  22009794.538    -5808143.358 8  -4525802.810 9
  22329757.931   -14474457.512 7 -11278780.286 7
 92  4 13  6 54 30.0040000  0  5 16 20 23  3 17
  24375857.944    -6560949.569 7  -5112412.884 4
  23802477.887     6920539.286 6   5392633.837 5
  24205250.852    -5681127.660 5  -4426847.880 3
  22006479.433    -5825567.230 9  -4539379.854 9
  22325603.706   -14496281.611 7 -11295786.047 8
 92  4 13  6 55  0.0040000  0  5 16 20 23  3 17
  24395439.789    -6458061.831 7  -5032240.618 5
  23823740.070     7032282.201 6   5479706.164 5
  24189725.803    -5762685.523 5  -4490399.379 4
  22003211.993    -5842724.755 8  -4552749.348 9
  22321496.248   -14517881.040 7 -11312616.750 8
 92  4 13  6 55 30.0040000  0  5 16 20 23  3 17
  24415069.901    -6354884.540 6  -4951842.759 4
  23845054.411     7144277.570 6   5566975.243 5
  24174260.709    -5843976.253 5  -4553742.744 5
  21999998.819    -5859615.261 8  -4565910.777 9
  22317428.065   -14539253.191 7 -11329270.349 8
 92  4 13  6 56  0.0040000  0  5 16 20 23  3 17
  24434757.568    -6251440.361 6  -4871236.919 3
  23866412.527     7256521.723 6   5654438.171 5
  24158844.480    -5925009.991 5  -4616885.841 4
  21996836.308    -5876237.537 8  -4578863.210 8
  22313405.153   -14560385.715 8 -11345737.223 8
 92  4 13  6 56 30.0040000  0  5 16 20 23  3 17
  24454494.406    -6147731.391 6  -4790424.758 2
  23887824.603     7369012.143 6   5742092.989 5
  24143469.922    -6005793.438 5  -4679833.887 6
  21993722.661    -5892589.177 8  -4591604.755 9
  22309434.400   -14581265.896 8 -11362007.471 9
 92  4 13  6 57  0.0040000  0  5 16 20 23  3 17
  24474282.508    -6043747.829 6  -4709398.596 4
  23909278.053     7481744.321 6   5829936.185 5
  24128136.141    -6086331.002 6  -4742590.329 4
  21990663.581    -5908669.666 8  -4604134.981 9
  22305512.516   -14601867.247 8 -11378060.429 8
 92  4 13  6 57 30.0040000  0  5 16 20 23  3 17
  24494117.677    -5939488.399 6  -4628157.498 3
  23930767.176     7594713.996 6   5917964.456 5
  24112863.811    -6166639.867 6  -4805168.593 4
  21987656.961    -5924477.827 8  -4616453.020 9
  22301648.789   -14622164.753 8 -11393876.628 9
 92  4 13  6 58  0.0040000  0  5 16 20 23  3 17
  24514013.102    -5834949.461 6  -4546698.563 1
  23952319.255     7707921.340 6   6006177.928 4
  24097616.369    -6246725.180 5  -4867572.647 5
  21984700.109    -5940009.462 8  -4628555.585 9
  22297843.524   -14642163.370 8 -11409459.943 8
 92  4 13  6 58 30.0040000  0  5 16 20 23  3 17
  24533957.994    -5730123.128 6  -4465015.720 3
  23973901.314     7821360.094 6   6094571.703 4
  24082428.580    -6326568.391 5  -4929788.061 5
  21981797.518    -5955265.220 8  -4640443.180 9
  22294094.921   -14661870.340 8 -11424815.990 8
 92  4 13  6 59  0.0040000  0  5 16 20 23  3 17
  24553958.950    -5625023.345 6  -4383119.807 5
  23995526.544     7935030.516 6   6183146.002 4
  24067284.867    -6406148.313 5  -4991798.304 4
  21978948.290    -5970239.883 8  -4652111.750 9
  22290398.777   -14681291.525 8 -11439949.359 8
 92  4 13  6 59 30.0040000  0  5 16 20 23  3 17
  24574012.064    -5519669.645 6  -4301026.072 4
  24017210.830     8048928.156 6   6271897.351 4
  24052191.816    -6485459.266 5  -5053598.994 6
  21976150.929    -5984933.667 8  -4663561.435 8
  22286750.905   -14700451.227 8 -11454878.964 8
 92  4 13  7  0  0.0040000  0  5 16 20 23  3 17
  24594106.853    -5414074.648 6  -4218744.278 3
  24038921.200     8163050.044 6   6360823.433 5
  24037154.226    -6564474.064 6  -5115168.891 4
  21973410.826    -5999343.885 8  -4674790.177 8
  22283157.892   -14719347.715 7 -11469603.480 9
 92  4 13  7  0 30.0040000  0  5 16 20 23  3 17
  24614238.218    -5308252.560 6  -4136285.514 3
  24060679.837     8277393.160 5   6449921.920 5
  24022180.491    -6643176.836 6  -5176495.657 3
  21970720.486    -6013468.692 8  -4685796.527 9
  22279612.545   -14737970.166 7 -11484114.459 8
 92  4 13  7  1  0.0040000  0  5 16 20 23  3 17
  24634418.745    -5202211.314 6  -4053656.007 3
  24082472.350     8391952.175 5   6539188.679 5
  24007250.826    -6721585.485 6  -5237593.220 5
  21968087.109    -6027308.594 8  -4696580.877 8
  22276122.663   -14756315.377 7 -11498409.378 9
 92  4 13  7  1 30.0040000  0  5 16 20 23  3 17
  24654646.344    -5095936.143 6  -3970844.211 3
  24104323.325     8506726.849 6   6628623.444 4
  23992390.413    -6799711.400 6  -5298470.486 3
  21965508.595    -6040858.628 8  -4707139.344 8
  22272687.339   -14774368.609 7 -11512476.808 7
 92  4 13  7  2  0.0040000  0  5 16 20 23  3 17
  24674912.316    -4989419.378 6  -3887844.161 4
  24126203.376     8621715.977 6   6718225.291 4
  23977575.269    -6877554.864 6  -5359127.661 3
  21962982.842    -6054115.219 8  -4717469.160 8
  22269310.176   -14792118.779 7 -11526308.090 9
 92  4 13  7  2 30.0040000  0  5 16 20 23  3 17
  24695229.247    -4882659.544 6  -3804654.711 3
  24148127.197     8736911.010 6   6807987.598 4
  23962811.692    -6955142.614 6  -5419585.587 4
  21960520.049    -6067081.940 7  -4727573.088 8
  22265988.776   -14809589.880 7 -11539921.905 8
 92  4 13  7  3  0.0040000  0  5 16 20 23  3 17
  24715585.157    -4775645.182 6  -3721266.924 5
  24170086.098     8852313.698 6   6897911.738 4
  23948093.982    -7032477.305 6  -5479846.314 4
  21958109.118    -6079751.960 7  -4737445.816 8
  22262712.942   -14826788.988 7 -11553323.791 7
 92  4 13  7  3 30.0040000  0  5 16 20 23  3 17
  24736008.516    -4668380.563 6  -3637684.096 3
  24192083.070     8967920.035 6   6987994.539 3
  23933428.134    -7109547.390 6  -5539900.890 5
  21955754.246    -6092124.567 8  -4747086.812 9
  22259487.479   -14843733.850 7 -11566527.561 8
 92  4 13  7  4  0.0040000  0  5 16 20 23  3 17
  24756460.660    -4560871.783 6  -3553911.018 4
  24214122.913     9083724.349 6   7078231.592 4
  23918814.750    -7186347.465 6  -5599745.051 5
  21953456.637    -6104200.461 8  -4756496.587 9
  22256307.578   -14860439.190 7 -11579544.697 8
 92  4 13  7  4 30.0040000  0  5 16 20 23  3 17
  24776964.064    -4453112.746 6  -3469942.951 4
  24236195.131     9199725.636 6   7168622.155 3
  23904245.437    -7262870.977 6  -5659373.704 4
  21951216.291    -6115975.708 8  -4765672.079 9
  22253175.347   -14876900.585 7 -11592371.730 9
 92  4 13  7  5  0.0040000  0  5 16 20 23  3 17
  24797520.835    -4345105.812 6  -3385781.791 3
  24258303.025     9315919.457 5   7259162.764 3
  23889748.071    -7339108.871 6  -5718779.793 5
  21949031.100    -6127449.364 8  -4774612.568 9
  22250090.484   -14893113.895 7 -11605005.453 9
 92  4 13  7  5 30.0040000  0  5 16 20 23  3 17
  24818113.279    -4236857.180 6  -3301432.234 3
  24280451.095     9432304.238 6   7349852.190 3
  23875302.274    -7415059.014 6  -5777961.666 5
  21946905.572    -6138618.313 8  -4783315.650 9
  22247046.390   -14909069.743 7 -11617438.555 9
 92  4 13  7  6  0.0040000  0  5 16 20 23  3 17
  24838761.781    -4128381.209 6  -3216905.546 3
  24302631.238     9548876.329 5   7440687.509 4
  23860904.139    -7490725.408 6  -5836922.441 5
  21944839.405    -6149481.207 8  -4791780.246 9
  22244067.651   -14924754.563 7 -11629660.490 9
 92  4 13  7  6 30.0040000  0  5 16 20 23  3 17
  24859443.565    -4019686.975 6  -3132208.757 3
  24324846.761     9665633.135 6   7531666.809 4
  23846559.371    -7566090.697 6  -5895648.584 5
  21942832.591    -6160035.275 8  -4800004.199 9
  22241135.081   -14940170.532 7 -11641672.924 8
 92  4 13  7  7  0.0040000  0  5 16 20 23  3 17
  24880162.523    -3910792.201 6  -3047355.755 4
  24347103.353     9782570.531 5   7622786.840 2
  23832268.266    -7641154.297 6  -5954139.631 4
  21940880.343    -6170280.112 7  -4807987.186 9
  22238247.480   -14955324.475 7 -11653481.182 8
 92  4 13  7  7 30.0040000  0  5 16 20 23  3 17
  24900919.251    -3801711.355 6  -2962357.729 2
  24369386.924     9899685.838 6   7714045.477 3
  23818045.811    -7715918.848 6  -6012397.667 5
  21938993.150    -6180213.266 7  -4815727.283 9
  22235415.641   -14970214.540 7 -11665083.824 7
 92  4 13  7  8  0.0040000  0  5 16 20 23  3 17
  24921714.654    -3692438.509 6  -2877210.050
  24391712.767    10016976.254 6   7805440.504 4
  23803872.220    -7790377.865 6  -6070417.639 5
  21937162.618    -6189832.477 7  -4823222.759 9
  22232629.072   -14984859.326 7 -11676495.300 8
 92  4 13  7  8 30.0040000  0  5 16 20 23  3 17
  24942556.527    -3582962.294 6  -2791903.953 1
  24414061.396    10134437.034 5   7896968.361 4
  23789764.291    -7864536.209 6  -6128203.294 2
  21935389.048    -6199137.896 8  -4830473.742 9
  22229888.367   -14999266.685 7 -11687721.797 9
 92  4 13  7  9  0.0040000  0  5 16 20 23  3 17
  24963416.687    -3473290.277 5  -2706445.285 2
  24436443.002    10252066.882 5   7988627.994 3
  23775701.623    -7938412.141 6  -6185768.863 2
  21933680.231    -6208125.261 8  -4837476.900 9
  22227196.231   -15013419.705 7 -11698750.113 9
 92  4 13  7  9 30.0040000  0  5 16 20 23  3 17
  24984333.207    -3363410.803 6  -2620824.919 2
  24458866.580    10369862.092 6   8080416.401 4
  23761698.019    -8011997.948 6  -6243108.389 3
  21932030.470    -6216793.471 8  -4844231.366 8
  22224555.062   -15027311.110 7 -11709574.564 9
 92  4 13  7 10  0.0040000  0  5 16 20 23  3 17
  25005285.400    -3253308.633 6  -2535031.022 2
  24481314.740    10487820.781 6   8172332.232 3
  23747752.573    -8085273.741 6  -6300206.348 5
  21930439.773    -6225139.600 7  -4850734.844 9
  22221957.959   -15040933.130 7 -11720189.124 9
 92  4 13  7 10 30.0040000  0  5 16 20 23  3 17
  25026272.672    -3142990.880 6  -2449069.173 2
  24503785.085    10605939.236 6   8264372.502 3
  23733872.783    -8158228.452 6  -6357054.113 5
  21928913.228    -6233162.629 7  -4856986.559 8
  22219425.910   -15054261.811 7 -11730575.092 9
 92  4 13  7 11  0.0040000  0  5 16 20 23  3 17
  25047309.407    -3032454.422 6  -2362936.963 1
  24526295.900    10724216.593 6   8356536.638 3
  23720056.547    -8230848.281 6  -6413640.917 3
  21927450.241    -6240857.970 8  -4862982.914 9
  22216944.228   -15067296.708 7 -11740732.148 9
 92  4 13  7 11 30.0040000  0  5 16 20 23  3 17
  25068390.514    -2921686.964 6  -2276624.674 1
  24548838.493    10842645.609 6   8448818.972 2
  23706302.068    -8303128.300 6  -6469962.952 5
  21926048.714    -6248227.897 8  -4868725.710 9
  22214517.710   -15080062.794 7 -11750679.757 9
 92  4 13  7 12  0.0040000  0  5 16 20 23  3 17
  25089506.695    -2810701.613 6  -2190142.539 2
  24571393.977    10961223.754 5   8541217.460 3
  23692609.650    -8375088.799 6  -6526036.018 5
  21924707.739    -6255270.024 8  -4874213.071 9
  22212137.657   -15092563.704 7 -11760420.708 9
 92  4 13  7 12 30.0040000  0  5 16 20 23  3 17
  25110668.744    -2699504.191 6  -2103495.295 2
  24593987.236    11079949.391 5   8633730.949 1
  23678964.596    -8446749.265 6  -6581875.276 4
  21923432.425    -6261981.174 8  -4879442.532 9
  22209805.872   -15104802.853 7 -11769957.685 9
 92  4 13  7 13  0.0040000  0  5 16 20 23  3 17
  25131873.664    -2588103.697 5  -2016689.789 2
  24616613.472    11198820.663 6   8726357.855 4
  23665388.191    -8518123.637 6  -6637491.576 5
  21922219.464    -6268358.275 8  -4884411.708 9
  22207526.249   -15116788.740 7 -11779297.321 9
 92  4 13  7 13 30.0040000  0  5 16 20 23  3 17
  25153099.271    -2476519.856 5  -1929741.225 1
  24639258.895    11317833.592 6   8819095.125 4
  23651864.853    -8589219.524 6  -6692890.862 4
  21921067.960    -6274400.237 8  -4889119.737 9
  22205293.097   -15128516.658 7 -11788435.929 9
 92  4 13  7 14  0.0040000  0  5 16 20 23  3 17
  25174356.655    -2364766.996 5  -1842661.183 2
  24661934.000    11436983.674 6   8911939.309 3
  23638380.188    -8660025.931 6  -6748064.609 5
  21919985.108    -6280106.511 8  -4893566.178 8
  22203114.503   -15139979.935 7 -11797368.331 9
 92  4 13  7 14 30.0040000  0  5 16 20 23  3 17
  25195660.806    -2252839.621 4  -1755445.119 2
  24684633.086    11556271.211 6   9004890.584 4
  23624970.176    -8730515.176 6  -6802991.218 4
  21918960.418    -6285471.579 8  -4897746.746 8
  22200983.879   -15151183.895 7 -11806098.666 9
 92  4 13  7 15  0.0040000  0  5 16 20 23  3 17
  25216986.543    -2140748.962 3  -1668101.846 2
  24707353.754    11675692.794 6   9097946.348 3
  23611614.721    -8800676.159 6  -6857662.047 4
  21918006.179    -6290494.282 8  -4901660.535 8
  22198899.123   -15162129.848 7 -11814627.949 9
 92  4 13  7 15 30.0040000  0  5 16 20 23  3 17
  25238369.839    -2028488.406 3  -1580626.025 2
  24730105.304    11795244.468 6   9191103.472 3
  23598327.619    -8870508.725 6  -6912076.976 7
  21917114.896    -6295173.446 8  -4905306.644 9
  22196865.929   -15172823.880 7 -11822960.935 9
 92  4 13  7 16  0.0040000  0  5 16 20 23  3 17
  25259758.235    -1916046.083 4  -1493008.678 2
  24752877.542    11914920.925 6   9284357.801 3
  23585106.471    -8940005.779 6  -6966230.455 5
  21916290.469    -6299509.511 8  -4908685.389 8
  22194875.609   -15183269.294 7 -11831100.191 9
 92  4 13  7 16 30.0040000  0  5 16 20 23  3 17
  25281193.694    -1803422.729 4  -1405250.297 3
  24775680.352    12034719.698 6   9377707.413 2
  23571942.585    -9009179.431 6  -7020131.941 6
  21915528.994    -6303500.460 7  -4911795.206 8
  22192933.553   -15193457.802 7 -11839039.264 9
 92  4 13  7 17  0.0040000  0  5 16 20 23  3 17
  25302664.529    -1690623.072 5  -1317354.386 1
  24798499.055    12154638.266 6   9471150.409 2
  23558836.259    -9078036.217 6  -7073786.521 5
  21914839.174    -6307143.339 8  -4914633.807 9
  22191049.357   -15203384.789 7 -11846774.568 9
 92  4 13  7 17 30.0040000  0  5 16 20 23  3 17
  25324145.259    -1577648.436 5  -1229322.213 1
  24821333.947    12274674.825 5   9564685.340 3
  23545796.186    -9146560.090 6  -7127181.700 6
  21914213.204    -6310435.220 8  -4917198.900 9
  22189206.234   -15213048.465 7 -11854304.686 9
 92  4 13  7 18  0.0040000  0  5 16 20 23  3 17
  25345684.150    -1464511.068 5  -1141163.293 3
  24844202.118    12394825.451 6   9658309.160 4
  23532828.362    -9214734.155 6  -7180304.289 5
  21913651.395    -6313375.244 8  -4919489.815 9
  22187423.367   -15222446.944 7 -11861628.165 9
 92  4 13  7 18 30.0040000  0  5 16 20 23  3 17
  25367232.931    -1351224.833 5  -1052888.347 2
  24867089.173    12515085.942 5   9752018.549 2
  23519920.798    -9282556.393 6  -7233152.709 4
  21913159.735    -6315962.456 8  -4921505.819 9
  22185677.975   -15231591.012 7 -11868753.399 9
 92  4 13  7 19  0.0040000  0  5 16 20 23  3 17
  25388820.983    -1237798.248 5   -964503.951 3
  24889989.120    12635455.045 5   9845812.640 2
  23507085.483    -9350003.581 7  -7285708.878 5
  21912733.731    -6318193.091 8  -4923243.978 9
  22183988.645   -15240485.209 7 -11875683.917 9
 92  4 13  7 19 30.0040000  0  5 16 20 23  3 17
  25410433.623    -1124227.214 5   -876007.113 2
  24912914.850    12755930.099 5   9939689.293 2
  23494323.017    -9417073.247 6  -7337970.892 6
  21912377.276    -6320065.335 8  -4924702.862 9
  22182346.680   -15249128.110 7 -11882418.618 9
 92  4 13  7 20  0.0040000  0  5 16 20 23  3 17
  25432071.444    -1010509.481 5   -787395.963 3
  24935861.563    12876506.516 5  10033644.923 2
  23481631.007    -9483783.602 7  -7389952.936 6
  21912093.971    -6321578.493 8  -4925881.962 9
  22180744.589   -15257521.416 7 -11888958.840 9
 92  4 13  7 20 30.0040000  0  5 16 20 23  3 17
  25453738.642     -896642.168 5   -698668.252 3
  24958827.463    12997178.789 5  10127675.163 4
  23469001.949    -9550149.242 7  -7441666.366 6
  21911872.127    -6322733.220 8  -4926781.759 8
  22179196.161   -15265662.044 7 -11895302.176 9
 92  4 13  7 21  0.0040000  0  5 16 20 23  3 17
  25475432.526     -782618.053 5   -609818.194 3
  24981805.657    13117946.636 6  10221779.956 3
  23456431.348    -9616185.149 7  -7493122.869 6
  21911720.432    -6323524.817 8  -4927398.598 9
  22177699.299   -15273535.516 8 -11901437.355 9
 92  4 13  7 21 30.0040000  0  5 16 20 23  3 17
  25497162.383     -668437.662 5   -520846.499 2
  25004802.435    13238806.187 5  10315956.220 2
  23443926.706    -9681914.453 7  -7544340.444 5
  21911637.988    -6323952.132 8  -4927731.574 9
  22176250.403   -15281145.497 8 -11907367.199 9
 92  4 13  7 22  0.0040000  0  5 16 20 23  3 17
  25518912.326     -554104.313 5   -431755.628 4
  25027823.500    13359756.164 6  10410202.863 3
  23431470.029    -9747339.203 6  -7595320.728 6
  21911627.496    -6324011.743 8  -4927778.076 9
  22174853.369   -15288489.978 8 -11913090.169 9
 92  4 13  7 22 30.0050000  0  5 16 20 23  3 17
  25540710.836     -439611.843 5   -342540.656 4
  25050855.652    13480799.600 6  10504522.374 3
  23419080.208    -9812460.121 7  -7646064.251 5
  21911685.356    -6323699.711 7  -4927534.894 9
  22173505.500   -15295573.091 8 -11918609.485 9
 92  4 13  7 23  0.0050000  0  5 16 20 23  3 17
  25562515.638     -324976.780 5   -253214.687 2
  25073906.997    13601922.567 5  10598903.840 2
  23406748.243    -9877269.713 6  -7696565.154 6
  21911816.965    -6323017.257 7  -4927003.109 9
  22172204.403   -15302400.995 8 -11923929.924 9
 92  4 13  7 23 30.0050000  0  5 16 20 23  3 17
  25584358.817     -210201.860 5   -163779.707 1
  25096967.033    13723128.606 6  10693350.070 2
  23394482.839    -9941740.815 6  -7746802.312 5
  21912019.327    -6321959.995 7  -4926179.243 8
  22170953.366   -15308973.438 8 -11929051.322 9
 92  4 13  7 24  0.0050000  0  5 16 20 23  3 17
  25606239.767      -95275.678 4    -74226.789 2
  25120048.950    13844412.146 5  10787856.663 3
  23382279.784   -10005859.002 6  -7796764.513 6
  21912291.236    -6320528.800 7  -4925064.026 8
  22169751.199   -15315291.868 8 -11933974.789 9
 92  4 13  7 24 30.0050000  0  5 16 20 23  3 17
  25628133.312       19798.033 4     15441.018 2
  25143148.558    13965768.586 5  10882420.085 4
  23370144.488   -10069604.747 6  -7846436.496 6
  21912634.198    -6318723.174 8  -4923657.058 8
  22168599.096   -15321349.816 8 -11938695.253 9
 92  4 13  7 25  0.0050000  0  5 16 20 23  3 17
  25650059.236      135005.380 4    105212.905 2
  25166252.965    14087199.359 5  10977041.373 2
  23358093.429   -10132948.054 7  -7895794.876 6
  21913050.011    -6316536.764 7  -4921953.364 9
  22167497.660   -15327142.734 8 -11943209.201 9
 92  4 13  7 25 30.0050000  0  5 16 20 23  3 17
  25672002.243      250338.364 3    195082.776 2
  25189376.558    14208697.919 5  11071715.515 2
  23346114.020   -10195896.538 7  -7944845.569 5
  21913536.274    -6313971.623 7  -4919954.533 9
  22166442.092   -15332691.606 8 -11947532.998 9
 92  4 13  7 26  0.0050000  0  4 20 23  3 17
  25212502.848    14330263.675 5  11166442.083 2
  23334209.564   -10258463.937 7  -7993599.322 6
  21914101.085    -6311023.265 8  -4917657.096 9
  22165432.990   -15337999.685 8 -11951669.150 9
 92  4 13  7 26 30.0050000  0  4 20 23  3 17
  25235639.930    14451892.797 5  11261217.910 2
  23322377.653   -10320661.189 7  -8042064.648 6
  21914732.146    -6307691.068 8  -4915060.593 9
  22164467.958   -15343069.420 8 -11955619.592 9
 92  4 13  7 27  0.0050000  0  4 20 23  3 17
  25258803.694    14573584.015 5  11356042.185 1
  23310602.107   -10382512.122 7  -8090260.109 5
  21915442.955    -6303971.080 8  -4912161.904 8
  22163544.898   -15347906.669 8 -11959388.861 9
 92  4 13  7 27 30.0050000  0  4 20 23  3 17
  25281974.651    14695329.817 5  11450908.938 3
  23298897.609   -10444039.886 7  -8138203.765 6
  21916221.815    -6299866.208 8  -4908963.314 8
  22162669.805   -15352504.067 8 -11962971.233 9
 92  4 13  7 28  0.0050000  0  4 20 23  3 17
  25305150.111    14817130.452 5  11545818.456 2
  23287252.472   -10505228.786 6  -8185883.384 6
  21917075.026    -6295371.447 8  -4905460.907 7
  22161849.269   -15356831.512 8 -11966343.271 9
 92  4 13  7 28 30.0050000  0  5 16 20 23  3 17
  25804143.864      112160.17615     87411.342 3
  25328342.654    14938981.516 5  11640767.274 2
  23275674.484   -10566070.632 6  -8233292.597 6
  21918007.081    -6290486.532 8  -4901654.480 8
  22161078.205   -15360878.646 8 -11969496.878 9
 92  4 13  7 29  0.0050000  0  5 16 20 23  3 17
  25826253.857      228352.441 5    177950.733 2
  25351532.497    15060881.994 5  11735754.632 2
  23264164.556   -10626559.087 7  -8280426.410 6
  21919011.686    -6285207.603 8  -4897541.029 8
  22160359.304   -15364647.817 8 -11972433.882 9
 92  4 13  7 29 30.0050000  0  5 16 20 23  3 17
  25848392.931      344684.070 5    268598.749 3
  25374750.226    15182828.707 5  11830777.975 2
  23252725.074   -10686671.012 7  -8327266.847 6
  21920092.736    -6279533.298 7  -4893119.509 8
  22159691.964   -15368149.294 8 -11975162.295 9
 92  4 13  7 30  0.0050000  0  5 16 20 23  3 17
  25870552.090      461134.664 5    359339.440 3
  25397956.860    15304818.176 5  11925834.607 2
  23241358.744   -10746402.176 7  -8373810.573 6
  21921249.336    -6273462.217 8  -4888388.796 8
  22159075.592   -15371387.294 8 -11977685.404 9
 92  4 13  7 30 30.0050000  0  5 16 20 23  3 17
  25892741.826      577694.090 5    450164.931 1
  25421173.987    15426848.476 4  12020923.041 2
  23230064.662   -10805751.525 7  -8420056.765 6
  21922479.384    -6266991.435 8  -4883346.646 8
  22158505.088   -15374382.382 8 -11980019.233 9
 92  4 13  7 31  0.0050000  0  6 16 20 23 21  3 17
  25914928.866      694342.876 5    541060.001 1
  25444396.811    15548914.662 4  12116039.502 2
  23218846.127   -10864711.572 7  -8465999.648 6
  26444768.567      -15094.640 4    -11762.146 2
  21923783.182    -6260121.639 8  -4877993.595 9
  22157980.451   -15377151.414 8 -11982176.912 9
 92  4 13  7 31 30.0050000  0  6 16 20 23 21  3 17
  25937145.589      811058.444 5    632007.142 2
  25467641.517    15671014.775 4  12211182.385 2
  23207699.844   -10923276.073 7  -8511634.283 6
  26427539.496     -105608.058 4    -82291.907 1
  21925173.017    -6252849.767 8  -4872327.210 8
  22157495.684   -15379687.565 8 -11984153.122 9
 92  4 13  7 32  0.0050000  0  6 16 20 23 21  3 17
  25959359.607      927839.018 4    723005.045 2
  25490886.826    15793146.225 5  12306349.683 3
  23196629.408   -10981447.945 7  -8556962.969 6
  26410328.411     -196023.227 4   -152745.053 2
  21926628.510    -6245173.646 8  -4866345.827 9
  22157061.885   -15381983.243 8 -11985941.949 9
 92  4 13  7 32 30.0050000  0  6 16 20 23 21  3 17
  25981608.107     1044695.057 5    814061.678 1
  25514129.735    15915304.474 5  12401537.801 2
  23185633.319   -11039231.323 7  -8601988.929 5
  26393142.508     -286336.418 4   -223118.780 2
  21928167.645    -6237092.874 8  -4860049.126 8
  22156669.757   -15384042.232 8 -11987546.340 9
 92  4 13  7 33  0.0050000  0  6 16 20 23 21  3 17
  26003846.411     1161637.863 4    905185.852 2
  25537374.145    16037488.366 5  12496745.884 3
  23174710.382   -11096637.570 7  -8646720.999 7
  26375980.589     -376551.732 4   -293416.215 1
  21929782.628    -6228604.737 8  -4853434.998 8
  22156328.592   -15385851.402 8 -11988956.069 9
 92  4 13  7 33 30.0050000  0  5 16 20 23  3 17
  26026125.488     1278678.692 5    996386.491 1
  25560638.339    16159695.123 5  12591971.838 2
  23163855.796   -11153678.252 7  -8691168.213 6
  21931472.559    -6219707.377 7  -4846502.008 9
  22156030.599   -15387400.105 8 -11990162.845 9
 92  4 13  7 34  0.0050000  0  6 16 20 23 21  3 17
  26048416.855     1395827.495 4   1087671.276 2
  25583892.041    16281918.297 5  12687210.545 2
  23153066.266   -11210362.457 7  -8735337.662 7
  26341698.123          -0.12814         0.282 2
  21933244.332    -6210401.542 7  -4839250.695 8
  22155786.867   -15388685.062 8 -11991164.101 9
 92  4 13  7 34 30.0050000  0  6 16 20 23 21  3 17
  26070742.999     1513098.409 4   1179051.101 1
  25607149.639    16404159.287 4  12782463.243 2
  23142350.785   -11266691.553 7  -8779230.392 6
  26324596.163      -14972.239 4    -11666.717 1
  21935098.845    -6200681.954 7  -4831676.991 8
  22155593.200   -15389710.744 8 -11991963.343 9
 92  4 13  7 35  0.0050000  0  6 16 20 23 21  3 17
  26093082.035     1630475.559 5   1270513.641 2
  25630424.325    16526413.198 5  12877725.983 3
  23131698.260   -11322657.512 7  -8822840.165 7
  26307505.891     -104765.887 4    -81636.033 2
  21937023.814    -6190548.715 8  -4823780.953 7
  22155446.304   -15390484.086 8 -11992565.939 9
 92  4 13  7 35 30.0050000  0  6 16 20 23 21  3 17
  26115431.563     1747947.122 4   1362049.957 2
  25653690.019    16648677.292 4  12972996.586 3
  23121120.082   -11378254.379 7  -8866162.335 6
  26290433.314     -194452.428 4   -151521.510 1
  21939033.023    -6180000.432 8  -4815561.531 8
  22155345.573   -15391012.457 8 -11992977.665 9
 92  4 13  7 36  0.0050000  0  6 16 20 23 21  3 17
  26137789.785     1865506.709 4   1453654.911 1
  25676955.112    16770951.167 5  13068274.835 3
  23110606.959   -11433470.457 6  -8909187.801 6
  26273382.614     -284027.108 4   -221319.766 2
  21941118.381    -6169032.830 8  -4807015.367 8
  22155285.614   -15391306.025 7 -11993206.411 9
 92  4 13  7 36 30.0050000  0  6 16 20 23 21  3 17
  26160183.082     1983142.946 3   1545319.780 2
  25700220.506    16893231.010 5  13163557.732 2
  23100182.277   -11488296.680 6  -8951909.477 6
  26256375.388     -373498.197 4   -291037.282 3
  21943290.078    -6157644.910 8  -4798141.680 8
  22155272.723   -15391383.043 7 -11993266.453 9
 92  4 13  7 37  0.0050000  0  6 16 20 23 21  3 17
  26182586.872     2100843.154 3   1637034.248 2
  25723490.096    17015513.539 5  13258842.697 2
  23089822.048   -11542729.461 6  -8994324.579 7
  26239363.066     -462857.514 4   -360667.773 2
  21945533.124    -6145835.399 8  -4788939.474 8
  22155300.905   -15391229.177 7 -11993146.521 9
 92  4 13  7 37 30.0050000  0  5 20 23 21  3 17
  25746767.784    17137794.356 5  13354126.294 2
  23079536.170   -11596778.323 7  -9036440.512 6
  26222374.428     -552102.530 4   -430209.200 3
  21947861.014    -6133604.111 8  -4779408.605 9
  22155374.353   -15390845.780 7 -11992847.772 9
 92  4 13  7 38  0.0050000  0  5 20 23 21  3 17
  25770030.477    17260071.368 5  13449407.038 1
  23069325.240   -11650438.968 7  -9078253.953 6
  26205417.266     -641227.000 5   -499656.707 3
  21950266.548    -6120948.879 8  -4769547.377 9
  22155493.372   -15390233.530 8 -11992370.683 9
 92  4 13  7 38 30.0050000  0  5 20 23 21  3 17
  25793292.577    17382342.298 5  13544683.014 3
  23059184.757   -11703721.772 7  -9119772.977 6
  26188470.897     -730235.095 5   -569013.528 2
  21952755.425    -6107867.665 7  -4759354.226 8
  22155654.359   -15389372.634 8 -11991699.848 9
 92  4 13  7 39  0.0050000  0  5 20 23 21  3 17
  25816561.566    17504604.930 5  13639952.503 1
  23049116.527   -11756633.242 7  -9161002.625 6
  26171568.900     -819129.231 5   -638281.570 1
  21955326.143    -6094357.878 8  -4748827.136 7
  22155871.108   -15388246.374 8 -11990822.271 9
 92  4 13  7 39 30.0050000  0  5 20 23 21  3 17
  25839827.561    17626855.800 5  13735212.844 1
  23039120.850   -11809168.120 7  -9201938.844 6
  26154674.694     -907915.986 5   -707465.828 2
  21957981.106    -6080418.195 8  -4737965.060 8
  22156137.625   -15386862.100 8 -11989743.620 9
 92  4 13  7 40  0.0050000  0  5 20 23 21  3 17
  25863098.352    17749092.413 4  13830461.990 2
  23029194.722   -11861312.896 7  -9242571.067 4
  26137796.678     -996597.356 4   -776568.031 1
  21960717.911    -6066047.213 8  -4726766.894 8
  22156448.209   -15385210.949 7 -11988457.002 9
 92  4 13  7 40 30.0050000  0  5 20 23 21  3 17
  25886335.262    17871308.100 4  13925694.888 2
  23019350.434   -11913066.910 7  -9282898.806 5
  26120930.056    -1085177.869 4   -845591.751 1
  21963533.862    -6051247.129 8  -4715234.404 8
  22156813.359   -15383288.620 7 -11986959.076 9
 92  4 13  7 41  0.0050000  0  5 20 23 21  3 17
  25909591.364    17993503.366 4  14020911.935 2
  23009576.000   -11964410.311 7  -9322906.597 6
  26104092.813    -1173637.149 4   -914520.816 1
  21966432.256    -6036012.992 8  -4703363.674 8
  22157227.972   -15381110.766 8 -11985262.034 9
 92  4 13  7 41 30.0050000  0  5 20 23 21  3 17
  25932855.558    18115677.881 5  14116112.798 2
  22999884.010   -12015337.323 7  -9362589.952 7
  26087295.739    -1261958.910 4   -983342.935 2
  21969413.691    -6020340.556 8  -4691151.402 8
  22157689.652   -15378683.787 7 -11983370.872 9
 92  4 13  7 42  0.0050000  0  5 20 23 21  3 17
  25956093.969    18237825.803 5  14211292.862 1
  22990276.264   -12065846.651 7  -9401947.833 6
  26070516.356    -1350138.220 4  -1052053.986 2
  21972477.870    -6004231.641 8  -4678598.995 7
  22158198.998   -15376006.556 7 -11981284.740 9
 92  4 13  7 42 30.0050000  0  5 20 23 21  3 17
  25979332.982    18359944.180 5  14306449.940 2
  22980738.665   -12115945.894 7  -9440986.165 7
  26053764.853    -1438169.824 5  -1120649.957 3
  21975627.787    -5987684.666 8  -4665705.248 8
  22158748.819   -15373091.914 7 -11979013.603 9
 92  4 13  7 43  0.0050000  0  5 20 23 21  3 17
  26002558.201    18482031.905 5  14401583.120 1
  22971287.409   -12165630.954 7  -9479701.752 7
  26037040.630    -1526045.525 5  -1189124.427 3
  21978862.848    -5970696.197 8  -4652467.462 8
  22159353.796   -15369940.248 7 -11976557.743 9
 92  4 13  7 43 30.0050000  0  5 20 23 21  3 17
  26025786.422    18604083.826 4  14496688.362 2
  22961914.399   -12214907.871 7  -9518099.316 6
  26020348.489    -1613781.178 5  -1257489.796 2
  21982175.855    -5953267.246 8  -4638886.470 8
  22159998.652   -15366546.373 7 -11973913.171 9
 92  4 13  7 44  0.0050000  0  5 20 23 21  3 17
  26049008.648    18726096.962 4  14591763.453 2
  22952609.738   -12263778.847 7  -9556180.549 6
  26003682.724    -1701377.214 5  -1325746.300 3
  21985578.800    -5935396.432 8  -4624961.177 7
  22160690.871   -15362913.766 8 -11971082.559 9
 92  4 13  7 44 30.0050000  0  5 20 23 21  3 17
  26072220.679    18848070.088 4  14686807.357 3
  22943383.027   -12312258.168 7  -9593956.592 6
  25987044.242    -1788826.768 5  -1393888.717 2
  21989062.387    -5917080.685 8  -4610689.173 8
  22161425.063   -15359046.129 7 -11968068.831 9
 92  4 13  7 45  0.0050000  0  5 20 23 21  3 17
  26095421.616    18970002.717 4  14781819.666 2
  22934234.262   -12360336.218 7  -9631419.947 6
  25970425.850    -1876137.331 4  -1461922.761 1
  21992634.416    -5898315.921 8  -4596067.302 7
  22162207.221   -15354934.968 7 -11964865.329 9
 92  4 13  7 45 30.0050000  0  4 20 23  3 17
  26118617.759    19091888.502 5  14876795.564 2
  22925163.141   -12408020.364 7  -9668576.377 7
  21996290.385    -5879104.802 8  -4581097.616 8
  22163037.350   -15350584.882 7 -11961475.654 9
 92  4 13  7 46  0.0050000  0  4 20 23  3 17
  26141801.010    19213728.115 4  14971735.385 2
  22916161.870   -12455304.631 7  -9705421.220 7
  22000029.997    -5859442.151 8  -4565776.090 8
  22163908.844   -15345994.358 7 -11957898.600 9
 92  4 13  7 46 30.0050000  0  5 20 23 21  3 17
  26164963.870    19335517.493 4  15066636.109 2
  22907243.046   -12502189.000 7  -9741954.445 6
  25920748.139           2.00714         3.884 2
  22003858.645    -5839327.549 8  -4550102.374 8
  22164831.607   -15341170.296 8 -11954139.601 9
 92  4 13  7 47  0.0050000  0  4 20 23  3 17
  26188143.226    19457251.672 4  15161493.806 2
  22898396.772   -12548669.803 7  -9778173.205 6
  22007773.034    -5818762.115 8  -4534077.382 8
  22165791.841   -15336108.469 7 -11950195.323 9
 92  4 13  7 47 30.0050000  0  4 20 23  3 17
  26211297.697    19578930.978 5  15256308.741 2
  22889623.042   -12594758.160 7  -9814086.168 7
  22011771.965    -5797741.273 8  -4517697.519 8
  22166800.642   -15330806.302 7 -11946063.764 9
 92  4 13  7 48  0.0050000  0  5 20 23 21  3 17
  26234448.570    19700551.857 4  15351078.068 1
  22880929.963   -12640461.141 7  -9849698.848 7
  25871332.150      -83517.981 5    -65076.200 2
  22015859.640    -5776264.461 8  -4500962.333 8
  22167850.818   -15325268.370 7 -11941748.489 9
 92  4 13  7 48 30.0050000  0  5 20 23 21  3 17
  26257564.965    19822112.722 4  15445800.678 2
  22872310.328   -12685774.631 7  -9885008.021 6
  25854917.611     -169770.699 5   -132286.044 2
  22020033.950    -5754329.451 8  -4483870.129 7
  22168954.950   -15319480.490 7 -11937238.453 9
 92  4 13  7 49  0.0050000  0  5 20 23 21  3 17
  26280698.151    19943609.330 4  15540473.254 3
  22863760.550   -12730680.340 7  -9919999.452 7
  25838522.564     -255885.230 5   -199388.208 1
  22024297.596    -5731935.868 7  -4466420.618 8
  22170108.252   -15313426.003 7 -11932520.683 9
 92  4 13  7 49 30.0050000  0  5 20 23 21  3 17
  26303799.557    20065040.632 4  15635094.844 3
  22855298.307   -12775156.903 7  -9954656.480 6
  25822168.286     -341885.402 5   -266401.271 2
  22028644.585    -5709080.655 7  -4448611.362 7
  22171302.026   -15307117.203 7 -11927604.726 9
 92  4 13  7 50  0.0050000  0  5 20 23 21  3 17
  26326893.471    20186402.102 4  15729662.146 2
  22846916.409   -12819192.072 7  -9988969.569 6
  25805825.699     -427774.741 5   -333327.984 1
  22033080.915    -5685764.297 8  -4430442.776 8
  22172557.259   -15300552.537 7 -11922489.402 9
 92  4 13  7 50 30.0050000  0  5 20 23 21  3 17
  26349982.286    20307691.308 4  15824173.024 1
  22838624.449   -12862776.270 7 -10022931.250 7
  25789496.605     -513531.430 4   -400151.332 2
  22037607.484    -5661985.663 8  -4411913.993 8
  22173849.662   -15293739.838 7 -11917180.787 9
 92  4 13  7 51  0.0050000  0  5 20 23 21  3 17
  26373041.724    20428905.120 4  15918625.211
  22830414.632   -12905920.462 7 -10056550.052 6
  25773207.381     -599157.054 5   -466872.590 2
  22042220.388    -5637743.288 8  -4393023.846 7
  22175195.732   -15286699.630 7 -11911694.909 9
 92  4 13  7 51 30.0050000  0  5 20 23 21  3 17
  26396100.258    20550040.411 5  16013016.192 1
  22822280.366   -12948654.583 7 -10089849.325 6
  25756936.746     -684632.802 5   -533476.945 1
  22046920.835    -5613036.271 8  -4373771.653 8
  22176574.177   -15279443.413 7 -11906040.712 9
 92  4 13  7 52  0.0050000  0  5 20 23 21  3 17
  26419133.612    20671095.714 4  16107344.894 2
  22814223.443   -12990997.757 7 -10122843.957 6
  25740698.485     -769931.841 5   -599943.630 2
  22051710.017    -5587862.572 8  -4354155.794 8
  22177993.395   -15271955.518 7 -11900205.979 9
 92  4 13  7 52 30.0050000  0  4 23 21  3 17
  22806239.668   -13032951.607 7 -10155535.237 6
  25724510.891     -855050.136 5   -666269.533 2
  22056591.541    -5562221.136 8  -4334175.471 8
  22179467.773   -15264233.093 7 -11894188.492 9
 92  4 13  7 53  0.0050000  0  4 23 21  3 17
  22798331.142   -13074514.704 7 -10187922.039 6
  25708342.483     -939985.559 5   -732452.968 2
  22061561.799    -5536110.349 8  -4313829.409 7
  22180987.420   -15256259.065 7 -11887974.976 9
 92  4 13  7 53 30.0050000  0  4 23 21  3 17
  22790495.767   -13115678.567 7 -10219997.745 7
  25692220.545    -1024728.397 5   -798486.301 2
  22066620.198    -5509529.924 8  -4293117.405 7
  22182554.136   -15248022.760 7 -11881557.057 9
 92  4 13  7 54  0.0050000  0  4 23 21  3 17
  22782743.434   -13156421.129 7 -10251745.166 7
  25676141.478    -1109282.782 5   -864372.809 1
  22071767.633    -5482475.107 8  -4272035.758 7
  22184169.721   -15239520.822 7 -11874932.196 9
 92  4 13  7 54 30.0050000  0  4 23 21  3 17
  22775071.445   -13196735.179 7 -10283158.674 7
  25660071.403    -1193672.184 5   -930130.784 3
  22077001.708    -5454947.460 8  -4250585.673 7
  22185833.568   -15230772.884 7 -11868115.601 9
 92  4 13  7 55  0.0050000  0  4 23 21  3 17
  22767481.600   -13236623.775 7 -10314240.672 8
  25644047.195    -1277909.656 5   -995770.332 3
  22082334.717    -5426943.817 8  -4228764.654 8
  22187546.281   -15221793.860 7 -11861118.953 9
 92  4 13  7 55 30.0050000  0  4 23 21  3 17
  22759974.198   -13276090.686 7 -10344994.091 7
  25628040.075    -1362009.325 5  -1061302.548 1
  22087754.366    -5398462.704 8  -4206571.594 7
  22189297.668   -15212584.924 7 -11853943.143 9
 92  4 13  7 56  0.0050000  0  4 23 21  3 17
  22752540.845   -13315139.942 7 -10375422.046 7
  25612059.039    -1445984.383 5  -1126737.616 2
  22093263.653    -5369505.420 8  -4184007.475 8
  22191091.328   -15203151.740 7 -11846592.623 9
 92  4 13  7 56 30.0050000  0  4 23 21  3 17
  22745190.530   -13353774.401 7 -10405526.781 7
  25596110.683    -1529827.507 5  -1192069.854 2
  22098865.273    -5340071.131 8  -4161071.691 7
  22192933.250   -15193493.699 8 -11839066.846 9
 92  4 13  7 57  0.0050000  0  4 23 21  3 17
  22737918.466   -13391989.149 7 -10435304.468 7
  25580185.104    -1613519.909 5  -1257284.638 2
  22104557.735    -5310158.096 8  -4137762.843 7
  22194813.250   -15183593.159 7 -11831352.143 9
 92  4 13  7 57 30.0050000  0  4 23 21  3 17
  22730727.646   -13429768.888 7 -10464743.193 8
  25564293.108    -1697039.556 5  -1322364.782 1
  22110340.432    -5279766.288 8  -4114080.941 7
  22196743.314   -15173446.129 7 -11823445.369 9
 92  4 13  7 58  0.0050000  0  4 23 21  3 17
  22723620.765   -13467112.229 7 -10493841.853 8
  25548430.188    -1780361.744 5  -1387291.110 3
  22116215.161    -5248892.443 8  -4090023.425 8
  22198719.245   -15163064.494 8 -11815355.782 9
 92  4 13  7 58 30.0050000  0  4 23 21  3 17
  22716600.826   -13504022.593 7 -10522603.145 8
  25532623.332    -1863469.920 5  -1452050.688 2
  22122182.233    -5217534.287 8  -4065588.512 8
  22200742.546   -15152439.280 7 -11807076.404 9
 92  4 13  7 59  0.0050000  0  4 23 21  3 17
  22709657.332   -13540501.082 7 -10551027.895 7
  25516835.064    -1946362.998 5  -1516642.619 2
  22128241.336    -5185691.938 8  -4040776.297 8
  22202811.112   -15141566.931 7 -11798604.449 9
 92  4 13  7 59 30.0050000  0  4 23 21  3 17
  22702792.683   -13576560.014 7 -10579125.730 8
  25501113.648    -2029042.087 5  -1581067.864 2
  22134395.775    -5153363.992 8  -4015585.716 7
  22204923.452   -15130451.289 7 -11789942.913 9
 92  4 13  8  0  0.0050000  0  4 23 21  3 17
  22696009.282   -13612214.275 7 -10606908.242 7
  25485413.814    -2111523.632 5  -1645339.143 3
  22140640.453    -5120551.743 8  -3990017.760 7
  22207088.252   -15119085.100 7 -11781086.138 9
 92  4 13  8  0 30.0050000  0  4 23 21  3 17
  22689302.024   -13647445.379 7 -10634361.014 7
  25469751.458    -2193820.041 5  -1709466.141 2
  22146978.067    -5087252.925 8  -3964070.651 7
  22209300.420   -15107462.480 7 -11772029.544 9
 92  4 13  8  1  0.0050000  0  4 23 21  3 17
  22682684.705   -13682236.215 7 -10661470.744 8
  25454124.478    -2275948.438 6  -1773462.245 4
  22153405.615    -5053465.302 8  -3937742.701 7
  22211558.758   -15095605.036 7 -11762789.975 9
 92  4 13  8  1 30.0050000  0  4 23 21  3 17
  22676148.028   -13716575.465 7 -10688228.572 7
  25438522.976    -2357915.464 5  -1837332.581 2
  22159925.802    -5019189.359 8  -3911034.221 7
  22213856.066   -15083524.028 7 -11753376.184 9
 92  4 13  8  2  0.0050000  0  4 23 21  3 17
  22669704.889   -13750445.651 7 -10714620.907 8
  25422959.253    -2439714.752 5  -1901072.197 3
  22166541.624    -4984420.201 8  -3883941.421 7
  22216197.148   -15071229.319 7 -11743795.911 9
 92  4 13  8  2 30.0050000  0  4 23 21  3 17
  22663346.592   -13783853.075 7 -10740652.641 8
  25407429.702    -2521344.613 5  -1964679.832 2
  22173256.372    -4949160.420 8  -3856466.282 7
  22218575.399   -15058728.925 7 -11734055.361 9
 92  4 13  8  3  0.0050000  0  4 23 21  3 17
  22657074.932   -13816818.408 7 -10766339.888 7
  25391928.033    -2602794.462 5  -2028147.169 1
  22180060.761    -4913408.907 8  -3828607.985 7
  22220987.830   -15046016.765 7 -11724149.779 9
 92  4 13  8  3 30.0050000  0  4 23 21  3 17
  22650880.623   -13849364.110 7 -10791700.145 8
  25376465.639    -2684035.973 5  -2091452.170 2
  22186955.691    -4877162.599 8  -3800364.135 8
  22223457.520   -15033069.763 7 -11714061.202 9
 92  4 13  8  4  0.0050000  0  4 23 21  3 17
  22644762.459   -13881522.101 7 -10816758.278 8
  25361041.317    -2765067.063 5  -2154593.180 1
  22193944.451    -4840422.880 8  -3771735.819 7
  22225967.084   -15019880.664 7 -11703783.969 9
 92  4 13  8  4 30.0050000  0  4 23 21  3 17
  22638711.147   -13913311.642 7 -10841529.320 8
  25345668.557    -2845880.876 5  -2217564.883 2
  22201029.746    -4803186.830 8  -3742720.747 7
  22228527.310   -15006431.397 7 -11693304.030 9
 92  4 13  8  5  0.0050000  0  4 23 21  3 17
  22632726.987   -13944733.230 7 -10866013.636 7
  25330341.367    -2926470.138 5  -2280361.631 3
  22208209.777    -4765455.418 8  -3713319.692 7
  22231135.804   -14992722.728 7 -11682621.944 9
 92  4 13  8  5 30.0050000  0  4 23 21  3 17
  22626829.774   -13975776.486 7 -10890203.155 7
  25315040.563    -3006842.122 5  -2342989.050 1
  22215488.438    -4727226.479 8  -3683530.946 7
  22233793.167   -14978754.027 7 -11671737.249 9
 92  4 13  8  6  0.0050000  0  4 23 21  3 17
  22620996.410   -14006417.692 7 -10914079.381 7
  25299785.622    -3087015.288 5  -2405461.615 4
  22222856.736    -4688498.576 8  -3653353.388 7
  22236502.391   -14964535.830 7 -11660658.133 9
 92  4 13  8  6 30.0050000  0  4 23 21  3 17
  22615246.991   -14036627.095 7 -10937619.151 7
  25284564.560    -3166992.077 5  -2467781.129 2
  22230320.970    -4649270.592 9  -3622786.170 6
  22239251.787   -14950078.109 7 -11649392.375 9
 92  4 13  8  7  0.0050000  0  4 23 21  3 17
  22609586.310   -14066375.016 7 -10960799.349 8
  25269376.776    -3246784.814 5  -2529957.247 3
  22237879.637    -4609541.376 8  -3591828.391 7
  22242046.753   -14935392.521 7 -11637949.048 9
 92  4 13  8  7 30.0050000  0  4 23 21  3 17
  22604013.466   -14095650.641 7 -10983611.488 7
  25254226.161    -3326406.683 5  -2592000.146 1
  22245540.531    -4569309.532 8  -3560478.931 8
  22244879.792   -14920481.333 8 -11626329.953 9
 92  4 13  8  8  0.0050000  0  4 23 21  3 17
  22598530.563   -14124460.178 7 -11006060.461 7
  25239112.724    -3405849.084 6  -2653903.229 1
  22253287.468    -4528576.942 8  -3528739.274 7
  22247761.996   -14905353.769 7 -11614542.235 9
 92  4 13  8  8 30.0050000  0  4 23 21  3 17
  22593132.801   -14152808.308 7 -11028149.893 7
  25224022.971    -3485094.646 5  -2715652.915 1
  22261133.339    -4487343.029 8  -3496608.974 7
  22250682.574   -14889998.016 7 -11602576.737 9
 92  4 13  8  9  0.0050000  0  4 23 21  3 17
  22587827.071   -14180707.856 7 -11049889.780 8
  25208993.177    -3564134.653 5  -2777242.472 3
  22269077.241    -4445606.091 8  -3464086.717 7
  22253650.816   -14874405.339 8 -11590426.614 9
 92  4 13  8  9 30.0050000  0  4 23 21  3 17
  22582601.992   -14208173.734 7 -11071291.756 8
  25193988.263    -3642949.620 5  -2838656.705 1
  22277114.676    -4403363.080 8  -3431170.146 7
  22256664.630   -14858564.262 8 -11578082.910 9
 92  4 13  8 10  0.0050000  0  4 23 21  3 17
  22577457.550   -14235213.030 7 -11092361.316 8
  25179043.613    -3721537.193 5  -2899893.731 2
  22285249.243    -4360615.926 8  -3397860.723 7
  22259723.715   -14842475.121 8 -11565545.931 9
 92  4 13  8 10 30.0050000  0  4 23 21  3 17
  22572392.257   -14261821.840 7 -11113095.429 7
  25164122.041    -3799908.887 6  -2960962.542 1
  22293481.846    -4317362.607 8  -3364156.876 7
  22262836.458   -14826126.834 7 -11552807.016 9
 92  4 13  8 11  0.0050000  0  4 23 21  3 17
  22567410.905   -14288003.243 7 -11133496.485 8
  25149248.138    -3878081.289 5  -3021876.024 2
  22301807.681    -4273603.824 8  -3330059.147 7
  22265994.773   -14809532.942 7 -11539876.715 9
 92  4 13  8 11 30.0050000  0  4 23 21  3 17
  22562506.600   -14313752.498 7 -11153560.806 7
  25134406.614    -3956065.408 5  -3082642.796 2
  22310230.050    -4229340.624 8  -3295568.366 7
  22269197.455   -14792698.184 7 -11526758.704 9
 92  4 13  8 12  0.0050000  0  4 23 21  3 17
  22557696.731   -14339059.452 7 -11173280.485 8
  25119601.361    -4033860.199 5  -3143262.050 2
  22318751.349    -4184568.556 8  -3260681.086 7
  22272448.706   -14775622.198 7 -11513452.743 9
 92  4 13  8 12 30.0050000  0  4 23 21  3 17
  22552964.808   -14363921.034 7 -11192653.116 7
  25104845.579    -4111445.386 5  -3203717.993 1
  22327368.886    -4139286.695 9  -3225396.549 7
  22275742.526   -14758316.345 7 -11499967.645 9
 92  4 13  8 13  0.0050000  0  4 23 21  3 17
  22548316.825   -14388336.339 7 -11211678.008 7
  25090119.170    -4188804.955 5  -3263998.079 1
  22336083.250    -4093495.321 9  -3189715.007 6
  22279073.816   -14740793.767 7 -11486313.689 9
 92  4 13  8 13 30.0050000  0  4 23 21  3 17
  22543756.380   -14412308.091 7 -11230357.279 7
  25075445.832    -4265930.229 5  -3324095.622 2
  22344892.351    -4047194.439 8  -3153636.442 6
  22282450.682   -14723048.218 7 -11472485.970 9
 92  4 13  8 14  0.0050000  0  4 23 21  3 17
  22539277.481   -14435841.207 7 -11248694.749 8
  25060812.358    -4342811.423 6  -3384003.003 2
  22353799.186    -4000384.410 8  -3117161.133 7
  22285874.912   -14705083.565 8 -11458487.522 9
 92  4 13  8 14 30.0050000  0  4 23 21  3 17
  22534881.924   -14458942.866 7 -11266696.033 8
  25046222.061    -4419460.632 5  -3443729.605 2
  22362803.752    -3953064.374 8  -3080288.415 7
  22289334.217   -14686902.072 7 -11444320.136 9
 92  4 13  8 15  0.0050000  0  4 23 21  3 17
  22530570.612   -14481622.514 7 -11284368.468 7
  25031677.929    -4495899.055 5  -3503291.957 2
  22371906.052    -3905233.200 8  -3043017.408 7
  22292836.092   -14668491.751 7 -11429974.431 9
 92  4 13  8 15 30.0060000  0  4 23 21  3 17
  22526329.444   -14503887.779 7 -11301717.995 8
  25017167.975    -4572134.504 5  -3562696.150 2
  22381108.183    -3856888.643 8  -3005346.376 6
  22296382.337   -14649842.578 7 -11415442.621 9
 92  4 13  8 16  0.0060000  0  4 23 21  3 17
  22522170.726   -14525742.781 7 -11318747.834 8
  25002705.985    -4648153.885 5  -3621931.987 2
  22390404.145    -3808031.671 8  -2967276.042 6
  22299974.748   -14630955.770 7 -11400725.632 9
 92  4 13  8 16 30.0060000  0  4 23 21  3 17
  22518087.253   -14547189.630 7 -11335459.636 8
  24988284.471    -4723959.277 5  -3681001.064 2
  22399800.241    -3758662.841 8  -2928806.843 6
  22303615.430   -14611824.614 7 -11385818.236 9
 92  4 13  8 17  0.0060000  0  4 23 21  3 17
  22514085.024   -14568224.875 7 -11351850.720 8
  24973905.225    -4799529.120 5  -3739886.565 2
  22409292.269    -3708778.054 9  -2889935.627 7
  22307305.872   -14592437.715 7 -11370711.586 9
 92  4 13  8 17 30.0060000  0  4 23 21  3 17
  22510165.836   -14588835.711 7 -11367911.085 7
  24959561.356    -4874859.397 5  -3798585.436 2
  22418881.731    -3658379.186 9  -2850663.818 6
  22311050.283   -14572790.089 7 -11355401.752 9
 92  4 13  8 18  0.0060000  0  4 23 21  3 17
  22506327.294   -14609008.687 7 -11383630.259 7
  24945278.043    -4949950.578 6  -3857097.976 1
  22428571.322    -3607465.947 9  -2810991.202 6
  22314831.562   -14552887.592 7 -11339893.310 9
 92  4 13  8 18 30.0060000  0  4 23 21  3 17
  22502574.193   -14628726.962 7 -11398995.109 8
  24931030.407    -5024814.224 6  -3915433.255 2
  22438358.648    -3556037.602 9  -2770917.224 6
  22318669.205   -14532735.067 7 -11324190.049 9
 92  4 13  8 19  0.0060000  0  4 23 21  3 17
  22498908.028   -14647991.989 7 -11414006.794 8
  24916825.642    -5099467.329 6  -3973604.426 2
  22448241.605    -3504095.662 8  -2730442.990 6
  22322549.423   -14512342.477 7 -11308299.722 9
 92  4 13  8 19 30.0060000  0  4 23 21  3 17
  22495328.810   -14666797.828 7 -11428660.664 7
  24902652.950    -5173910.787 6  -4031612.243 3
  22458224.093    -3451638.275 8  -2689567.174 7
  22326476.402   -14491717.304 8 -11292228.171 9
 92  4 13  8 20  0.0060000  0  4 23 21  3 17
  22491837.126   -14685161.701 7 -11442970.143 7
  24888529.128    -5248124.912 6  -4089441.391 2
  22468304.316    -3398664.713 9  -2648289.119 7
  22330439.360   -14470882.384 8 -11275993.171 9
 92  4 13  8 20 30.0060000  0  4 23 21  3 17
  22488420.988   -14703090.384 7 -11456940.522 7
  24874460.169    -5322105.244 6  -4147088.373 2
  22478480.773    -3345174.689 8  -2606608.629 7
  22334443.988   -14449834.122 8 -11259591.930 9
 92  4 13  8 21  0.0060000  0  4 23 21  3 17
  22485095.993   -14720586.225 7 -11470573.616 7
  24860428.383    -5395834.509 6  -4204539.706 4
  22488760.954    -3291166.987 8  -2564524.736 6
  22338492.683   -14428565.736 8 -11243019.181 9
 92  4 13  8 21 30.0060000  0  4 23 21  3 17
  22481851.339   -14737646.113 7 -11483867.021 7
  24846455.056    -5469289.295 6  -4261777.164 3
  22499139.471    -3236640.354 8  -2522036.460 7
  22342578.556   -14407073.283 7 -11226271.837 9
 92  4 13  8 22  0.0060000  0  4 23 21  3 17
  22478684.033   -14754275.160 7 -11496824.694 8
  24832521.302    -5542486.330 6  -4318813.772 3
  22509610.622    -3181599.082 8  -2479147.206 6
  22346714.493   -14385352.644 8 -11209346.677 9
 92  4 13  8 22 30.0060000  0  4 23 21  3 17
  22475604.864   -14770459.099 7 -11509435.527 8
  24818641.813    -5615433.933 6  -4375655.991 2
  22520180.402    -3126040.899 8  -2435855.160 7
  22350894.200   -14363381.828 7 -11192226.566 9
 92  4 13  8 23  0.0060000  0  4 23 21  3 17
  22472600.342   -14786213.260 7 -11521711.463 8
  24804803.991    -5688125.031 6  -4432298.308 4
  22530852.715    -3069962.108 8  -2392157.432 7
  22355127.566   -14341154.308 7 -11174906.427 9
 92  4 13  8 23 30.0060000  0  4 23 21  3 17
  22469682.460   -14801552.408 7 -11533664.026 9
  24791021.931    -5760575.167 6  -4488752.890 3
  22541623.060    -3013365.757 8  -2348056.417 6
  22359403.209   -14318675.048 7 -11157390.131 9
 92  4 13  8 24  0.0060000  0  4 23 21  3 17
  22466838.031   -14816478.487 7 -11545294.733 9
  24777277.948    -5832795.914 6  -4545028.727 2
  22552494.733    -2956252.340 9  -2303552.503 6
  22363725.017   -14295948.664 7 -11139681.256 9
 92  4 13  8 24 30.0060000  0  4 23 21  3 17
  22464086.834   -14830989.067 7 -11556601.662 8
  24763574.135    -5904782.013 6  -4601121.724 3
  22563461.741    -2898621.076 8  -2258645.068 7
  22368098.989   -14272985.715 7 -11121788.051 9
 92  4 13  8 25  0.0060000  0  4 23 21  3 17
  22461402.493   -14845082.396 6 -11567583.469 8
  24749916.787    -5976546.339 6  -4657041.932 4
  22574526.479    -2840470.272 8  -2213332.790 6
  22372511.333   -14249786.553 7 -11103710.793 9
 92  4 13  8 25 30.0060000  0  4 23 21  3 17
  22458804.492   -14858735.606 7 -11578222.330 8
  24736309.509    -6048097.141 6  -4712795.769 2
  22585690.151    -2781801.471 8  -2167616.885 6
  22376966.247   -14226363.734 7 -11085459.252 9
 92  4 13  8 26  0.0060000  0  4 23 21  3 17
  22456292.834   -14871939.081 7 -11588510.736 8
  24722733.108    -6119426.238 6  -4768376.815 4
  22596954.856    -2722613.363 8  -2121496.323 6
  22381469.729   -14202714.846 7 -11067031.558 9
 92  4 13  8 26 30.0060000  0  4 23 21  3 17
  22453861.517   -14884689.409 7 -11598446.040 8
  24709205.272    -6190523.556 6  -4823777.266 3
  22608316.688    -2662907.462 8  -2074972.275 6
  22386014.586   -14178832.159 7 -11048421.664 9
 92  4 13  8 27  0.0060000  0  4 23 21  3 17
  22451522.835   -14896995.243 7 -11608034.989 7
  24695716.411    -6261376.212 6  -4878987.069 3
  22619778.353    -2602682.530 8  -2028043.784 7
  22390603.509   -14154716.318 7 -11029630.100 9
 92  4 13  8 27 30.0060000  0  4 23 21  3 17
  22449268.694   -14908860.761 7 -11617280.828 8
  24682283.909    -6331964.881 6  -4933991.188 4
  22631333.852    -2541937.413 8  -1980709.977 6
  22395236.800   -14130378.054 7 -11010665.204 9
 92  4 13  8 28  0.0060000  0  4 23 21  3 17
  22447088.603   -14920295.531 7 -11626191.014 8
  24668900.574    -6402287.891 6  -4988788.270 3
  22642992.182    -2480673.870 8  -1932972.185 6
  22399905.767   -14105814.604 7 -10991524.870 9
 92  4 13  8 28 30.0060000  0  4 23 21  3 17
  22444992.754   -14931303.826 7 -11634768.903 8
  24655572.403    -6472344.252 6  -5043377.576 3
  22654747.643    -2418890.817 8  -1884829.570 6
  22404624.803   -14081017.354 8 -10972202.352 9
 92  4 13  8 29  0.0060000  0  4 23 21  3 17
  22442979.051   -14941895.063 7 -11643021.784 8
  24642291.295    -6542149.805 6  -5097771.446 3
  22666605.934    -2356588.956 8  -1836282.685 7
  22409392.700   -14055989.168 8 -10952699.883 9
 92  4 13  8 29 30.0060000  0  4 23 21  3 17
  22441043.887   -14952061.860 7 -11650943.951 7
  24629052.164    -6611711.677 6  -5151975.410 3
  22678562.256    -2293767.543 8  -1787330.983 7
  22414201.072   -14030708.571 7 -10933000.715 9
 92  4 13  8 30  0.0060000  0  4 23 21  3 17
  22439187.873   -14961800.946 7 -11658532.839 7
  24615859.197    -6681028.949 6  -5205988.782 2
  22690614.515    -2230426.550 8  -1737974.391 6
  22419061.905   -14005164.381 7 -10913096.161 9
 92  4 13  8 30 30.0060000  0  4 23 21  3 17
  22437419.097   -14971115.685 7 -11665791.060 8
  24602715.693    -6750099.442 6  -5259809.873 3
  22702768.099    -2166565.349 8  -1688212.454 6
  22423971.009   -13979360.759 8 -10892989.440 9
 92  4 13  8 31  0.0060000  0  4 23 21  3 17
  22435728.568   -14980010.405 7 -11672721.984 8
  24589615.963    -6818929.971 6  -5313444.002 4
  22715017.619    -2102186.325 8  -1638047.000 6
  22428924.776   -13953318.516 8 -10872696.797 9
 92  4 13  8 31 30.0060000  0  4 23 21  3 17
  22434113.285   -14988479.363 7 -11679321.158 8
  24576569.893    -6887500.228 6  -5366875.343 5
  22727366.074    -2037287.490 8  -1587476.530 6
  22433928.317   -13927048.755 7 -10852226.858 9
 92  4 13  8 32  0.0060000  0  4 23 21  3 17
  22432583.747   -14996522.473 7 -11685588.495 8
  24563572.992    -6955809.803 6  -5420103.527 4
  22739816.154    -1971871.147 8  -1536502.800 6
  22438964.528   -13900576.052 7 -10831598.791 9
 92  4 13  8 32 30.0060000  0  4 23 21  3 17
  22431133.948   -15004140.364 7 -11691524.504 9
  24550625.554    -7023848.744 6  -5473120.855 3
  22752362.765    -1905934.625 8  -1485123.716 5
  22444042.415   -13873891.774 7 -10810805.838 9
 92  4 13  8 33  0.0060000  0  4 23 21  3 17
  22429764.197   -15011331.415 7 -11697127.902 8
  24537732.383    -7091600.829 6  -5525914.604 2
  22765006.215    -1839479.657 8  -1433340.653 5
  22449161.968   -13846991.328 7 -10789844.443 9
 92  4 13  8 33 30.0060000  0  4 23 21  3 17
  22428477.488   -15018087.363 7 -11702392.266 9
  24524897.368    -7159047.728 6  -5578470.567 3
  22777752.491    -1772506.630 8  -1381153.903 6
  22454327.394   -13819854.492 7 -10768698.847 9
 92  4 13  8 34  0.0060000  0  4 23 21  3 17
  22427277.419   -15024410.058 7 -11707319.035 8
  24512116.615    -7226194.678 6  -5630792.801 2
  22790595.900    -1705015.308 8  -1328563.309 6
  22459539.883   -13792458.601 7 -10747351.400 9
 92  4 13  8 34 30.0060000  0  4 23 21  3 17
  22426151.400   -15030313.714 7 -11711919.271 8
  24499398.817    -7293039.317 6  -5682879.479 3
  22803536.741    -1637006.704 8  -1275569.627 6
  22464803.039   -13764789.529 7 -10725791.096 9
 92  4 13  8 35  0.0060000  0  4 23 21  3 17
  22425108.423   -15035797.308 7 -11716192.198 8
  24486733.785    -7359606.402 6  -5734749.876 3
  22816577.411    -1568478.924 8  -1222171.378 6
  22470119.558   -13736841.313 7 -10704013.271 9
 92  4 13  8 35 30.0060000  0  4 23 21  3 17
  22424140.991   -15040869.648 7 -11720144.650 8
  24474108.029    -7425923.372 6  -5786425.387 3
  22829716.714    -1499434.353 8  -1168370.440 5
  22475496.637   -13708612.899 7 -10682017.084 9
 92  4 13  8 36  0.0060000  0  4 23 21  3 17
  22423255.105   -15045536.929 7 -11723781.473 9
  24461539.527    -7492001.228 6  -5837914.553 3
  22842953.751    -1429872.056 8  -1114166.081 6
  22480915.087   -13680116.109 7 -10659811.784 9
 92  4 13  8 36 30.0060000  0  4 23 21  3 17
  22422449.262   -15049787.247 7 -11727093.415 9
  24449009.102    -7557853.887 6  -5889228.238 3
  22856288.819    -1359792.688 8  -1059558.821 5
  22486384.801   -13651367.523 7 -10637410.293 9
 92  4 13  8 37  0.0060000  0  4 23 21  3 17
  22421722.862   -15053599.237 7 -11730063.776 9
  24436517.049    -7623484.280 6  -5940368.737 3
  22869724.318    -1289196.114 8  -1004548.526 6
  22491900.082   -13622387.576 7 -10614828.522 9
 92  4 13  8 37 30.0060000  0  4 23 21  3 17
  22421084.904   -15056966.268 7 -11732687.414 8
  24424075.363    -7688874.326 6  -5991321.982 5
  22883256.351    -1218084.500 8   -949136.926 5
  22497454.936   -13593199.655 7 -10592084.685 9
 92  4 13  8 38  0.0060000  0  4 23 21  3 17
  22420525.494   -15059878.276 7 -11734956.502 8
  24411676.547    -7754014.100 6  -6042080.220 5
  22896887.017    -1146456.724 8   -893323.100 5
  22503046.666   -13563806.294 7 -10569180.775 9
 92  4 13  8 38 30.0060000  0  4 23 21  3 17
  22420060.816   -15062336.230 7 -11736871.771 8
  24399327.198    -7818899.560 6  -6092640.257 3
  22910613.912    -1074316.306 8   -837109.836 6
  22508679.766   -13534209.400 7 -10546118.268 9
 92  4 13  8 39  0.0060000  0  4 23 21  3 17
  22419677.082   -15064360.646 7 -11738449.208 8
  24387038.405    -7883503.905 6  -6142981.268 3
  22924440.941    -1001661.530 8   -780495.759 5
  22514351.541   -13504403.567 7 -10522892.919 9
 92  4 13  8 39 30.0060000  0  4 23 21  3 17
  22419366.494   -15065980.611 7 -11739711.488 8
  24374801.776    -7947819.203 6  -6193097.039 3
  22938363.602     -928493.911 8   -723482.055 5
  22520067.381   -13474368.453 7 -10499488.921 9
 92  4 13  8 40  0.0060000  0  4 23 21  3 17
  22419138.053   -15067200.736 7 -11740662.217 9
  24362619.112    -8011838.381 6  -6242982.076 2
  22952386.392     -854812.022 8   -666067.619 5
  22525829.391   -13444092.085 7 -10475896.943 9
 92  4 13  8 40 30.0060000  0  4 23 21  3 17
  22418975.264   -15068032.759 7 -11741310.519 9
  24350489.208    -8075556.439 6  -6292632.466 3
  22966502.423     -780616.072 8   -608252.637 5
  22531638.769   -13413571.370 8 -10452114.568 9
 92  4 13  8 41  0.0060000  0  4 23 21  3 17
  22418892.223   -15068479.508 7 -11741658.631 9
  24338423.159    -8138974.917 6  -6342049.401 4
  22980719.180     -705907.499 8   -550038.181 5
  22537493.418   -13382806.265 8 -10428141.767 9
 92  4 13  8 41 30.0060000  0  4 23 21  3 17
  22418884.131   -15068517.127 7 -11741687.979 9
  24326407.480    -8202104.258 6  -6391241.058 4
  22995036.068     -630685.147 8   -491423.381 6
  22543393.035   -13351790.363 8 -10403973.537 9
 92  4 13  8 42  0.0060000  0  4 23 21  3 17
  22418953.081   -15068131.763 7 -11741387.662 9
  24314448.758    -8264953.331 7  -6440214.303 4
  23009445.293     -554951.591 8   -432410.270 5
  22549343.315   -13320532.106 7 -10379616.464 9
 92  4 13  8 42 30.0060000  0  4 23 21  3 17
  22419112.270   -15067322.101 7 -11740756.757 9
  24302546.698    -8327529.541 7  -6488974.943 3
  23023956.449     -478706.657 8   -372998.662 5
  22555336.165   -13289025.888 7 -10355066.158 9
 92  4 13  8 43  0.0060000  0  4 23 21  3 17
  22419349.109   -15066080.710 7 -11739789.429 9
  24290687.207    -8389842.610 6  -6537530.526 3
  23038561.435     -401953.068 8   -313190.721 6
  22561373.984   -13257275.146 7 -10330325.325 9
 92  4 13  8 43 30.0060000  0  4 23 21  3 17
  22419662.689   -15064410.851 7 -11738488.214 9
  24278875.386    -8451899.962 6  -6585886.849 4
  23053264.456     -324688.786 8   -252984.816 5
  22567468.468   -13225276.939 7 -10305391.664 9
 92  4 13  8 44  0.0060000  0  4 23 21  3 17
  22420058.417   -15062328.094 7 -11736865.274 8
  24267116.923    -8513700.105 6  -6634042.782 3
  23068065.211     -246913.975 8   -192381.106 4
  22573603.419   -13193035.600 8 -10280268.542 9
 92  4 13  8 44 30.0060000  0  4 23 21  3 17
  22420534.786   -15059834.751 7 -11734922.427 8
  24255404.935    -8575239.033 6  -6681995.132 5
  23082961.598     -168631.051 8   -131381.452 5
  22579783.340   -13160560.936 8 -10254963.608 9
 92  4 13  8 45  0.0060000  0  4 23 21  3 17
  22421087.905   -15056929.229 7 -11732658.339 8
  24243738.810    -8636503.715 6  -6729733.813 4
  23097952.121      -89841.755 8    -69987.245 5
  22586003.134   -13127863.387 7 -10229484.999 9
 92  4 13  8 45 30.0060000  0  4 23 21  3 17
  22421721.667   -15053607.006 7 -11730069.579 8
  24232146.133    -8697473.528 6  -6777242.718 3
  23113043.374      -10545.154 8     -8197.722 6
  22592275.693   -13094929.509 7 -10203822.232 9
 92  4 13  8 46  0.0060000  0  4 23 21  3 17
  22422432.471   -15049853.008 7 -11727144.360 9
  24220602.927    -8758125.118 6  -6824503.650 4
  23128229.959       69259.188 8     53987.444 5
  22598584.527   -13061751.899 7 -10177969.536 9
 92  4 13  8 46 30.0060000  0  4 23 21  3 17
  22423232.319   -15045669.639 7 -11723884.582 8
  24209119.074    -8818460.767 6  -6871518.396 5
  23143511.882      149568.403 8    116566.027 5
  22604948.521   -13028324.442 7 -10151922.137 9
 92  4 13  8 47  0.0060000  0  4 23 21  3 17
  22424104.416   -15041063.294 7 -11720295.207 9
  24197698.482    -8878487.822 6  -6918292.661 5
  23158890.934      230383.156 8    179538.516 5
  22611359.880   -12994623.550 7 -10125661.704 8
 92  4 13  8 47 30.0060000  0  4 23 21  3 17
  22425064.352   -15036039.659 7 -11716380.671 9
  24186332.152    -8938220.118 6  -6964837.275 5
  23174366.219      311703.820 8    242905.215 6
  22617826.106   -12960650.330 7 -10099189.059 9
 92  4 13  8 48  0.0060000  0  4 23 21  3 17
  22426092.340   -15030624.956 6 -11712161.422 9
  24175013.186    -8997681.772 6  -7011170.986 3
  23189938.941      393528.195 8    306664.404 5
  22624336.996   -12926430.310 7 -10072524.125 9
 92  4 13  8 48 30.0060000  0  4 23 21  3 17
  22427195.578   -15024838.909 6 -11707652.803 9
  24163742.488    -9056897.985 7  -7057313.438 5
  23205602.798      475853.557 8    370813.995 4
  22630894.958   -12891974.385 7 -10045675.341 9
 92  4 13  8 49  0.0060000  0  4 23 21  3 17
  22428365.065   -15018671.896 7 -11702847.309 9
  24152528.153    -9115860.838 7  -7103258.466 5
  23221362.286      558679.471 8    435353.616 5
  22637491.293   -12857297.781 7 -10018654.625 9
 92  4 13  8 49 30.0060000  0  4 23 21  3 17
  22429613.702   -15012120.220 7 -11697742.104 9
  24141357.885    -9174560.503 7  -7148998.407 4
  23237220.707      642006.156 8    500283.487 5
  22644132.291   -12822416.624 7  -9991474.499 9
 92  4 13  8 50  0.0060000  0  4 23 21  3 17
  22430935.185   -15005182.022 7 -11692335.709 9
  24130239.483    -9232991.860 7  -7194529.272 5
  23253172.065      725834.012 8    565603.824 5
  22650810.171   -12787317.957 8  -9964124.900 9
 92  4 13  8 50 30.0060000  0  4 23 21  3 17
  22432335.818   -14997825.863 7 -11686603.621 9
  24119176.843    -9291135.620 7  -7239836.056 4
  23269220.254      810159.304 8    631311.778 3
  22657532.715   -12751984.882 8  -9936592.632 9
 92  4 13  8 51  0.0060000  0  4 23 21  3 17
  22433819.488   -14990037.497 7 -11680534.752 9
  24108162.768    -9348970.754 7  -7284902.356 4
  23285361.081      894983.595 8    697408.584 4
  22664302.030   -12716406.558 8  -9908869.284 9
 92  4 13  8 51 30.0060000  0  4 23 21  3 17
  22435379.909   -14981825.876 7 -11674136.061 9
  24097217.642    -9406503.334 7  -7329732.892 4
  23301596.938      980304.874 8    763892.667 6
  22671125.606   -12680570.541 8  -9880945.107 9
 92  4 13  8 52  0.0060000  0  4 23 21  3 17
  22437022.175   -14973185.397 7 -11667403.227 9
  24086330.381    -9463732.469 7  -7374326.984 4
  23317928.732     1066122.601 8    830763.593 5
  22677996.249   -12644463.655 8  -9852809.888 9
 92  4 13  8 52 30.0060000  0  4 23 21  3 17
  22438747.478   -14964119.077 7 -11660338.546 9
  24075500.379    -9520650.712 7  -7418678.788 2
  23334352.864     1152436.906 8    898021.428 5
  22684915.758   -12608094.688 8  -9824470.433 9
 92  4 13  8 53  0.0060000  0  4 23 21  3 17
  22440549.832   -14954655.822 7 -11652964.562 9
  24064723.740    -9577268.657 6  -7462796.597 2
  23350872.327     1239246.999 8    965665.590 4
  22691885.035   -12571466.062 8  -9795928.673 8
 92  4 13  8 53 30.0060000  0  4 23 21  3 17
  22442425.931   -14944806.521 7 -11645289.779 9
  24054005.559    -9633597.360 7  -7506689.027 2
  23367484.729     1326548.138 8   1033692.403 2
  22698902.579   -12534583.033 8  -9767188.652 8
 92  4 13  8 54  0.0060000  0  4 23 21  3 17
  22444373.384   -14934576.012 7 -11637317.949 9
  24043342.839    -9689627.502 7  -7550348.820 4
  23384190.961     1414339.983 8   1102101.580 5
  22705969.284   -12497442.701 7  -9738248.145 9
 92  4 13  8 54 30.0060000  0  4 23 21  3 17
  22446387.689   -14923971.186 7 -11629054.438 9
  24032738.280    -9745359.906 6  -7593776.594 4
  23400989.832     1502623.372 7   1170893.794 5
  22713086.059   -12460052.339 7  -9709112.798 8
 92  4 13  8 55  0.0060000  0  4 23 21  3 17
  22448477.841   -14912993.707 7 -11620500.546 9
  24022182.888    -9800801.534 6  -7636977.825 5
  23417884.936     1591397.062 8   1240068.042 5
  22720251.398   -12422403.978 7  -9679776.426 9
 92  4 13  8 55 30.0060000  0  4 23 21  3 17
  22450640.246   -14901632.084 7 -11611647.314 9
  24011694.949    -9855946.913 6  -7679948.213 4
  23434871.175     1680660.110 7   1309623.601 5
  22727458.106   -12384511.405 7  -9650249.738 8
 92  4 13  8 56  0.0060000  0  4 23 21  3 17
  22452878.494   -14889887.999 7 -11602496.081 9
  24001252.277    -9910800.909 6  -7722691.553 5
  23451949.454     1770411.178 7   1379559.441 5
  22734713.087   -12346391.192 8  -9620545.692 9
 92  4 13  8 56 30.0060000  0  4 23 21  3 17
  22455183.899   -14877758.979 7 -11593044.890 9
  23990868.965    -9965370.541 7  -7765213.295 5
  23469121.563     1860649.867 7   1449875.277 5
  22742007.038   -12308059.836 8  -9590677.114 9
 92  4 13  8 57  0.0060000  0  4 23 21  3 17
  22457566.652   -14865236.902 7 -11583287.402 8
  23980546.511   -10019644.837 7  -7807504.888 4
  23486385.714     1951375.375 7   1520570.456 5
  22749343.559   -12269524.468 8  -9560649.551 9
 92  4 13  8 57 30.0060000  0  4 23 21  3 17
  22460025.248   -14852318.393 7 -11573221.030 8
  23970266.331   -10073620.537 7  -7849563.812 5
  23503740.998     2042583.235 8   1591641.435 4
  22756711.856   -12230786.264 8  -9530463.944 9
 92  4 13  8 58  0.0060000  0  4 23 21  3 17
  22462556.996   -14839000.665 7 -11562843.593 8
  23960053.298   -10127301.293 7  -7891392.924 5
  23521190.718     2134274.939 8   1663089.467 4
  22764126.921   -12191824.607 8  -9500104.229 9
 92  4 13  8 58 30.0060000  0  4 23 21  3 17
  22465169.686   -14825272.168 7 -11552146.062 8
  23949900.827   -10180683.353 7  -7932989.275 4
  23538728.279     2226448.264 7   1734912.780 5
  22771590.558   -12152618.472 8  -9469554.005 8
 92  4 13  8 59  0.0060000  0  4 23 21  3 17
  22467866.621   -14811122.460 7 -11541120.299 8
  23939793.927   -10233760.678 6  -7974348.200 4
  23556363.268     2319102.752 7   1807111.038 5
  22779099.456   -12113146.215 8  -9438796.423 8
 92  4 13  8 59 30.0060000  0  4 23 21  3 17
  22470636.403   -14796554.283 7 -11529768.440 8
  23929753.578   -10286539.192 7  -8015474.301 3
  23574083.100     2412239.057 7   1879684.725 5
  22786665.919   -12073388.583 8  -9407816.447 8
 92  4 13  9  0  0.0060000  0  4 23 21  3 17
  22473487.729   -14781571.107 7 -11518093.239 9
  23919767.791   -10339016.947 7  -8056365.997 5
  23591900.667     2505852.162 7   1952629.934 5
  22794284.247   -12033353.048 8  -9376619.942 9
 92  4 13  9  0 30.0060000  0  4 23 21  3 17
  22476414.903   -14766179.365 7 -11506099.667 9
  23909844.358   -10391177.087 7  -8097010.205 4
  23609800.974     2599942.350 7   2025946.911 4
  22801955.333   -11993040.939 8  -9345207.920 8
 92  4 13  9  1  0.0060000  0  4 23 21  3 17
  22479418.521   -14750403.152 7 -11493806.502 8
  23899976.989   -10443019.152 7  -8137406.564 5
  23627798.417     2694507.519 7   2099634.019 6
  22809678.289   -11952456.464 8  -9313583.671 8
 92  4 13  9  1 30.0060000  0  4 23 21  3 17
  22482492.595   -14734261.438 7 -11481228.533 8
  23890172.279   -10494548.170 7  -8177558.994 3
  23645886.694     2789545.648 7   2173689.671 5
  22817450.110   -11911613.539 8  -9281758.048 7
 92  4 13  9  2  0.0060000  0  4 23 21  3 17
  22485624.827   -14717763.961 7 -11468373.363 9
  23880426.323   -10545762.937 7  -8217466.542 3
  23664061.911     2885056.901 8   2248113.983 5
  22825269.295   -11870518.558 8  -9249736.002 7
 92  4 13  9  2 30.0060000  0  4 23 21  3 17
  22488832.604   -14700921.044 7 -11455249.003 8
  23870734.036   -10596677.471 7  -8257140.150 4
  23682322.870     2981039.582 7   2322905.619 4
  22833141.245   -11829170.293 8  -9217516.598 9
 92  4 13  9  3  0.0060000  0  4 23 21  3 17
  22492108.137   -14683722.528 7 -11441847.547 9
  23861103.501   -10647306.544 7  -8296591.323 4
  23700681.560     3077491.286 7   2398062.735 4
  22841050.971   -11787579.261 8  -9185108.002 9
 92  4 13  9  3 30.0060000  0  4 23 21  3 17
  22495450.224   -14666151.777 7 -11428156.045 9
  23851520.038   -10697647.431 6  -8335817.955 5
  23719122.391     3174413.559 7   2473586.526 4
  22849009.561   -11745751.413 8  -9152514.899 9
 92  4 13  9  4  0.0060000  0  4 23 21  3 17
  22498865.162   -14648203.177 7 -11414170.118 9
  23841997.428   -10747700.548 6  -8374820.352 4
  23737654.365     3271802.565 7   2549474.019 3
  22857016.716   -11703691.049 8  -9119740.600 9
 92  4 13  9  4 30.0060000  0  4 23 21  3 17
  22502354.446   -14629870.095 7 -11399884.590 9
  23832526.684   -10797465.069 6  -8413597.853 5
  23756278.970     3369656.909 7   2625724.108 5
  22865064.045   -11661405.061 8  -9086790.504 8
 92  4 13  9  5  0.0060000  0  4 23 21  3 17
  22505921.376   -14611152.223 7 -11385299.224 9
  23823112.601   -10846926.090 6  -8452138.872 5
  23774991.117     3467975.984 7   2702336.316 5
  22873156.043   -11618894.041 8  -9053665.042 8
 92  4 13  9  5 30.0060000  0  4 23 21  3 17
  22509550.663   -14592063.774 7 -11370425.083 9
  23813764.175   -10896074.034 7  -8490435.937 5
  23793783.305     3566757.814 7   2779309.135 3
  22881286.714   -11576142.955 7  -9020352.525 8
 92  4 13  9  6  0.0060000  0  4 23 21  3 17
  22513252.199   -14572610.608 7 -11355266.756 9
  23804470.307   -10944903.380 7  -8528484.738 5
  23812669.331     3665999.880 7   2856640.588 5
  22889471.050   -11533145.305 7  -8986847.879 8
 92  4 13  9  6 30.0060000  0  4 23 21  3 17
  22517022.388   -14552792.489 7 -11339824.058 8
  23795239.700   -10993414.411 7  -8566285.491 5
  23831639.899     3765700.359 7   2934329.235 5
  22897703.351   -11489886.762 8  -8953139.939 9
 92  4 13  9  7  0.0060000  0  4 23 21  3 17
  22520867.526   -14532605.448 7 -11324093.874 8
  23786069.349   -11041603.156 7  -8603835.102 5
  23850699.803     3865859.279 7   3012375.091 4
  22905989.613   -11446348.749 8  -8919214.226 8
 92  4 13  9  7 30.0070000  0  4 23 21  3 17
  22524776.522   -14512044.998 7 -11308072.732 9
  23776957.455   -11089480.764 7  -8641142.251 4
  23869847.546     3966477.387 7   3090778.775 4
  22914325.044   -11402533.555 8  -8885072.528 9
 92  4 13  9  8  0.0070000  0  4 23 21  3 17
  22528760.464   -14491110.055 7 -11291759.781 9
  23767905.220   -11137052.121 7  -8678210.775 5
  23889076.238     4067547.022 7   3169534.299 4
  22922713.238   -11358454.059 8  -8850724.895 8
 92  4 13  9  8 30.0070000  0  4 23 21  3 17
  22532813.059   -14469799.262 7 -11275153.964 9
  23758909.951   -11184335.587 7  -8715054.988 5
  23908395.160     4169070.851 7   3248643.742 4
  22931148.498   -11314106.206 8  -8816168.130 8
 92  4 13  9  9  0.0070000  0  4 23 21  3 17
  22536941.200   -14448115.432 7 -11258257.459 9
  23749965.039   -11231331.847 7  -8751675.408 5
  23927802.529     4271045.502 7   3328104.440 3
  22939639.818   -11269511.007 8  -8781418.651 8
 92  4 13  9  9 30.0070000  0  4 23 21  3 17
  22541133.798   -14426068.366 7 -11241077.925 9
  23741072.596   -11278045.011 7  -8788075.235 6
  23947295.631     4373469.833 7   3407915.554 4
  22948167.412   -11224688.283 8  -8746491.861 8
 92  4 13  9 10  0.0070000  0  4 23 21  3 17
  22545401.044   -14403659.835 7 -11223616.736 9
  23732236.517   -11324472.787 7  -8824252.683 6
  23966870.583     4476341.802 7   3488075.502 3
  22956740.879   -11179635.094 8  -8711385.514 8
 92  4 13  9 10 30.0070000  0  4 23 21  3 17
  22549734.543   -14380879.595 7 -11205865.882 9
  23723466.386   -11370595.372 7  -8860192.307 5
  23986535.469     4579661.086 7   3568583.958 2
  22965360.811   -11134346.485 8  -8676095.700 8
 92  4 13  9 11  0.0070000  0  4 23 21  3 17
  22554142.390   -14357733.567 7 -11187830.011 9
  23714749.920   -11416383.090 7  -8895871.023 6
  24006282.497     4683424.481 7   3649438.518 4
  22974020.315   -11088831.259 8  -8640629.312 7
 92  4 13  9 11 30.0070000  0  4 23 21  3 17
  22558615.596   -14334219.076 7 -11169507.022 9
  23706104.205   -11461833.807 7  -8931287.127 5
  24026108.370     4787631.794 7   3730638.949 5
  22982730.186   -11043070.699 8  -8604971.772 7
 92  4 13  9 12  0.0070000  0  4 23 21  3 17
  22563161.347   -14310332.606 7 -11150894.192 9
  23697517.851   -11506938.900 7  -8966433.911 5
  24046024.482     4892280.794 7   3812183.575 4
  22991488.023   -10997051.741 8  -8569112.862 7
 92  4 13  9 12 30.0070000  0  4 23 21  3 17
  22567773.357   -14286080.724 7 -11131996.617 9
  23688997.150   -11551701.957 7  -9001314.165 5
  24066019.444     4997368.504 7   3894070.043 3
  23000291.431   -10950776.742 8  -8533054.452 7
 92  4 13  9 13  0.0070000  0  4 23 21  3 17
  22572456.712   -14261471.142 7 -11112820.310 9
  23680543.902   -11596140.780 7  -9035941.771 5
  24086101.638     5102895.472 7   3976298.801 4
  23009146.099   -10904241.692 8  -8496793.386 8
 92  4 13  9 13 30.0070000  0  4 23 21  3 17
  22577209.322   -14236505.175 7 -11093366.317 9
  23672142.216   -11640282.284 7  -9070337.706 5
  24106263.581     5208858.106 7   4058867.035 4
  23018052.633   -10857443.933 8  -8460327.621 9
 92  4 13  9 14  0.0070000  0  4 23 21  3 17
  22582025.788   -14211190.966 7 -11073640.950 9
  23663800.794   -11684128.057 7  -9104503.201 4
  24126512.464     5315254.013 7   4141772.864 5
  23027008.635   -10810388.851 8  -8423661.332 8
 92  4 13  9 14 30.0070000  0  4 23 21  3 17
  22586909.109   -14185528.852 7 -11053644.491 9
  23655514.527   -11727674.521 7  -9138435.475 5
  24146839.590     5422085.107 6   4225017.815 4
  23036013.200   -10763072.897 8  -8386791.772 8
 92  4 13  9 15  0.0070000  0  4 23 21  3 17
  22591859.282   -14159520.509 7 -11033378.240 9
  23647286.126   -11770922.880 7  -9172135.457 6
  24167248.863     5529346.776 7   4308598.303 5
  23045062.137   -10715497.978 8  -8349720.416 6
 92  4 13  9 15 30.0070000  0  4 23 21  3 17
  22596876.608   -14133161.499 7 -11012838.758 9
  23639111.685   -11813863.021 7  -9205595.260 5
  24187742.975     5637037.632 6   4392513.206 4
  23054167.133   -10667662.147 8  -8312445.757 6
 92  4 13  9 16  0.0070000  0  4 23 21  3 17
  22601954.194   -14106459.368 7 -10992031.905 9
  23631003.197   -11856484.772 7  -9238806.982 5
  24208325.825     5745155.870 7   4476761.110 4
  23063324.893   -10619562.667 8  -8274965.680 6
 92  4 13  9 16 30.0070000  0  4 23 21  3 17
  22607102.230   -14079410.302 7 -10970954.689 9
  23622950.170   -11898793.379 7  -9271774.683 5
  24228976.727     5853699.175 7   4561340.230 4
  23072524.325   -10571203.103 8  -8237282.928 7
 92  4 13  9 17  0.0070000  0  4 23 21  3 17
  22612319.217   -14052009.248 7 -10949603.224 9
  23614960.103   -11940792.201 7  -9304500.981 4
  24249712.773     5962667.189 7   4646250.339 2
  23081774.721   -10522585.964 8  -8199399.469 7
 92  4 13  9 17 30.0070000  0  4 23 21  3 17
  22617596.765   -14024267.643 8 -10927986.392 9
  23607026.397   -11982481.374 7  -9336986.007 5
  24270526.162     6072056.428 7   4731488.678 3
  23091073.684   -10473714.348 8  -8161317.694 9
 92  4 13  9 18  0.0070000  0  4 23 21  3 17
  22622936.968   -13996195.637 8 -10906112.078 9
  23599152.946   -12023863.246 7  -9369231.585 4
  24291418.100     6181864.899 7   4817053.644 5
  23100422.111   -10424594.122 8  -8123042.187 8
 92  4 13  9 18 30.0070000  0  4 23 21  3 17
  22628344.324   -13967787.487 7 -10883975.854 9
  23591334.057   -12064935.906 7  -9401236.218 5
  24312395.778     6292091.287 6   4902944.267 4
  23109817.605   -10375226.056 8  -8084573.559 8
 92  4 13  9 19  0.0070000  0  4 23 21  3 17
  22633814.635   -13939057.090 7 -10861588.534 9
  23583574.530   -12105695.351 7  -9432996.781 5
  24333453.200     6402734.365 6   4989159.585 3
  23119259.568   -10325602.180 8  -8045905.625 7
 92  4 13  9 19 30.0070000  0  4 23 21  3 17
  22639340.413   -13910005.241 8 -10838950.731 9
  23575881.855   -12146144.525 7  -9464515.587 6
  24354584.372     6513792.125 6   5075698.063 4
  23128752.797   -10275715.944 8  -8007033.252 7
 92  4 13  9 20  0.0070000  0  4 23 21  3 17
  22644933.037   -13880617.199 7 -10816050.948 9
  23568241.944   -12186289.817 7  -9495797.605 6
  24375796.485     6625262.198 6   5162557.807 4
  23138293.393   -10225568.657 8  -7967957.467 7
 92  4 13  9 20 30.0070000  0  4 23 21  3 17
  22650592.819   -13850879.356 8 -10792878.608 9
  23560657.198   -12226138.208 7  -9526848.266 5
  24397088.347     6737142.243 6   5249737.022 4
  23147889.150   -10175157.008 8  -7928675.668 8
 92  4 13  9 21  0.0070000  0  4 23 21  3 17
  22656316.460   -13820782.225 8 -10769426.301 9
  23553133.306   -12265695.047 7  -9557671.746 5
  24418457.255     6849429.213 6   5337233.306 4
  23157530.474   -10124488.841 8  -7889193.985 7
 92  4 13  9 21 30.0070000  0  4 23 21  3 17
  22662120.141   -13790305.189 7 -10745677.976 9
  23545661.877   -12304956.019 7  -9588264.670 6
  24439901.409     6962122.440 6   5425046.157 4
  23167218.870   -10073572.101 8  -7849518.618 8
 92  4 13  9 22  0.0070000  0  4 23 21  3 17
  22667990.978   -13759457.775 7 -10721641.018 9
  23538246.512   -12343913.185 7  -9618620.837 6
  24461417.514     7075219.184 6   5513173.439 4
  23176956.126   -10022414.479 8  -7809655.543 6
 92  4 13  9 22 30.0070000  0  4 23 21  3 17
  22673925.069   -13728261.090 8 -10697331.920 9
  23530891.101   -12382543.503 7  -9648722.341 5
  24483024.457     7188718.493 6   5601614.435 4
  23186731.158    -9971010.272 8  -7769600.341 7
 92  4 13  9 23  0.0070000  0  4 23 21  3 17
  22679925.112   -13696734.296 8 -10672765.594 9
  23523612.742   -12420832.945 7  -9678558.242 5
  24504694.652     7302618.975 6   5690367.990 3
  23196567.349    -9919357.154 8  -7729351.174 7
 92  4 13  9 23 30.0070000  0  4 23 21  3 17
  22685984.522   -13664899.443 8 -10647959.213 9
  23516385.045   -12458787.597 7  -9708133.269 5
  24526444.896     7416917.085 6   5779431.336 3
  23206441.916    -9867452.667 8  -7688906.128 7
 92  4 13  9 24  0.0070000  0  4 23 21  3 17
  22692097.586   -13632768.665 8 -10622922.233 9
  23509227.502   -12496417.214 7  -9737455.050 5
  24548270.385     7531609.851 6   5868802.292 4
  23216367.744    -9815293.772 8  -7648262.847 6
 92  4 13  9 24 30.0070000  0  4 23 21  3 17
  22698269.414   -13600325.956 7 -10597642.203 9
  23502125.115   -12533723.523 7  -9766524.880 5
  24570169.627     7646696.582 6   5958480.225 1
  23226341.237    -9762878.348 8  -7607419.669 6
 92  4 13  9 25  0.0070000  0  4 23 21  3 17
  22704508.395   -13567548.602 7 -10572101.394 9
  23495087.787   -12570724.567 7  -9795356.811 5
  24592147.409     7762176.223 6   6048464.328 4
  23236365.100    -9710202.694 8  -7566373.731 6
 92  4 13  9 25 30.0070000  0  4 23 21  3 17
  22710812.731   -13534429.831 7 -10546294.554 9
  23488101.728   -12607420.996 7  -9823951.385 5
  24614197.146     7878045.956 6   6138752.359 3
  23246439.922    -9657262.645 8  -7525121.748 7
 92  4 13  9 26  0.0070000  0  4 23 21  3 17
  22717179.722   -13500964.231 7 -10520217.460 9
  23481182.516   -12643800.041 7  -9852298.682 6
  24636317.033     7994301.789 6   6229341.286 4
  23256565.717    -9604056.484 8  -7483662.428 7
 92  4 13  9 26 30.0070000  0  4 23 21  3 17
  22723609.673   -13467164.060 7 -10493879.665 9
  23474318.167   -12679846.236 7  -9880386.613 6
  24658514.866     8110944.093 6   6320231.351 4
  23266741.868    -9550576.694 8  -7441989.881 7
 92  4 13  9 27  0.0070000  0  4 23 21  3 17
  22730099.881   -13433058.574 7 -10467303.955 9
  23467524.571   -12715564.030 7  -9908218.646 5
  24680787.945     8227967.988 6   6411418.792 3
  23276971.090    -9496822.041 8  -7400103.161 7
 92  4 13  9 27 30.0070000  0  4 23 21  3 17
  22736646.147   -13398668.098 7 -10440506.177 9
  23460789.135   -12750949.307 7  -9935791.560 5
  24703124.284     8345371.160 6   6502901.713 4
  23287250.974    -9442803.807 8  -7358011.031 7
 92  4 13  9 28  0.0070000  0  4 23 21  3 17
  22743243.380   -13364004.742 7 -10413495.755 9
  23454117.852   -12786007.161 7  -9963109.361 6
  24725538.867     8463153.414 6   6594680.058 4
  23297581.821    -9388521.106 8  -7315712.839 7
 92  4 13  9 28 30.0070000  0  4 23 21  3 17
  22749888.580   -13329072.935 8 -10386276.153 9
  23447508.028   -12820739.402 7  -9990173.431 5
  24748025.400     8581313.894 6   6686753.101 3
  23307961.232    -9333975.473 8  -7273209.759 7
 92  4 13  9 29  0.0070000  0  4 23 21  3 17
  22756589.839   -13293856.335 7 -10358834.640 9
  23440964.157   -12855150.190 7 -10016987.011 6
  24770582.682     8699849.030 6   6779118.094 3
  23318390.115    -9279172.451 8  -7230506.114 6
 92  4 13  9 29 30.0070000  0  4 23 21  3 17
  22763351.659   -13258333.322 7 -10331154.362 8
  23434473.051   -12889247.877 7 -10043556.592 6
  24793203.521     8818756.734 6   6871773.394 4
  23328867.863    -9224102.722 8  -7187594.648 6
 92  4 13  9 30  0.0070000  0  4 23 21  3 17
  22770173.438   -13222484.614 7 -10303220.312 8
  23428043.405   -12923034.226 7 -10069883.588 6
  24815915.499     8938033.947 6   6964716.605 2
  23339399.270    -9168762.070 8  -7144472.076 6
 92  4 13  9 30 30.0070000  0  4 23 21  3 17
  22777058.770   -13186292.534 7 -10275018.676 8
  23421674.612   -12956511.414 7 -10095969.658 5
  24838674.544     9057679.540 6   7057946.882 2
  23349980.144    -9113155.966 8  -7101142.677 6
 92  4 13  9 31  0.0070000  0  4 23 21  3 17
  22784014.257   -13149744.481 7 -10246539.692 9
  23415360.683   -12989693.725 7 -10121825.967 5
  24861513.031     9177690.925 6   7151462.231 2
  23360612.287    -9057288.900 8  -7057609.949 6
 92  4 13  9 31 30.0070000  0  4 23 21  3 17
  22791034.196   -13112836.581 7 -10217780.296 8
  23409098.018   -13022592.326 7 -10147461.200 6
  24884418.675     9298065.962 6   7245260.900 3
  23371290.891    -9001163.956 8  -7013876.262 6
 92  4 13  9 32  0.0070000  0  4 23 21  3 17
  22798127.884   -13075581.409 7 -10188750.288 9
  23402895.914   -13055186.161 7 -10172858.956 7
  24907393.571     9418802.119 6   7339340.968 3
  23382018.665    -8944794.623 8  -6969952.139 7
 92  4 13  9 32 30.0070000  0  4 23 21  3 17
  22805277.936   -13037998.858 7 -10159465.171 9
  23396748.669   -13087475.090 7 -10198019.136 6
  24930439.214     9539896.991 6   7433700.548 2
  23392791.409    -8888176.042 8  -6925833.781 7
 92  4 13  9 33  0.0070000  0  4 23 21  3 17
  22812490.342   -13000094.210 7 -10129929.095 9
  23390664.380   -13119453.623 7 -10222937.445 6
  24953546.321     9661350.134 6   7528339.327 3
  23403617.214    -8831299.003 8  -6881514.014 8
 92  4 13  9 33 30.0070000  0  4 23 21  3 17
  22819760.910   -12961890.588 7 -10100160.011 9
  23384643.649   -13151099.539 7 -10247596.562 6
  24976730.170     9783157.760 6   7623254.336 4
  23414488.586    -8774155.793 8  -6836986.859 7
 92  4 13  9 34  0.0070000  0  4 23 21  3 17
  22827080.042   -12923412.556 7 -10070177.131 9
  23378687.074   -13182400.713 7 -10271987.038 5
  24999968.281     9905316.843 6   7718443.149 3
  23425412.422    -8716744.563 8  -6792250.854 6
 92  4 13  9 34 30.0070000  0  4 23 21  3 17
  22834456.436   -12884658.205 7 -10039978.940 9
  23372792.251   -13213377.535 7 -10296124.792 5
  25023291.535    10027825.104 6   7813904.067 2
  23436393.522    -8659055.940 8  -6747298.707 6
 92  4 13  9 35  0.0070000  0  4 23 21  3 17
  22841887.991   -12845616.656 7 -10009556.968 9
  23366958.290   -13244028.109 7 -10320008.312 5
  25046665.456    10150680.733 6   7909635.690 3
  23447419.289    -8601099.823 8  -6702138.118 6
 92  4 13  9 35 30.0070000  0  4 23 21  3 17
  22849369.013   -12806296.229 7  -9978917.683 9
  23361187.289   -13274357.066 7 -10343641.222 5
  25070112.524    10273880.070 6   8005635.181 4
  23458500.819    -8542880.718 8  -6656772.628 6
 92  4 13  9 36  0.0070000  0  5 11 23 21  3 17
  27339521.643     -557813.454 4   -434659.680 2
  22856909.692   -12766685.623 7  -9948052.284 8
  23355472.643   -13304385.131 7 -10367039.677 5
  25093614.154    10397421.578 6   8101901.210 3
  23469627.915    -8484393.149 8  -6611197.927 6
 92  4 13  9 36 30.0070000  0  5 11 23 21  3 17
  27321210.920     -654021.381 4   -509626.725 1
  22864499.835   -12726764.238 7  -9916944.706 9
  23349817.359   -13334113.094 7 -10390204.277 5
  25117190.432    10521302.777 6   8198431.940 4
  23480813.470    -8425632.579 8  -6565410.491 7
 92  4 13  9 37  0.0070000  0  5 11 23 21  3 17
  27302907.989     -750233.019 4   -584596.659 2
  22872163.133   -12686531.609 7  -9885594.617 9
  23344216.337   -13363535.492 7 -10413130.778 6
  25140832.066    10645521.571 6   8295225.763 3
  23492044.295    -8366607.118 8  -6519416.646 6
 92  4 13  9 37 30.0070000  0  5 11 23 21  3 17
  27284597.266     -846447.678 5   -659569.158 2
  22879874.694   -12646001.336 7  -9854012.585 9
  23338676.469   -13392655.039 7 -10435821.338 6
  25164530.657    10770073.426 6   8392279.097 3
  23503327.287    -8307311.951 8  -6473212.647 5
 92  4 13  9 38  0.0070000  0  5 11 23 21  3 17
  27266290.142     -942661.019 5   -734540.608 2
  22887641.716   -12605163.104 7  -9822190.587 9
  23333199.264   -13421458.115 7 -10458265.262 6
  25188294.307    10894957.969 6   8489591.668 3
  23514660.340    -8247748.280 8  -6426799.438 6
 92  4 13  9 38 30.0070000  0  5 11 23 21  3 17
  27247982.416    -1038870.372 5   -809508.899 2
  22895469.897   -12564033.191 7  -9790141.289 9
  23327776.914   -13449936.309 7 -10480456.027 6
  25212125.707    11020172.999 6   8587161.745 4
  23526044.360    -8187938.153 8  -6380194.172 6
 92  4 13  9 39  0.0070000  0  5 11 23 21  3 17
  27229676.488    -1135073.195 4   -884471.978 1
  22903347.841   -12522630.729 7  -9757879.646 9
  23322421.425   -13478089.445 7 -10502393.502 5
  25236017.969    11145716.144 6   8684987.495 3
  23537469.449    -8127888.944 8  -6333402.606 6
 92  4 13  9 39 30.0070000  0  5 11 23 21  3 17
  27211377.457    -1231267.694 5   -959428.873 1
  22911280.352   -12480963.053 7  -9725411.334 9
  23317122.291   -13505907.253 7 -10524069.667 6
  25259967.787    11271584.461 5   8783066.680 3
  23548943.705    -8067596.058 8  -6286421.165 6
 92  4 13  9 40  0.0070000  0  5 11 23 21  3 17
  27193067.929    -1327450.870 4  -1034376.741 2
  22919259.927   -12439027.782 7  -9692734.501 9
  23311897.809   -13533388.480 7 -10545483.583 6
  25283976.067    11397775.975 5   8881397.674 3
  23560463.828    -8007058.336 8  -6239248.936 6
 92  4 13  9 40 30.0070000  0  5 11 23 21  3 17
  27174768.300    -1423620.371 5  -1109314.039 2
  22927287.468   -12396829.258 7  -9659852.544 9
  23306727.589   -13560545.481 7 -10566644.852 6
  25308053.301    11524288.072 6   8979978.458 3
  23572035.521    -7946258.330 8  -6191872.333 6
 92  4 13  9 41  0.0070000  0  5 11 23 21  3 17
  27156473.762    -1519772.216 4  -1184237.579 1
  22935372.572   -12354344.921 7  -9626747.871 9
  23301619.723   -13587377.648 7 -10587553.001 6
  25332191.389    11651119.799 5   9078808.296 3
  23583659.072    -7885174.188 8  -6144274.323 6
 92  4 13  9 41 30.0070000  0  5 11 23 21  3 17
  27138177.431    -1615905.365 5  -1259146.519 2
  22943509.238   -12311569.798 7  -9593416.610 9
  23296575.118   -13613888.724 7 -10608210.950 6
  25356387.940    11778266.924 5   9177883.884 2
  23595336.588    -7823801.125 8  -6096451.171 7
 92  4 13  9 42  0.0070000  0  5 11 23 21  3 17
  27119884.093    -1712016.567 4  -1334038.385 2
  22951709.161   -12268491.855 7  -9559849.379 9
  23291592.265   -13640085.189 7 -10628623.769 7
  25380643.546    11905728.226 6   9277204.311 2
  23607071.964    -7762137.022 8  -6048401.253 7
 92  4 13  9 42 30.0070000  0  5 11 23 21  3 17
  27101599.454    -1808103.528 4  -1408911.346 3
  22959960.950   -12225106.250 7  -9526042.415 9
  23286665.475   -13665969.944 7 -10648793.696 7
  25404950.417    12033500.837 5   9376767.326 3
  23618858.604    -7700188.498 8  -6000129.724 6
 92  4 13  9 43  0.0070000  0  4 23 21  3 17
  22968279.591   -12181414.953 7  -9491997.255 9
  23281798.945   -13691541.464 7 -10668719.556 7
  25429330.740    12161582.215 5   9476570.917 3
  23630697.408    -7637977.455 8  -5951653.606 6
 92  4 13  9 43 30.0070000  0  4 23 21  3 17
  22976650.997   -12137433.779 7  -9457726.220 9
  23276992.972   -13716798.750 7 -10688400.564 7
  25453757.829    12289969.363 5   9576612.782 3
  23642586.878    -7575510.623 8  -5902978.180 6
 92  4 13  9 44  0.0070000  0  4 23 21  3 17
  22985073.663   -12093170.062 7  -9423234.999 9
  23272244.558   -13741756.712 7 -10707848.328 7
  25478248.176    12418658.768 5   9676890.159 3
  23654521.318    -7512786.179 8  -5854102.036 5
 92  4 13  9 44 30.0070000  0  4 23 21  3 17
  22993548.200   -12048642.856 7  -9388538.487 9
  23267551.907   -13766423.667 7 -10727069.323 6
  25502796.082    12547650.089 5   9777402.817 2
  23666507.017    -7449804.081 8  -5805025.104 6
 92  4 13  9 45  0.0070000  0  4 23 21  3 17
  23002067.400   -12003862.323 7  -9353644.573 9
  23262912.919   -13790800.308 7 -10746064.099 7
  25527396.749    12676940.748 5   9878148.728 2
  23678543.985    -7386551.648 8  -5755737.515 6
 92  4 13  9 45 30.0070000  0  4 23 21  3 17
  23010635.470   -11958836.087 7  -9318559.185 9
  23258324.598   -13814891.777 7 -10764836.651 6
  25552053.479    12806527.673 5   9979125.474 3
  23690636.114    -7323013.266 8  -5706227.093 6
 92  4 13  9 46  0.0070000  0  4 23 21  3 17
  23019251.502   -11913562.813 7  -9283281.307 9
  23253797.432   -13838694.971 7 -10783384.567 7
  25576773.768    12936408.021 5  10080330.824 4
  23702777.709    -7259192.898 8  -5656496.941 7
 92  4 13  9 46 30.0070000  0  4 23 21  3 17
  23027914.907   -11868031.810 7  -9247802.606 9
  23249327.824   -13862183.316 7 -10801687.171 7
  25601536.325    13066579.781 5  10181763.260 1
  23714975.965    -7195100.258 8  -5606554.639 6
 92  4 13  9 47  0.0070000  0  4 23 21  3 17
  23036630.471   -11822236.826 7  -9212118.195 9
  23244922.975   -13885335.873 7 -10819728.095 7
  25626369.633    13197038.421 6  10283419.268 2
  23727221.887    -7130734.006 8  -5556399.164 5
 92  4 13  9 47 30.0070000  0  4 23 21  3 17
  23045396.104   -11776174.636 8  -9176225.588 9
  23240586.177   -13908135.872 7 -10837494.314 6
  25651251.210    13327782.618 6  10385297.815 2
  23739519.073    -7066112.192 8  -5506044.526 5
 92  4 13  9 48  0.0070000  0  4 23 21  3 17
  23054211.500   -11729838.663 7  -9140119.634 9
  23236314.735   -13930577.940 7 -10854981.632 7
  25676176.254    13458808.656 5  10487395.984 1
  23751862.428    -7001243.831 8  -5455497.772 4
 92  4 13  9 48 30.0070000  0  4 23 21  3 17
  23063082.959   -11683229.983 8  -9103801.187 9
  23232108.347   -13952667.303 7 -10872194.092 8
  25701168.753    13590116.893 6  10589714.010 3
  23764257.649    -6936117.694 8  -5404750.146 6
 92  4 13  9 49  0.0070000  0  4 23 21  3 17
  23072001.787   -11636363.895 8  -9067282.152 9
  23227965.512   -13974432.225 7 -10889153.761 7
  25726206.216    13721702.396 5  10692248.034 2
  23776700.832    -6870733.322 8  -5353801.328 5
 92  4 13  9 49 30.0070000  0  4 23 21  3 17
  23080968.878   -11589239.164 8  -9030561.570 9
  23223885.041   -13995889.938 7 -10905874.048 7
  25751303.045    13853561.755 6  10794995.481 2
  23789188.989    -6805101.625 8  -5302659.758 6
 92  4 13  9 50  0.0070000  0  4 23 21  3 17
  23089986.636   -11541849.720 8  -8993634.747 9
  23219860.327   -14017052.992 7 -10922364.717 7
  25776444.237    13985692.041 5  10897954.123 2
  23801726.909    -6739208.925 8  -5251314.825 6
 92  4 13  9 50 30.0070000  0  4 23 21  3 17
  23099053.259   -11494203.127 8  -8956507.546 9
  23215884.779   -14037926.572 7 -10938629.812 8
  25801639.097    14118093.528 5  11001124.080 2
  23814314.894    -6673050.743 8  -5199763.007 6
 92  4 13  9 51  0.0070000  0  4 23 21  3 17
  23108170.247   -11446300.938 8  -8919181.165 9
  23211968.588   -14058515.583 7 -10954673.171 7
  25826886.120    14250759.543 5  11104500.101 2
  23826957.738    -6606630.988 8  -5148007.362 6
 92  4 13  9 51 30.0070000  0  4 23 21  3 17
  23117333.104   -11398133.312 8  -8881647.952 9
  23208107.260   -14078805.861 8 -10970483.756 7
  25852184.106    14383691.548 5  11208083.391 2
  23839646.756    -6539936.096 8  -5096037.342 5
 92  4 13  9 52  0.0070000  0  4 23 21  3 17
  23126548.123   -11349707.340 8  -8843913.426 9
  23204304.396   -14098802.393 7 -10986065.432 7
  25877523.764    14516886.251 5  11311871.333 1
  23852395.431    -6472946.922 8  -5043838.021 6
 92  4 13  9 52 30.0070000  0  4 23 21  3 17
  23135811.711   -11301027.349 8  -8805980.975 8
  23200552.193   -14118504.461 7 -11001417.681 6
  25902919.183    14650341.024 5  11415862.090 3
  23865201.064    -6405662.383 8  -4991408.518 6
 92  4 13  9 53  0.0070000  0  4 23 21  3 17
  23145127.461   -11252084.363 7  -8767843.562 9
  23196861.747   -14137892.735 7 -11016525.399 7
  25928368.865    14784050.285 5  11520051.062 1
  23878058.563    -6338086.891 7  -4938752.321 6
 92  4 13  9 53 30.0070000  0  4 23 21  3 17
  23154486.384   -11202878.141 7  -8729501.056 9
  23193233.960   -14156958.112 7 -11031381.499 7
  25953863.214    14918014.354 5  11624438.544 4
  23890971.524    -6270221.414 8  -4885870.140 5
 92  4 13  9 54  0.0070000  0  4 23 21  3 17
  23163902.862   -11153409.027 8  -8690953.710 9
  23189669.125   -14175697.749 7 -11045983.801 7
  25979403.431    15052229.009 5  11729021.314 3
  23903937.249    -6202088.434 8  -4832779.536 6
 92  4 13  9 54 30.0070000  0  4 23 21  3 17
  23173366.110   -11103688.372 7  -8652210.338 9
  23186166.050   -14194108.316 7 -11060329.670 6
  26004993.416    15186692.456 5  11833797.980 3
  23916952.141    -6133711.651 8  -4779498.963 6
 92  4 13  9 55  0.0070000  0  4 23 21  3 17
  23182872.832   -11053729.021 7  -8613280.981 9
  23182721.434   -14212197.922 7 -11074425.455 7
  26030625.073    15321402.391 5  11938766.685 2
  23930011.696    -6065098.308 8  -4726034.059 5
 92  4 13  9 55 30.0070000  0  4 23 21  3 17
  23192423.921   -11003547.057 7  -8574178.164 9
  23179339.477   -14229988.778 7 -11088288.477 7
  26056297.802    15456355.140 4  12043924.660 3
  23943108.429    -5996246.710 8  -4672383.500 5
 92  4 13  9 56  0.0070000  0  4 23 21  3 17
  23202011.280   -10953148.832 7  -8534906.828 9
  23176008.484   -14247484.253 7 -11101921.315 7
  26082028.685    15591547.786 5  12149269.475 2
  23956257.927    -5927157.222 8  -4618547.569 5
 92  4 13  9 56 30.0070000  0  4 23 21  3 17
  23211643.913   -10902530.637 7  -8495464.071 9
  23172735.647   -14264683.891 7 -11115323.625 8
  26107801.544    15726978.698 5  12254800.000 2
  23969455.392    -5857797.607 8  -4564501.153 6
 92  4 13  9 57  0.0070000  0  4 23 21  3 17
  23221321.512   -10851671.860 7  -8455833.844 9
  23169517.378   -14281579.982 8 -11128489.407 8
  26133620.869    15862642.989 5  12360512.382 1
  23982709.216    -5788151.567 8  -4510231.540 6
 92  4 13  9 57 30.0070000  0  4 23 21  3 17
  23231048.878   -10800552.763 7  -8416000.795 9
  23166366.859   -14298160.247 8 -11141409.074 8
  26159471.674    15998541.630 5  12466407.428 2
  23996015.805    -5718215.063 8  -4455735.600 6
 92  4 13  9 58  0.0070000  0  4 23 21  3 17
  23240830.210   -10749161.829 7  -8375955.938 9
  23163272.102   -14314414.500 8 -11154074.718 7
  26185377.940    16134670.879 4  12572482.075 2
  24009378.755    -5647986.217 8  -4401011.838 6
 92  4 13  9 58 30.0080000  0  4 23 21  3 17
  23250661.901   -10697499.851 7  -8335699.859 8
  23160239.100   -14330348.294 8 -11166490.649 7
  26211335.469    16271031.719 5  12678737.189 1
  24022799.563    -5577472.690 8  -4346066.266 6
 92  4 13  9 59  0.0080000  0  4 23 21  3 17
  23260535.265   -10645592.607 7  -8295252.662 9
  23157266.059   -14345960.715 7 -11178656.165 7
  26237310.690    16407612.442 4  12785163.699 2
  24036266.538    -5506705.299 8  -4290922.863 6
 92  4 13  9 59 30.0080000  0  4 23 21  3 17
  23270455.997   -10593457.274 7  -8254627.726 9
  23154359.869   -14361255.766 7 -11190574.377 7
  26263351.262    16544414.102 4  12891762.382 2
  24049783.280    -5435680.483 8  -4235578.895 6
 92  4 13 10  0  0.0080000  0  4 23 21  3 17
  23280419.299   -10541105.191 7  -8213833.896 9
  23151508.542   -14376237.618 7 -11202248.538 7
  26289432.305    16681434.354 4  12998531.333 3
  24063345.890    -5364390.414 8  -4180028.228 6
 92  4 13 10  0 30.0080000  0  4 23 21  3 17
  23290425.176   -10488543.351 7  -8172876.618 9
  23148717.777   -14390908.420 7 -11213680.322 6
  26315542.729    16818670.250 4  13105468.336 3
  24076963.665    -5292843.981 8  -4124277.796 6
 92  4 13 10  1  0.0080000  0  4 23 21  3 17
  23300471.218   -10435756.330 7  -8131743.904 9
  23145980.671   -14405260.613 7 -11224863.847 6
  26341700.519    16956119.447 5  13212571.586 2
  24090634.200    -5221027.974 8  -4068317.303 5
 92  4 13 10  1 30.0080000  0  5 23 21  3 11 17
  23310561.335   -10382725.933 8  -8090421.520 9
  23143311.617   -14419302.800 7 -11235805.798 7
  26367907.779    17093777.893 5  13319837.869 2
  26415126.886      -74550.53015    -58090.789 3
  24104349.404    -5148930.677 8  -4012137.635 5
 92  4 13 10  2  0.0080000  0  5 23 21  3 11 17
  23320698.215   -10329447.353 8  -8048905.755 9
  23140694.730   -14433043.156 7 -11246512.565 8
  26394124.328    17231642.403 5  13427264.684 2
  26397418.449     -167618.073 4   -130610.931 2
  24118119.175    -5076564.740 8  -3955748.652 5
 92  4 13 10  2 30.0080000  0  5 23 21  3 11 17
  23330883.366   -10275924.268 7  -8007199.460 8
  23138139.298   -14446487.909 7 -11256988.981 7
  26420409.233    17369709.019 5  13534848.969 2
  26379730.393     -260554.731 4   -203029.015 1
  24131938.704    -5003935.542 8  -3899154.519 5
 92  4 13 10  3  0.0080000  0  5 23 21  3 11 17
  23341112.583   -10222157.992 7  -7965303.671 9
  23135632.435   -14459643.972 7 -11267240.457 7
  26446721.116    17507982.107 5  13642594.197 2
  26362078.015     -353350.504 5   -275337.354 1
  24145813.102    -4931025.065 8  -3842341.181 5
 92  4 13 10  3 30.0080000  0  5 23 21  3 11 17
  23351385.871   -10168171.395 7  -7923236.194 9
  23133187.027   -14472524.662 7 -11277277.345 8
  26473065.077    17646454.839 5  13750494.974 2
  26344437.625     -446005.925 5   -347536.408 2
  24159745.657    -4857835.261 8  -3785310.200 6
 92  4 13 10  4  0.0080000  0  5 23 21  3 11 17
  23361695.735   -10113980.464 7  -7881009.509 9
  23130787.190   -14485123.204 7 -11287094.353 8
  26499462.104    17785124.507 5  13858549.236 3
  26326838.308     -538518.612 5   -419624.141 3
  24173721.083    -4784375.205 8  -3728068.614 6
 92  4 13 10  4 30.0080000  0  5 23 21  3 11 17
  23372049.067   -10059597.242 7  -7838632.960 9
  23128448.507   -14497429.021 7 -11296683.274 8
  26525877.716    17923985.594 5  13966752.567 4
  26309259.678     -630888.049 5   -491600.301 2
  24187751.969    -4710640.030 8  -3670612.656 6
 92  4 13 10  5  0.0080000  0  5 23 21  3 11 17
  23382435.078   -10005017.174 7  -7796103.049 9
  23126163.488   -14509432.318 7 -11306036.482 9
  26552334.401    18063037.757 4  14075104.820 3
  26291714.924     -723108.782 5   -563460.539 1
  24201836.516    -4636628.907 8  -3612941.674 6
 92  4 13 10  5 30.0080000  0  5 23 21  3 11 17
  23392857.662    -9950245.933 7  -7753424.170 9
  23123938.429   -14521114.867 7 -11315139.754 9
  26578836.653    18202277.356 4  14183603.144 2
  26274191.158     -815178.868 4   -635203.545 2
  24215973.530    -4562346.627 8  -3555059.411 6
 92  4 13 10  6  0.0080000  0  5 23 21  3 11 17
  23403318.321    -9895278.117 7  -7710592.111 9
  23121776.626   -14532469.241 7 -11323987.307 8
  26605371.284    18341702.865 5  14292246.329 3
  26256689.270     -907093.900 3   -706825.497 2
  24230157.312    -4487803.992 8  -3496974.263 6
 92  4 13 10  6 30.0080000  0  4 23 21  3 17
  23413818.549    -9840103.772 8  -7667599.106 9
  23119675.681   -14543512.333 7 -11332592.297 9
  26631937.391    18481310.351 4  14401031.322 1
  24244393.557    -4412995.068 8  -3438681.639 5
 92  4 13 10  7  0.0080000  0  4 23 21  3 17
  23424358.053    -9784715.574 8  -7624439.466 9
  23117631.697   -14554264.476 7 -11340970.571 9
  26658534.381    18621097.317 4  14509956.097 3
  24258680.465    -4337919.326 8  -3380181.089 5
 92  4 13 10  7 30.0080000  0  4 23 21  3 17
  23434940.127    -9729114.929 8  -7581114.302 9
  23115637.478   -14564728.639 7 -11349124.457 8
  26685167.941    18761061.799 5  14619019.220 2
  24273015.343    -4262582.493 8  -3321477.094 6
 92  4 13 10  8  0.0080000  0  4 23 21  3 17
  23445561.477    -9673287.867 8  -7537612.697 9
  23113698.719   -14574923.397 7 -11357068.402 8
  26711838.980    18901200.199 4  14728217.832 2
  24287399.981    -4186986.914 8  -3262571.479 6
 92  4 13 10  8 30.0080000  0  4 23 21  3 17
  23456228.991    -9617231.625 8  -7493932.530 9
  23111813.926   -14584840.298 7 -11364795.837 8
  26738535.798    19041511.686 4  14837551.286 2
  24301835.887    -4111126.314 8  -3203459.358 6
 92  4 13 10  9  0.0080000  0  4 23 21  3 17
  23466938.774    -9560950.219 8  -7450076.890 8
  23109981.893   -14594449.655 7 -11372283.636 9
  26765269.789    19181991.166 4  14947015.728 2
  24316318.263    -4035010.713 8  -3144148.532 6
 92  4 13 10  9 30.0080000  0  4 23 21  3 17
  23477690.534    -9504446.753 8  -7406048.237 8
  23108218.814   -14603731.425 7 -11379516.177 9
  26792031.661    19322636.680 4  15056609.491 3
  24330853.400    -3958639.717 8  -3084638.708 6
 92  4 13 10 10  0.0080000  0  4 23 21  3 17
  23488485.160    -9447721.487 8  -7361846.736 8
  23106518.090   -14612669.412 7 -11386480.833 8
  26818833.407    19463447.623 4  15166332.407 1
  24345439.204    -3881999.571 8  -3024919.138 4
 92  4 13 10 10 30.0080000  0  4 23 21  3 17
  23499315.463    -9390789.567 7  -7317484.217 8
  23104880.326   -14621263.062 7 -11393177.176 9
  26845657.040    19604418.850 4  15276180.250
  24360074.170    -3805091.805 8  -2964991.047 5
 92  4 13 10 11  0.0080000  0  4 23 21  3 17
  23510193.131    -9333652.066 7  -7272961.497 8
  23103309.710   -14629532.959 7 -11399621.248 9
  26872507.650    19745548.775 3  15386151.556 2
  24374764.601    -3727904.895 8  -2904845.436 4
 92  4 13 10 11 30.0080000  0  4 23 21  3 17
  23521103.177    -9276320.991 7  -7228287.935 8
  23101786.765   -14637512.971 7 -11405839.423 9
  26899404.430    19886832.623 4  15496242.656 1
  24389500.001    -3650438.866 8  -2844482.332 5
 92  4 13 10 12  0.0080000  0  4 23 21  3 17
  23532050.100    -9218792.049 7  -7183460.176 8
  23100323.778   -14645222.993 7 -11411847.223 9
  26926322.194    20028269.691 5  15606453.320 3
  24404295.059    -3572701.836 8  -2783908.059 5
 92  4 13 10 12 30.0080000  0  5 23 21  3 11 17
  23543035.095    -9161065.683 7  -7138478.576 8
  23098901.262   -14652682.163 7 -11417659.553 9
  26953254.349    20169852.049 5  15716777.086 3
  26032261.339      -14922.60314    -11627.003 1
  24419136.883    -3494708.331 8  -2723133.926 5
 92  4 13 10 13  0.0080000  0  5 23 21  3 11 17
  23554058.166    -9103137.097 7  -7093339.424 9
  23097530.914   -14659872.122 6 -11423262.115 9
  26980230.877    20311579.881 4  15827214.269 2
  26015249.318     -104354.151 4    -81313.751 2
  24434027.874    -3416457.448 8  -2662159.250 5
 92  4 13 10 13 30.0080000  0  5 23 21  3 11 17
  23565117.508    -9045011.208 8  -7048046.526 9
  23096219.020   -14666777.058 7 -11428642.582 9
  27007216.094    20453451.095 4  15937763.534 2
  25998260.380     -193585.299 4   -150844.498 2
  24448965.932    -3337958.720 8  -2600991.437 4
 92  4 13 10 14  0.0080000  0  5 23 21  3 11 17
  23576215.227    -8986688.685 8  -7002600.405 9
  23094959.293   -14673379.959 6 -11433787.683 8
  27034239.985    20595461.211 4  16048420.626 2
  25981314.312     -282614.206 4   -220217.681 2
  24463955.857    -3259193.291 8  -2539615.805 5
 92  4 13 10 14 30.0080000  0  4 23 21 11 17
  23587351.917    -8928171.369 8  -6957002.498 9
  23093768.215   -14679661.800 6 -11438682.620 8
  25964418.007     -371435.450 4   -289429.059 1
  24478998.542    -3180140.745 8  -2478016.455 4
 92  4 13 10 15  0.0080000  0  4 23 21 11 17
  23598523.083    -8869465.818 8  -6911257.929 9
  23092629.907   -14685630.958 7 -11443333.908 9
  25947549.885     -460047.123 4   -358476.938 2
  24494096.392    -3100794.985 7  -2416188.618 5
 92  4 13 10 15 30.0080000  0  4 23 21 11 17
  23609731.123    -8810566.078 8  -6865362.034 9
  23091551.553   -14691299.871 7 -11447751.229 8
  25930735.724     -548443.977 5   -427357.668 1
  24509251.500    -3021164.268 7  -2354138.759 5
 92  4 13 10 16  0.0080000  0  4 23 21 11 17
  23620980.833    -8751462.511 8  -6819307.294 9
  23090529.258   -14696672.599 6 -11451937.755 8
  25913957.239     -636628.155 5   -496072.612 2
  24524453.973    -2941263.850 7  -2291878.701 5
 92  4 13 10 16 30.0080000  0  3 23 21 17
  23632266.522    -8692150.925 8  -6773090.471 9
  23089563.629   -14701749.681 7 -11455893.924 8
  24539704.416    -2861123.045 8  -2229431.352 2
 92  4 13 10 17  0.0080000  0  3 23 21 17
  23643592.084    -8632633.462 8  -6726713.248 9
  23088656.457   -14706529.104 7 -11459618.123 8
  24555000.125    -2780754.595 7  -2166806.636 5
 92  4 13 10 17 30.0080000  0  3 23 21 17
  23654958.715    -8572918.423 8  -6680182.031 8
  23087799.948   -14710997.841 7 -11463100.243 7
  24570336.009    -2700153.110 7  -2104000.308 5
 92  4 13 10 18  0.0080000  0  3 23 21 17
  23666353.223    -8513014.767 8  -6633503.853 8
  23087013.894   -14715157.799 7 -11466341.763 8
  24585722.857    -2619291.242 7  -2040991.067 5
 92  4 13 10 18 30.0080000  0  3 23 21 17
  23677788.508    -8452939.071 8  -6586691.640 9
  23086277.303   -14719027.304 7 -11469356.942 9
  24601163.368    -2538154.583 7  -1977767.745 3
 92  4 13 10 19  0.0080000  0  3 23 21 17
  23689251.071    -8392685.931 8  -6539741.162 9
  23085593.176   -14722619.068 7 -11472155.708 9
  24616659.340    -2456726.809 7  -1914317.575 4
 92  4 13 10 19 30.0080000  0  3 23 21 17
  23700751.712    -8332255.771 8  -6492652.727 8
  23084961.814   -14725943.782 7 -11474746.382 9
  24632206.577    -2375013.461 7  -1850644.880 4
 92  4 13 10 20  0.0080000  0  3 23 21 17
  23712285.926    -8271637.042 8  -6445417.365 8
  23084375.718   -14729002.392 7 -11477129.712 9
  24647809.876    -2293027.268 7  -1786759.569 4
 92  4 13 10 20 30.0080000  0  3 23 21 17
  23723857.017    -8210835.340 8  -6398039.421 9
  23083847.186   -14731782.308 7 -11479295.864 8
  24663461.439    -2210791.921 7  -1722680.127 4
 92  4 13 10 21  0.0080000  0  3 23 21 17
  23735461.381    -8149862.734 8  -6350528.285 8
  23083378.312   -14734263.088 6 -11481228.925 9
  24679154.677    -2128307.478 7  -1658406.545 5
 92  4 13 10 21 30.0080000  0  3 23 21 17
  23747092.431    -8088719.998 7  -6302884.591 9
  23082960.697   -14736432.548 6 -11482919.410 8
  24694897.679    -2045573.829 7  -1593938.805 5
 92  4 13 10 22  0.0080000  0  3 23 21 17
  23758758.255    -8027409.059 7  -6255109.848 7
  23082610.842   -14738289.278 7 -11484366.199 9
  24710693.442    -1962578.902 7  -1529267.489 5
 92  4 13 10 22 30.0080000  0  3 23 21 17
  23770457.653    -7965927.593 8  -6207202.241 8
  23082317.945   -14739836.021 7 -11485571.445 9
  24726537.175    -1879312.357 7  -1464384.491 4
 92  4 13 10 23  0.0080000  0  3 23 21 17
  23782195.429    -7904265.831 8  -6159154.110 7
  23082078.109   -14741087.169 7 -11486546.348 9
  24742436.369    -1795768.237 7  -1399285.229 6
 92  4 13 10 23 30.0080000  0  3 23 21 17
  23793966.779    -7842407.439 8  -6110952.764 8
  23081892.238   -14742057.431 7 -11487302.392 9
  24758383.827    -1711951.788 7  -1333973.712 5
 92  4 13 10 24  0.0080000  0  3 23 21 17
  23805771.406    -7780365.040 8  -6062608.033 8
  23081757.932   -14742761.364 7 -11487850.921 9
  24774391.544    -1627857.089 7  -1268445.419 5
 92  4 13 10 24 30.0080000  0  3 23 21 17
  23817615.907    -7718134.498 8  -6014116.712 7
  23081676.388   -14743204.750 7 -11488196.406 9
  24790442.132    -1543493.886 7  -1202707.898 5
 92  4 13 10 25  0.0080000  0  3 23 21 17
  23829491.888    -7655724.912 8  -5965485.870 7
  23081643.712   -14743391.678 7 -11488342.077 9
  24806545.184    -1458867.848 7  -1136765.562 5
 92  4 13 10 25 30.0080000  0  3 23 21 17
  23841401.439    -7593138.812 8  -5916717.478 7
  23081650.906   -14743320.149 7 -11488286.344 9
  24822697.403    -1373978.769 7  -1070618.266 5
 92  4 13 10 26  0.0080000  0  3 23 21 17
  23853343.976    -7530378.382 8  -5867813.276 8
  23081718.360   -14742975.493 7 -11488017.782 9
  24838904.183    -1288833.252 7  -1004271.138 3
 92  4 13 10 26 30.0080000  0  3 23 21 17
  23865321.282    -7467438.511 8  -5818769.231 7
  23081839.176   -14742339.062 7 -11487521.837 9
  24855152.635    -1203448.581 7   -937737.695 3
 92  4 13 10 27  0.0080000  0  3 23 21 17
  23877328.571    -7404333.125 8  -5769596.206 7
  23082018.451   -14741399.338 7 -11486789.587 9
  24871444.856    -1117826.368 7   -871019.111 2
 92  4 13 10 27 30.0080000  0  3 23 21 17
  23889367.935    -7341061.387 8  -5720293.560 7
  23082258.584   -14740151.188 7 -11485816.987 9
  24887783.844    -1031966.216 7   -804115.127 4
 92  4 13 10 28  0.0080000  0  3 23 21 17
  23901439.079    -7277628.816 8  -5670865.590 8
  23082551.481   -14738593.947 7 -11484603.539 9
  24904163.905     -945865.686 7   -737023.862 2
 92  4 13 10 28 30.0080000  0  3 23 21 17
  23913540.199    -7214039.897 8  -5621315.774 6
  23082904.639   -14736745.101 7 -11483162.872 9
  24920601.225     -859511.774 7   -669735.119 2
 92  4 13 10 29  0.0080000  0  3 23 21 17
  23925672.502    -7150291.955 8  -5571642.076 7
  23083309.658   -14734619.541 7 -11481506.578 9
  24937083.815     -772886.188 7   -602234.699 4
 92  4 13 10 29 30.0080000  0  3 23 21 17
  23937835.081    -7086371.918 8  -5521834.259 8
  23083768.342   -14732227.084 7 -11479642.332 9
  24953621.566     -685980.756 7   -534516.253 5
 92  4 13 10 30  0.0080000  0  3 23 21 17
  23950027.640    -7022288.461 7  -5471899.141 8
  23084272.592   -14729569.202 7 -11477571.262 9
  24970208.185     -598800.585 7   -466583.670 5
 92  4 13 10 30 30.0080000  0  3 23 21 17
  23962255.876    -6958042.847 8  -5421837.612 7
  23084829.607   -14726638.887 7 -11475287.889 9
  24986855.060     -511350.750 7   -398440.963 6
 92  4 13 10 31  0.0080000  0  3 23 21 17
  23974510.191    -6893634.249 8  -5371649.084 7
  23085440.583   -14723417.662 7 -11472777.850 9
  25003544.209     -423634.502 7   -330090.639 4
 92  4 13 10 31 30.0080000  0  3 23 21 17
  23986796.287    -6829074.169 8  -5321342.523 7
  23086108.821   -14719893.040 7 -11470031.387 9
  25020281.620     -335662.925 7   -261541.389 3
 92  4 13 10 32  0.0080000  0  3 23 21 17
  23999111.163    -6764371.140 8  -5270924.604 7
  23086840.910   -14716052.809 6 -11467038.984 9
  25037072.695     -247432.818 7   -192790.699 4
 92  4 13 10 32 30.0080000  0  3 23 21 17
  24011450.618    -6699514.283 8  -5220386.794 7
  23087632.365   -14711899.546 6 -11463802.653 9
  25053915.636     -158932.411 7   -123829.388 4
 92  4 13 10 33  0.0080000  0  3 23 21 17
  24023821.553    -6634499.525 8  -5169725.942 7
  23088481.078   -14707449.207 6 -11460334.847 9
  25070809.240      -70164.519 7    -54659.635 4
 92  4 13 10 33 30.0080000  0  3 23 21 17
  24036223.968    -6569329.439 8  -5118944.054 8
  23089376.859   -14702724.754 6 -11456653.439 8
  25087746.317       18852.741 7     14704.453 3
 92  4 13 10 34  0.0080000  0  3 23 21 17
  24048658.762    -6503987.043 7  -5068027.889 6
  23090329.000   -14697738.874 7 -11452768.347 9
  25104732.555      108118.740 7     84262.345 5
 92  4 13 10 34 30.0080000  0  3 23 21 17
  24061127.728    -6438459.345 7  -5016967.366 6
  23091323.108   -14692506.830 7 -11448691.396 9
  25121765.865      197618.488 7    154002.370 3
 92  4 13 10 35  0.0080000  0  3 23 21 17
  24073631.773    -6372756.016 7  -4965769.958 7
  23092367.586   -14687030.304 7 -11444423.966 9
  25138841.143      287345.844 7    223919.784 4
 92  4 13 10 35 30.0080000  0  3 23 21 17
  24086168.794    -6306886.237 8  -4914442.869 7
  23093459.429   -14681293.669 7 -11439953.844 9
  25155958.393      377305.352 7    294018.072 4
 92  4 13 10 36  0.0080000  0  3 23 21 17
  24098729.195    -6240858.704 8  -4862992.845 7
  23094600.739   -14675283.968 7 -11435270.949 9
  25173122.410      467515.960 7    364312.022 4
 92  4 13 10 36 30.0080000  0  3 23 21 17
  24111323.179    -6174694.015 8  -4811435.972 6
  23095796.013   -14668986.962 7 -11430364.193 9
  25190344.287      557993.482 7    434813.951 3
 92  4 13 10 37  0.0080000  0  3 23 21 17
  24123933.347    -6108414.450 8  -4759789.570 7
  23097050.946   -14662398.255 7 -11425230.141 9
  25207610.235      648740.596 7    505525.955 4
 92  4 13 10 37 30.0080000  0  5 23 21 11 17 12
  24136569.303    -6042007.138 7  -4708043.611 7
  23098363.438   -14655516.983 7 -11419868.100 9
  25240089.152      -12608.49715     -9823.464 2
  25224924.450      739754.841 6    576446.117 4
  27100027.040    -3267854.86815  -2546392.948 2
 92  4 13 10 38  0.0080000  0  5 23 21 11 17 12
  24149231.635    -5975465.620 8  -4656193.065 7
  23099724.493   -14648360.715 7 -11414291.778 9
  25225734.188      -88047.761 5    -68607.249 2
  25242297.721      831035.512 7    647573.912 4
  27091589.982    -3312177.692 5  -2580930.186 2
 92  4 13 10 38 30.0080000  0  5 23 21 11 17 12
  24161923.348    -5908771.187 8  -4604223.369 7
  23101140.413   -14640929.103 7 -11408500.899 9
  25211446.081     -163121.521 5   -127106.287 2
  25259718.959      922576.951 7    718904.876 5
  27083232.370    -3356095.940 5  -2615152.164 2
 92  4 13 10 39  0.0080000  0  5 23 21 11 17 12
  24174650.739    -5841904.478 8  -4552119.457 8
  23102598.304   -14633236.218 6 -11402506.418 9
  25197232.320     -237828.794 5   -185319.764
  25277190.867     1014366.826 7    790429.412 4
  27074956.299    -3399608.639 5  -2649058.025 2
 92  4 13 10 39 30.0080000  0  5 23 21 11 17 12
  24187408.405    -5774859.946 8  -4499876.972 7
  23104115.553   -14625275.750 7 -11396303.470 9
  25183086.912     -312165.607 5   -243244.556 2
  25294703.539     1106405.620 7    862147.933 4
  27066745.282    -3442711.772 5  -2682644.837 2
 92  4 13 10 40  0.0080000  0  5 23 21 11 17 12
  24200198.150    -5707651.304 7  -4447506.595 9
  23105683.468   -14617035.773 7 -11389882.711 9
  25169010.755     -386126.851 5   -300876.696 2
  25312267.183     1198699.826 7    934065.461 5
  27058621.207    -3485400.422 5  -2715908.659 1
 92  4 13 10 40 30.0080000  0  5 23 21 11 17 12
  24213014.279    -5640294.160 7  -4395020.503 8
  23107307.743   -14608515.331 7 -11383243.372 8
  25155012.247     -459712.285 5   -358215.955 2
  25329874.291     1291242.050 7   1006176.271 4
  27050571.177    -3527674.441 5  -2748849.372 1
 92  4 13 10 41  0.0080000  0  5 23 21 11 17 12
  24225858.289    -5572800.234 7  -4342427.842 8
  23108973.990   -14599712.087 6 -11376383.702 8
  25141079.391     -532916.412 5   -415258.151 3
  25347530.269     1384025.959 7   1078475.415 4
  27042616.788    -3569528.304 6  -2781462.706 3
 92  4 13 10 41 30.0080000  0  5 23 21 11 17 12
  24238724.182    -5505192.007 7  -4289746.097 7
  23110706.792   -14590623.959 7 -11369302.008 9
  25127227.482     -605738.433 5   -472002.592 2
  25365235.413     1477054.219 7   1150964.937 4
  27034741.238    -3610961.573 6  -2813748.357 3
 92  4 13 10 42  0.0080000  0  5 23 21 11 17 12
  24251611.957    -5437466.742 7  -4236973.155 7
  23112486.959   -14581262.251 6 -11362007.155 9
  25113438.530     -678173.447 5   -528445.466 3
  25382983.126     1570326.073 7   1223644.267 4
  27026925.050    -3651969.385 6  -2845702.493 4
 92  4 13 10 42 30.0080000  0  5 23 21 11 17 12
  24264524.019    -5369608.621 7  -4184096.708 7
  23114326.487   -14571634.784 7 -11354505.216 9
  25099729.019     -750215.607 5   -584582.215 2
  25400774.910     1663841.183 6   1296513.139 4
  27019212.586    -3692546.167 6  -2877320.610 1
 92  4 13 10 43  0.0080000  0  5 23 21 11 17 12
  24277462.165    -5301623.103 7  -4131120.978 5
  23116205.286   -14561747.781 7 -11346801.053 9
  25086102.253     -821866.478 4   -640414.045 3
  25418621.854     1757597.836 7   1369570.237 4
  27011567.581    -3732693.289 6  -2908603.939 3
 92  4 13 10 43 30.0080000  0  5 23 21 11 17 12
  24290421.290    -5233507.189 8  -4078043.651 5
  23118131.149   -14551604.493 7 -11338897.192 9
  25072536.044     -893119.418 5   -695935.745 4
  25436508.672     1851607.226 7   1442824.284 3
  27004009.813    -3772404.405 6  -2939547.704 2
 92  4 13 10 44  0.0080000  0  5 23 21 11 17 12
  24303413.697    -5165251.188 8  -4024857.176 6
  23120114.580   -14541204.883 7 -11330793.586 9
  25059052.278     -963972.771 5   -751146.116 3
  25454451.850     1945862.586 7   1516269.979 4
  26996541.983    -3811678.175 6  -2970150.592 2
 92  4 13 10 44 30.0080000  0  5 23 21 11 17 12
  24316426.189    -5096862.593 8  -3971567.391 6
  23122141.475   -14530539.697 7 -11322483.016 9
  25045646.458    -1034424.438 6   -806043.477 2
  25472427.707     2040361.926 7   1589905.828 4
  26989147.004    -3850512.606 6  -3000411.030 3
 92  4 13 10 45  0.0080000  0  5 23 21 11 17 12
  24329463.861    -5028341.789 8  -3918174.557 6
  23124222.632   -14519597.364 7 -11313956.524 9
  25032322.484    -1104469.611 6   -860624.095 2
  25490454.825     2135102.109 7   1663729.308 4
  26981839.263    -3888903.149 6  -3030325.707 2
 92  4 13 10 45 30.0080000  0  5 23 21 11 17 12
  24342530.318    -4959683.964 8  -3864674.925 6
  23126358.355   -14508377.104 7 -11305213.441 9
  25019069.859    -1174104.793 6   -914885.257 2
  25508525.114     2230077.350 6   1737735.945 3
  26974622.058    -3926846.525 6  -3059891.957 2
 92  4 13 10 46  0.0080000  0  5 23 21 11 17 12
  24355623.452    -4890887.708 8  -3811067.464 6
  23128548.641   -14496869.125 7 -11296246.162 9
  25005890.683    -1243328.117 6   -968825.484 2
  25526643.073     2325285.578 6   1811924.132 4
  26967485.800    -3964341.041 6  -3089108.373 1
 92  4 13 10 46 30.0080000  0  5 23 21 11 17 12
  24368736.676    -4821949.606 7  -3757349.494 5
  23130796.482   -14485070.587 7 -11287052.470 9
  24992799.045    -1312135.428 6  -1022441.568 2
  25544810.796     2420725.459 6   1886292.854 4
  26960435.280    -4001382.996 6  -3117972.153 2
 92  4 13 10 47  0.0080000  0  5 23 21 11 17 12
  24381886.772    -4752865.800 7  -3703517.946 5
  23133096.491   -14472987.842 7 -11277637.344 9
  24979785.654    -1380521.053 6  -1075729.007 4
  25563018.990     2516403.522 6   1960847.184 3
  26953472.599    -4037966.639 6  -3146478.838 2
 92  4 13 10 47 30.0080000  0  5 23 21 11 17 12
  24395058.453    -4683651.122 8  -3649584.417 6
  23135445.665   -14460637.330 7 -11268013.561 9
  24966853.808    -1448483.271 6  -1128686.565 2
  25581265.557     2612326.253 6   2035592.158 3
  26946597.161    -4074090.579 6  -3174627.359 2
 92  4 13 10 48  0.0080000  0  5 23 21 11 17 12
  24408256.515    -4614297.918 8  -3595542.962 6
  23137847.600   -14448017.678 7 -11258180.043 9
  24954004.703    -1516019.187 6  -1181311.954 2
  25599566.988     2708489.644 6   2110524.621 4
  26939817.053    -4109752.362 6  -3202415.623 2
 92  4 13 10 48 30.0090000  0  5 23 21 11 17 12
  24721271.619    -4544800.538 8  -3541389.169 6
  23440089.663   -14435148.129 7 -11248151.824 9
  25241023.902    -1583123.241 6  -1233600.785 3
  25917713.642     2804895.036 7   2185645.678 5
  27232915.146    -4144946.514 5  -3229839.570 3
 92  4 13 10 49  0.0090000  0  5 23 21 11 17 12
  24434731.788    -4475162.277 8  -3487125.588 6
  23142787.581   -14422050.331 7 -11237945.735 9
  24928543.630    -1649794.525 6  -1285552.419 2
  25636307.452     2901549.361 7   2260960.695 4
  26926505.668    -4179671.537 5  -3256897.966 2
 92  4 13 10 49 30.0090000  0  5 23 21 11 17 12
  24448008.996    -4405390.650 8  -3432758.089 6
  23145321.126   -14408724.859 7 -11227562.243 9
  24915944.852    -1716030.479 6  -1337164.814 2
  25654744.990     2998433.358 6   2336454.693 3
  26919982.786    -4213927.108 5  -3283590.540 2
 92  4 13 10 50  0.0090000  0  5 23 21 11 17 12
  24461314.386    -4335474.505 8  -3378277.998 7
  23147904.138   -14395167.287 7 -11216997.888 9
  24903422.519    -1781829.855 6  -1388437.046 1
  25673224.199     3095556.361 6   2412134.932 5
  26913566.328    -4247711.348 5  -3309915.883 3
 92  4 13 10 50 30.0090000  0  5 23 21 11 17 12
  24474641.658    -4265434.423 7  -3323701.298 7
  23150526.125   -14381377.579 7 -11206252.642 9
  24890979.035    -1847186.676 5  -1439364.432 2
  25691757.067     3192927.083 6   2488008.199 4
  26907226.917    -4281018.626 5  -3335869.569 2
 92  4 13 10 51  0.0090000  0  5 23 21 11 17 12
  24487992.915    -4195274.656 7  -3269031.354 8
  23153200.571   -14367335.252 7 -11195310.554 9
  24878629.982    -1912097.877 5  -1489944.557 1
  25710325.312     3290540.088 6   2564070.269 5
  26900971.746    -4313846.221 5  -3361449.496 4
 92  4 13 10 51 30.0090000  0  5 23 21 11 17 12
  24501367.857    -4124991.685 7  -3214265.408 9
  23155928.385   -14353008.534 7 -11184146.879 8
  24866364.272    -1976559.291 6  -1540174.170 3
  25728950.518     3388405.366 6   2640328.917 4
  26894815.807    -4346190.388 6  -3386652.688 2
 92  4 13 10 52  0.0090000  0  5 23 21 11 17 12
  24514764.682    -4054578.891 7  -3159398.286 8
  23158707.458   -14338391.645 7 -11172757.075 8
  24854183.405    -2040568.151 6  -1590051.206 4
  25747630.884     3486526.047 7   2716786.540 4
  26888759.997    -4378048.662 6  -3411477.192 2
 92  4 13 10 52 30.0090000  0  5 23 21 11 17 12
  24528189.086    -3984031.068 7  -3104425.944 7
  23161544.698   -14323469.275 7 -11161129.254 9
  24842089.780    -2104120.474 5  -1639572.482 3
  25766343.630     3584888.825 6   2793432.789 4
  26882793.527    -4409417.347 6  -3435920.257 3
 92  4 13 10 53  0.0090000  0  5 23 21 11 17 12
  24541643.776    -3913340.965 7  -3049342.745 6
  23164443.389   -14308239.396 7 -11149261.794 8
  24830081.592    -2167213.613 5  -1688735.955 2
  25785112.438     3683495.091 6   2870268.830 2
  26876914.300    -4440294.174 6  -3459979.955 2
 92  4 13 10 53 30.0090000  0  5 23 21 11 17 12
  24555119.746    -3842520.441 7  -2994157.922 6
  23167402.941   -14292703.662 7 -11137156.009 8
  24818163.643    -2229845.639 5  -1737540.106 3
  25803918.420     3782345.600 6   2947295.209 3
  26871130.705    -4470677.707 6  -3483655.412 2
 92  4 13 10 54  0.0090000  0  5 23 21 11 17 12
  24568620.298    -3771580.701 7  -2938880.186 6
  23170412.558   -14276885.146 7 -11124829.864 8
  24806338.032    -2292011.327 5  -1785980.884 2
  25822769.367     3881428.702 6   3024502.794 2
  26865445.738    -4500563.145 5  -3506942.716 2
 92  4 13 10 54 30.0090000  0  5 23 21 11 17 12
  24582136.443    -3700549.654 8  -2883531.316 5
  23173477.336   -14260801.650 7 -11112297.266 8
  24794591.863    -2353709.490 5  -1834057.400 1
  25841673.083     3980740.748 6   3101888.778 3
  26859851.613    -4529949.629 5  -3529841.218 3
 92  4 13 10 55  0.0090000  0  5 23 21 11 17 12
  24595667.874    -3629434.535 8  -2828116.953 5
  23176580.486   -14244471.646 7 -11099572.563 7
  24782941.028    -2414937.438 5  -1881767.493 3
  25860614.269     4080280.947 6   3179452.526 2
  26854354.319    -4558835.016 5  -3552349.225 2
 92  4 13 10 55 30.0090000  0  5 23 21 11 17 12
  24609220.590    -3558223.817 8  -2772628.077 4
  23179730.704   -14227907.374 7 -11086665.337 7
  24771376.835    -2475691.837 5  -1929108.574 2
  25879593.828     4180034.609 6   3257182.646 3
  26848947.260    -4587216.535 5  -3574464.620 3
 92  4 13 10 56  0.0090000  0  5 23 21 11 17 12
  24622788.300    -3486907.136 7  -2717056.620 6
  23182926.494   -14211128.720 7 -11073591.046 7
  24759911.570    -2535969.872 5  -1976078.464 2
  25898617.458     4279989.068 6   3335069.221 4
  26843648.728    -4615091.496 5  -3596185.316 2
 92  4 13 10 56 30.0090000  0  5 23 21 11 17 12
  24636385.087    -3415466.423 8  -2661388.547 7
  23186163.055   -14194119.992 7 -11060337.480 7
  24748528.152    -2595767.199 5  -2022673.760 2
  25917664.772     4380136.835 6   3413106.421 4
  26838445.230    -4642456.220 5  -3617508.408 2
 92  4 13 10 57  0.0090000  0  5 23 21 11 17 12
  24650006.757    -3343881.523 8  -2605608.125 6
  23189444.582   -14176879.304 7 -11046903.182 8
  24737242.163    -2655083.517 5  -2068894.239 3
  25936758.255     4480469.595 6   3491287.769 4
  26833332.870    -4669310.810 6  -3638434.031 4
 92  4 13 10 57 30.0090000  0  5 23 21 11 17 12
  24663656.605    -3272151.555 7  -2549714.647 6
  23192770.480   -14159393.092 7 -11033277.551 8
  24726050.313    -2713911.806 5  -2114734.456 1
  25955889.810     4581001.470 6   3569624.275 3
  26828318.240    -4695648.810 5  -3658957.070 2
 92  4 13 10 58  0.0090000  0  5 23 21 11 17 12
  24677329.540    -3200293.604 7  -2493721.440 6
  23196149.440   -14141647.448 6 -11019449.751 8
  24714945.998    -2772251.616 5  -2160194.037 3
  25975067.534     4681750.441 6   3648129.938 4
  26823406.741    -4721470.425 5  -3679077.714 1
 92  4 13 10 58 30.0090000  0  5 23 21 11 17 12
  24691026.757    -3128315.910 8  -2437634.937 6
  23199573.971   -14123631.118 6 -11005411.053 9
  24703938.819    -2830099.563 5  -2205270.317 2
  25994277.637     4782744.863 6   3726826.877 2
  26818595.673    -4746772.486 5  -3698793.521 3
 92  4 13 10 59  0.0090000  0  5 23 21 11 17 12
  24704747.658    -3056224.638 8  -2381459.898 5
  23203051.564   -14105347.039 7 -10991163.700 8
  24693022.774    -2887451.240 5  -2249959.945 4
  26013556.092     4884001.312 6   3805727.989 3
  26813865.848    -4771551.083 5  -3718101.525 3
 92  4 13 10 59 30.0090000  0  5 23 21 11 17 12
  24718485.648    -2984034.089 8  -2325207.513 5
  23206581.616   -14086801.385 7 -10976712.526 8
  24682203.866    -2944306.007 5  -2294262.336 3
  26032875.616     4985519.724 6   3884833.222 3
  26809259.536    -4795806.347 6  -3737001.703 3
 92  4 13 11  0  0.0090000  0  5 23 21 11 17 12
  24732240.725    -2911738.671 7  -2268873.427 6
  23210159.343   -14068001.521 7 -10962063.263 9
  24671485.685    -3000658.624 6  -2338173.428 3
  26052238.011     5087288.203 6   3964133.305 3
  26804752.158    -4819533.641 5  -3755490.466 3
 92  4 13 11  0 30.0090000  0  5 23 21 11 17 12
  24746020.386    -2839323.731 7  -2212446.230 6
  23213788.630   -14048945.505 7 -10947214.402 9
  24660859.541    -3056505.119 6  -2381690.189 3
  26071649.271     5189285.840 6   4043611.981 2
  26800332.615    -4842729.353 6  -3773564.937 2
 92  4 13 11  1  0.0090000  0  5 23 21 11 17 12
  24759828.529    -2766782.270 7  -2155920.413 5
  23217462.285   -14029641.271 7 -10932172.123 9
  24650325.433    -3111845.062 6  -2424812.191 3
  26091094.411     5291489.006 6   4123250.821 3
  26796019.200    -4865393.602 5  -3791225.366 2
 92  4 13 11  1 30.0090000  0  5 23 21 11 17 12
  24773650.759    -2694126.695 7  -2099305.676 5
  23221181.210   -14010095.743 7 -10916941.834 9
  24639889.060    -3166674.811 5  -2467536.652 3
  26110586.915     5393898.648 6   4203050.470 3
  26791805.021    -4887523.377 5  -3808469.361 1
 92  4 13 11  2  0.0090000  0  5 23 21 11 17 12
  24787501.172    -2621346.561 7  -2042593.898 6
  23224946.605   -13990300.142 7 -10901516.678 9
  24629551.616    -3220989.891 5  -2509860.090 3
  26130120.493     5496524.174 6   4283018.379 3
  26787695.163    -4909114.737 6  -3825293.715 1
 92  4 13 11  2 30.0090000  0  5 23 21 11 17 12
  24801372.869    -2548439.639 7  -1985783.306 5
  23228760.263   -13970253.911 7 -10885896.224 9
  24619316.702    -3274789.170 6  -2551781.597 3
  26149685.851     5599382.970 5   4363168.077 3
  26783693.833    -4930167.441 6  -3841698.293 2
 92  4 13 11  3  0.0090000  0  5 23 21 11 17 12
  24815270.344    -2475421.664 7  -1928886.177 6
  23232620.992   -13949963.015 7 -10870085.117 9
  24609181.017    -3328068.378 6  -2593297.842 4
  26169307.264     5702490.433 6   4443511.547 4
  26779796.531    -4950677.493 6  -3857680.139 2
 92  4 13 11  3 30.0090000  0  5 23 21 11 17 12
  24829186.112    -2402295.364 7  -1871904.647 6
  23236537.179   -13929406.738 7 -10854067.213 9
  24599142.169    -3380825.078 6  -2634406.955 3
  26188972.451     5805845.139 6   4524047.624 3
  26775987.668    -4970643.094 6  -3873237.717 1
 92  4 13 11  4  0.0090000  0  5 23 21 11 17 12
  24843125.861    -2329041.252 7  -1814823.516 6
  23240498.937   -13908571.239 7 -10837831.749 9
  24589204.649    -3433056.670 6  -2675106.884 3
  26208687.703     5909433.380 6   4604765.729 2
  26772295.128    -4990062.583 6  -3888369.701 2
 92  4 13 11  4 30.0090000  0  5 23 21 11 17 12
  24857088.395    -2255666.271 7  -1757648.207 5
  23244517.055   -13887455.032 7 -10821377.542 9
  24579359.162    -3484760.702 6  -2715395.702 4
  26228438.331     6013230.214 6   4685646.317 3
  26768708.410    -5008933.694 6  -3903074.417 1
 92  4 13 11  5  0.0090000  0  5 23 21 11 17 12
  24871071.913    -2182177.225 7  -1700384.012 5
  23248592.435   -13866056.551 7 -10804703.393 9
  24569621.605    -3535934.993 6  -2755271.773 5
  26248234.224     6117215.466 6   4766673.762 5
  26765210.732    -5027255.225 6  -3917350.955 3
 92  4 13 11  5 30.0090000  0  5 23 21 11 17 12
  24885082.414    -2108569.094 7  -1643027.052 5
  23252715.782   -13844385.888 7 -10787817.164 9
  24559988.374    -3586574.462 6  -2794731.086 3
  26268055.006     6221387.269 6   4847846.574 4
  26761839.865    -5045022.528 5  -3931195.621 4
 92  4 13 11  6  0.0090000  0  5 23 21 11 17 12
  24899105.806    -2034855.169 7  -1585587.653 5
  23256887.091   -13822464.441 7 -10770735.499 9
  24550448.379    -3636677.094 6  -2833772.082 4
  26287908.459     6325750.840 6   4929168.832 3
  26758560.136    -5062234.291 5  -3944607.392 1
 92  4 13 11  6 30.0090000  0  5 23 21 11 17 12
  24913151.984    -1961056.372 7  -1528082.091 5
  23261103.674   -13800298.836 7 -10753463.588 9
  24541019.006    -3686238.981 6  -2872391.713 4
  26307806.885     6430316.474 6   5010648.484 2
  26755395.224    -5078887.284 5  -3957583.715 2
